GFSGBSN_850_rhum_000.txt.gz
RH
76 88 73 53 35 45 50 51 54 55 58 53 63 70 72 74 67 67 71 75 74 80 77 81 82 70 84 100 72 56 74 28 44 81 74 69 57 54 60 52 47 50 45 39 36 35 32
83 82 88 68 41 45 49 55 57 54 53 62 72 71 63 62 62 59 53 72 71 78 73 61 74 70 95 95 48 66 86 61 30 80 78 71 55 50 48 50 50 41 38 33 30 28 28
88 78 88 66 47 43 45 53 61 60 69 77 78 72 66 69 68 58 56 55 74 83 84 63 74 84 99 83 48 50 81 88 41 74 80 65 53 49 49 50 42 33 43 40 32 28 30
83 72 79 72 52 47 39 49 63 64 73 88 86 81 85 78 68 71 67 74 63 80 75 63 75 97 93 59 50 61 64 90 72 87 73 58 55 54 53 46 34 34 36 45 35 33 29
71 62 69 79 59 49 38 47 59 67 76 94 98 96 96 87 88 88 71 69 63 61 64 64 95 99 79 58 60 55 66 73 80 93 81 73 65 60 53 51 47 46 51 47 41 31 29
56 57 63 79 77 44 44 47 59 74 76 80 93 100 99 99 88 94 79 71 76 84 81 90 91 91 82 83 50 52 57 65 82 96 91 85 83 70 49 48 72 53 50 45 41 26 36
96 60 48 58 82 42 46 48 55 58 62 81 93 99 96 100 99 97 89 85 100 98 100 90 87 76 69 66 65 60 49 70 88 99 92 88 92 91 78 46 44 42 39 40 36 30 32
98 70 48 41 44 39 48 51 50 57 64 76 90 97 95 100 94 94 92 100 86 84 94 77 90 74 79 66 71 81 69 87 93 90 78 98 91 75 59 51 41 41 42 43 36 29 26
99 93 51 40 38 39 45 48 47 54 64 76 87 100 96 96 90 99 92 90 97 81 75 77 75 75 71 65 76 84 95 92 79 76 82 81 70 65 50 45 46 45 46 41 41 36 32
98 99 56 48 42 39 41 44 48 54 60 68 86 100 99 94 94 95 100 94 85 81 87 90 85 67 78 64 92 85 97 87 71 73 70 70 51 58 56 45 40 48 37 36 35 39 45
100 98 97 48 49 40 40 44 49 52 56 62 82 100 96 100 95 93 99 92 92 99 97 85 83 79 74 76 94 97 99 82 71 70 72 67 51 54 46 42 38 39 34 33 33 40 40
98 99 100 83 50 48 41 43 47 51 51 54 64 94 92 90 82 86 93 92 98 100 98 95 97 97 87 95 90 93 99 74 62 58 52 46 35 41 40 34 34 36 33 44 47 48 57
96 98 100 99 61 50 46 44 47 50 46 49 51 73 95 96 96 92 90 98 100 100 90 97 93 82 80 88 85 87 92 88 80 75 73 58 29 23 29 32 26 35 46 60 59 63 62
91 92 99 100 93 51 50 46 46 48 43 43 45 55 74 90 100 100 99 100 100 95 90 78 78 79 89 75 80 81 88 81 59 48 59 68 47 30 23 32 36 39 44 64 64 70 55
91 91 96 99 99 79 43 53 56 51 40 40 42 48 53 59 78 100 100 99 96 86 77 80 73 93 96 80 68 72 75 55 49 48 45 49 48 32 29 24 31 35 47 40 50 50 55
91 93 92 98 99 92 61 48 55 44 38 38 42 53 58 66 76 100 99 94 92 76 68 70 89 86 91 71 66 61 73 55 66 50 47 47 53 39 32 28 26 34 34 46 55 54 53
92 92 94 95 94 92 81 56 54 40 37 39 59 64 62 76 85 100 96 93 92 67 75 89 75 83 69 68 58 62 69 61 57 56 50 50 52 54 38 42 46 39 38 34 46 52 55
95 93 94 94 93 91 88 78 58 40 40 54 62 63 65 82 83 87 91 89 86 89 93 83 51 55 67 70 61 74 75 67 58 51 57 55 64 71 54 40 37 38 40 38 47 45 53
97 96 94 95 92 90 89 90 57 42 40 55 56 58 73 76 81 85 66 76 87 90 79 70 77 65 57 65 72 68 70 60 57 55 58 54 68 79 60 52 48 50 42 39 47 52 56
83 91 92 92 91 89 90 90 66 42 42 57 57 60 50 66 64 70 67 67 74 74 70 61 61 60 66 66 63 70 69 62 54 54 51 46 54 58 62 54 55 58 55 46 44 58 48
69 81 89 88 92 90 88 86 84 44 44 57 50 60 59 55 58 56 52 56 62 61 56 58 56 53 58 66 62 70 64 56 50 48 47 44 48 45 42 39 38 45 50 56 56 49 45
68 78 90 87 89 90 87 83 84 49 43 55 50 56 52 60 50 56 61 52 56 57 55 60 65 54 53 61 59 64 61 55 53 47 50 47 51 36 34 34 36 35 34 36 42 48 52
72 72 85 85 86 88 88 85 83 54 42 50 54 53 46 60 57 54 58 53 51 55 47 49 54 48 50 44 40 46 49 49 49 49 50 46 41 38 34 47 45 46 45 43 36 35 32
70 72 79 80 84 87 88 88 88 67 46 55 57 53 47 60 59 58 51 48 49 46 52 48 46 48 43 38 36 31 36 45 49 56 49 50 53 55 53 52 61 41 42 40 39 40 37
71 72 77 76 83 87 88 88 92 86 50 47 54 54 46 68 63 56 51 55 48 48 56 52 49 46 37 36 52 55 62 51 58 68 63 51 56 67 69 72 58 48 44 44 43 55 50
75 71 75 75 80 85 87 89 90 92 79 61 64 60 54 61 55 47 51 46 57 57 53 48 43 41 41 55 65 69 75 62 66 66 62 58 60 60 91 81 70 48 43 40 39 57 54
74 65 73 75 77 83 85 86 92 96 93 84 75 70 69 56 58 45 52 54 47 60 68 52 42 41 45 67 78 84 78 58 71 72 71 69 70 72 82 82 73 54 48 42 57 52 61
70 62 66 73 73 80 84 83 88 97 94 92 85 79 72 70 63 62 59 50 54 54 74 58 62 58 65 72 78 80 79 70 64 67 75 75 88 84 84 82 81 50 48 54 57 58 52
65 58 57 63 69 76 81 83 90 99 100 92 86 81 75 73 76 69 66 58 59 62 56 56 69 64 59 82 83 83 79 78 76 75 58 69 72 80 74 73 55 48 50 51 51 53 55

GFSGBSN_850_rhum_003.txt.gz
RH
87 90 82 71 57 37 51 60 52 54 54 57 55 61 66 66 65 66 71 78 80 66 63 79 79 76 84 99 79 68 84 58 30 66 95 81 67 57 64 58 52 54 48 43 40 40 36
83 94 86 85 56 39 43 56 58 62 63 67 65 64 61 61 56 60 59 72 84 74 65 76 78 82 89 91 61 52 79 84 56 43 83 80 65 54 52 53 56 48 47 44 38 35 32
82 90 85 90 65 41 44 51 62 64 65 73 78 76 74 63 67 75 64 63 64 80 69 77 63 83 94 82 52 52 59 85 86 43 82 74 61 53 51 53 48 42 44 42 38 35 36
86 71 76 86 69 43 44 44 63 66 69 80 93 94 88 82 79 70 78 79 72 70 72 78 66 93 92 69 54 69 61 79 78 71 88 70 64 55 54 48 36 37 41 47 37 33 31
98 57 76 79 84 60 43 42 52 62 77 79 85 93 98 99 93 84 81 80 76 70 69 84 81 95 88 73 68 53 75 80 87 75 90 77 69 57 56 61 56 43 54 50 42 32 31
98 90 73 83 68 85 47 44 48 58 62 65 78 91 99 99 96 94 94 81 69 76 73 87 84 95 86 74 55 53 67 79 88 81 99 95 74 80 65 68 82 57 50 49 48 33 36
97 96 72 85 52 72 46 44 49 59 58 73 81 91 99 98 100 99 98 90 84 95 89 89 89 89 75 60 62 52 60 81 88 87 92 88 94 88 79 69 56 49 44 42 40 33 34
98 97 94 60 50 45 43 43 48 56 55 70 86 92 100 99 100 98 100 87 78 80 97 80 88 85 78 70 84 51 58 77 90 85 75 96 92 67 67 53 46 43 44 49 40 35 35
98 98 99 72 53 47 42 41 45 52 55 65 82 98 100 98 100 100 87 81 91 96 89 87 84 92 78 76 74 84 63 76 83 78 84 79 71 69 66 71 58 49 48 50 43 41 35
98 98 97 98 63 53 43 41 46 50 57 67 83 100 99 98 97 93 100 86 86 84 96 87 85 68 72 77 72 77 72 77 76 78 75 80 61 79 72 67 62 75 43 42 44 45 52
94 96 97 98 98 65 51 41 44 48 60 67 74 100 94 98 100 98 96 98 98 100 100 78 79 71 64 74 88 84 84 98 73 70 82 78 71 76 85 65 45 61 36 41 43 43 44
88 91 94 97 99 95 58 47 44 47 57 63 66 78 99 100 96 84 99 96 90 100 100 92 84 85 86 79 78 99 95 98 57 67 53 53 55 60 59 50 40 37 37 44 51 52 62
89 86 88 93 97 99 87 53 49 47 51 58 60 58 85 100 97 88 92 94 100 100 82 97 87 81 80 84 94 92 93 97 77 83 80 50 49 38 32 34 37 38 47 66 64 67 68
89 87 88 90 96 99 100 77 53 58 57 52 53 52 54 89 100 94 96 100 100 91 96 76 82 80 90 78 87 95 95 88 62 58 66 67 67 33 27 36 43 46 48 65 66 73 60
93 92 88 89 94 98 100 95 64 57 54 45 46 48 52 57 91 100 99 100 95 84 76 85 89 93 95 80 83 91 94 76 55 50 57 61 52 34 29 27 34 38 50 44 54 56 64
97 98 89 89 93 97 96 98 82 62 49 45 48 60 65 77 72 100 98 95 89 70 66 71 84 87 91 78 88 91 86 69 53 43 39 44 52 42 33 28 28 36 38 50 61 63 60
99 100 98 89 92 96 92 99 95 69 42 58 70 73 81 89 91 100 99 94 78 62 66 66 72 89 69 73 75 85 81 67 57 54 53 48 47 54 38 42 44 37 38 44 51 57 58
100 100 100 92 93 96 91 96 96 65 40 61 76 76 97 96 97 93 95 93 61 67 94 88 67 61 65 59 62 73 81 66 57 54 65 54 60 66 50 44 40 38 39 40 53 48 56
99 100 100 99 95 95 91 93 92 71 39 57 70 87 100 100 90 88 96 95 88 90 86 76 60 53 59 59 72 74 74 62 60 56 60 58 70 81 63 56 52 50 44 40 49 53 59
99 99 100 100 96 90 91 89 89 83 41 49 72 70 98 100 84 73 80 94 95 90 70 65 66 62 61 65 63 76 73 61 55 55 51 46 62 60 59 60 61 59 53 47 45 59 52
100 100 100 98 98 86 91 88 84 83 41 50 66 60 65 77 68 58 56 70 87 80 68 66 67 66 62 68 66 76 66 59 51 48 47 42 50 47 46 44 50 54 58 54 49 44 45
100 100 100 99 99 86 89 88 83 82 39 52 64 63 56 65 54 54 57 53 61 58 66 72 74 71 60 58 58 68 62 58 55 49 48 46 54 37 35 39 35 34 36 58 52 49 48
100 100 98 97 99 88 89 89 86 84 42 54 57 60 54 65 58 54 57 55 54 52 48 55 56 59 64 50 44 50 50 50 52 51 51 40 43 37 36 45 42 42 45 41 36 35 34
87 100 90 86 95 88 89 89 90 87 46 49 55 62 49 57 61 55 53 48 58 47 53 51 44 45 42 37 37 37 38 47 54 59 46 45 46 48 44 50 57 38 46 40 42 50 38
86 99 81 81 90 85 90 89 91 91 53 49 52 59 46 66 65 52 51 58 50 49 54 52 50 49 37 35 48 54 58 45 54 68 57 48 53 66 64 62 51 51 46 50 51 62 54
85 97 80 76 85 87 93 90 92 93 79 51 60 59 52 63 56 49 52 49 57 59 53 48 46 42 39 60 64 61 66 56 69 67 55 54 56 57 88 78 65 47 44 41 40 75 62
86 97 83 75 86 81 92 90 94 94 92 71 70 66 65 53 61 48 51 51 49 62 66 50 42 41 45 74 81 87 78 62 78 76 67 61 65 68 77 76 68 51 46 44 58 52 62
95 99 82 73 85 76 86 90 90 95 93 89 79 77 72 59 67 62 56 50 54 54 70 54 58 57 67 74 79 81 77 68 69 70 68 66 78 77 84 79 71 53 52 60 62 60 54
90 98 80 73 84 73 78 87 90 95 100 96 86 79 76 69 68 66 62 61 60 60 50 55 68 62 59 85 84 85 81 80 75 75 67 73 68 72 70 70 60 54 53 51 50 52 54

GFSGBSN_850_rhum_009.txt.gz
RH
95 97 92 92 89 90 86 46 38 42 50 59 63 59 53 60 59 66 68 61 60 66 70 68 72 82 94 99 89 79 86 77 87 99 77 96 94 77 75 66 58 56 51 47 42 42 46
96 97 97 79 78 88 92 56 39 39 49 62 66 69 69 68 64 63 58 57 58 61 69 76 72 85 91 97 75 62 71 78 84 98 89 86 82 72 69 62 59 55 50 47 46 45 48
94 97 99 82 62 63 91 58 40 39 44 71 71 92 86 83 87 80 63 57 56 56 65 75 76 81 95 88 61 55 52 56 62 88 94 73 78 68 59 63 56 53 57 53 49 44 43
98 96 97 98 76 61 73 83 69 43 41 53 74 84 85 87 92 91 85 73 65 61 54 73 81 93 96 88 66 57 61 60 58 61 83 73 93 77 60 54 54 59 52 70 51 37 35
95 96 96 98 96 70 62 75 88 62 44 44 54 69 63 67 77 94 97 82 72 78 74 75 91 96 91 74 64 52 58 69 68 59 74 77 98 90 62 58 56 53 76 64 57 41 42
95 96 96 95 97 94 74 51 83 68 46 46 53 74 73 84 88 90 98 100 86 86 90 85 96 96 87 88 73 67 51 54 81 77 99 88 98 93 76 74 90 64 63 53 52 39 40
98 95 96 96 95 96 76 61 55 58 46 49 57 70 74 88 98 99 98 100 99 99 95 80 86 73 81 75 78 68 59 59 84 100 87 84 94 96 79 70 61 54 52 51 53 37 38
94 95 95 95 94 95 95 65 53 43 46 47 51 66 76 89 98 99 100 100 87 70 89 78 87 89 75 81 92 78 65 70 89 92 72 81 93 70 68 70 59 56 55 55 50 40 39
92 91 92 91 88 90 95 95 69 49 46 49 52 66 76 95 98 99 99 98 94 86 88 91 76 94 91 80 84 76 76 67 84 74 75 78 77 61 69 78 74 63 64 60 59 50 44
88 89 88 88 90 86 88 92 93 67 48 48 52 65 78 100 91 100 99 100 98 97 100 95 91 80 88 80 83 70 75 67 77 73 63 84 72 71 76 76 70 82 52 52 52 60 68
88 87 87 92 88 87 87 89 95 92 59 49 52 62 77 97 93 93 94 100 99 97 98 82 84 73 76 71 69 78 67 67 80 63 65 90 96 76 83 74 67 75 61 60 53 55 50
87 85 83 92 90 87 95 90 87 98 91 60 56 60 75 80 90 90 99 99 97 100 96 96 83 92 89 80 72 79 77 71 78 58 57 89 78 71 66 66 64 49 58 62 53 50 63
85 85 83 83 88 92 90 94 86 96 98 93 67 76 87 84 91 95 99 98 100 99 83 96 91 86 72 90 89 77 79 82 95 91 73 90 87 84 84 64 54 52 72 98 96 74 67
83 87 86 85 91 91 91 93 96 93 95 100 91 97 98 96 82 99 96 98 99 90 90 73 82 80 82 77 89 80 76 92 90 76 65 97 99 69 80 73 71 75 72 80 76 71 60
88 88 86 87 90 92 95 94 98 94 95 100 100 92 100 99 93 100 96 99 89 89 84 82 78 85 97 75 87 83 83 75 83 74 60 82 82 54 50 50 60 78 85 49 62 62 67
86 90 91 84 90 92 96 94 100 94 100 100 91 99 98 100 100 100 98 99 90 89 80 68 73 74 88 79 99 71 88 72 83 68 57 68 61 46 34 40 35 56 48 77 61 67 70
82 89 96 83 89 93 95 93 99 93 100 98 86 100 100 100 100 95 100 98 87 90 71 61 74 77 65 82 95 90 88 78 72 64 51 49 53 56 39 44 48 53 74 57 54 61 62
83 89 95 82 89 93 95 95 95 94 100 84 84 96 100 100 97 92 97 86 82 79 67 72 70 73 77 80 88 86 86 75 69 59 54 46 57 62 48 48 40 42 50 49 59 60 61
92 89 95 86 88 94 95 96 95 97 100 91 86 99 100 100 98 97 87 92 87 83 79 82 71 61 66 82 94 81 76 65 62 59 61 53 65 76 61 55 58 47 42 44 51 53 61
94 87 92 88 88 96 97 97 95 99 100 92 92 99 100 100 99 99 95 88 90 82 85 80 62 57 65 76 73 93 86 67 63 54 51 46 63 67 70 59 61 64 52 48 44 56 56
100 90 90 98 86 94 98 99 98 99 100 93 86 86 89 97 97 97 96 88 91 90 91 80 73 60 61 83 84 88 87 68 59 59 53 48 57 52 48 52 52 56 56 51 49 43 46
100 94 95 99 85 96 98 99 100 100 100 98 88 76 74 70 65 97 96 97 88 91 88 77 70 58 61 72 75 87 74 66 65 55 56 53 58 44 43 48 50 58 58 49 46 50 48
99 100 98 99 84 95 98 99 100 100 100 79 73 70 66 64 61 74 81 88 90 85 87 66 62 59 64 57 52 59 52 54 54 56 54 59 50 51 55 44 40 48 49 61 51 54 42
99 100 98 100 86 94 99 100 100 100 100 96 71 75 68 62 63 58 56 64 85 68 86 54 54 55 49 49 44 44 46 48 46 50 42 57 55 54 53 46 56 42 47 52 51 46 46
98 100 99 100 94 99 100 100 100 100 100 100 66 78 67 61 61 55 59 62 62 61 70 56 58 53 49 48 72 75 70 48 56 58 52 48 49 62 61 56 46 54 54 55 52 55 53
98 100 100 99 97 100 100 100 100 99 100 100 64 78 74 66 64 52 58 53 62 61 57 60 63 52 63 73 67 94 97 77 59 56 48 53 50 53 86 64 49 40 48 44 47 56 63
98 99 100 100 99 98 100 100 99 100 100 100 73 81 82 61 64 52 58 56 50 57 65 54 54 60 62 72 70 82 76 60 62 60 58 61 64 58 71 64 59 48 49 43 57 48 64
97 96 100 100 100 100 100 99 98 100 100 100 92 86 89 67 77 67 57 51 55 46 56 49 49 49 80 80 81 80 74 71 69 60 57 57 68 68 79 71 55 51 50 54 58 64 56
98 92 100 100 100 99 100 99 99 100 100 100 100 91 90 68 81 74 66 60 57 54 40 56 56 57 52 81 86 87 82 80 74 71 69 60 54 63 63 63 66 60 56 55 56 52 53

GFSGBSN_850_rhum_012.txt.gz
RH
91 93 88 96 81 93 87 95 68 41 42 54 62 60 47 44 54 48 53 58 59 68 74 72 68 79 90 99 79 83 80 75 62 93 95 76 90 79 73 56 48 48 37 40 38 40 40
90 94 94 98 86 71 66 91 82 43 40 48 66 68 66 66 68 64 52 53 60 60 74 75 70 76 98 86 77 65 66 69 71 88 96 78 83 65 58 54 52 44 44 42 39 40 40
92 92 94 95 98 88 64 79 84 50 42 40 71 72 83 79 78 78 71 64 58 58 59 76 79 84 100 81 64 56 59 61 65 74 87 80 82 87 58 56 54 47 50 43 42 42 39
98 93 94 91 95 95 92 63 83 80 63 41 53 85 72 75 73 81 82 80 72 68 56 74 87 89 92 81 75 68 64 66 68 65 80 79 87 100 93 55 54 54 53 56 36 38 40
90 91 94 92 90 93 94 77 69 82 92 57 48 84 79 66 64 71 77 96 94 75 81 72 87 96 78 76 79 61 67 72 79 58 66 80 93 98 84 70 63 57 62 57 42 38 36
90 89 93 93 89 90 93 93 70 51 87 70 50 72 84 76 72 92 80 94 100 83 94 87 90 94 81 77 79 73 73 60 66 81 76 88 89 96 93 80 82 60 58 45 48 35 34
86 89 89 91 92 91 92 93 79 54 71 68 50 68 76 74 81 97 93 94 100 100 100 76 74 64 74 77 78 82 76 65 74 78 87 72 91 93 82 70 44 36 41 47 39 33 36
89 87 85 88 90 89 89 89 92 70 51 45 48 57 72 77 82 97 100 100 91 89 98 93 90 78 79 83 81 76 82 67 71 73 81 67 95 72 74 58 45 45 48 48 34 35 36
88 88 85 87 86 91 88 90 88 91 71 47 50 54 64 78 86 98 99 100 99 95 95 92 91 87 82 81 75 71 80 63 59 58 84 77 70 55 88 71 54 51 49 40 42 43 42
91 86 86 84 89 92 92 84 86 88 91 60 52 54 62 79 99 96 98 100 99 99 100 90 92 82 88 80 79 68 73 58 60 60 86 60 52 70 90 69 53 66 43 46 52 61 57
85 88 85 83 88 95 95 86 91 89 97 88 62 54 63 76 100 99 93 98 100 97 95 70 83 77 76 67 61 72 75 59 60 76 92 76 54 82 80 78 48 50 47 49 54 60 59
83 85 84 83 88 92 93 85 94 89 93 99 95 65 61 77 90 98 98 100 98 98 90 92 82 86 83 72 53 76 76 62 68 68 80 48 71 64 67 60 52 50 51 53 49 54 63
94 85 85 83 82 86 93 89 90 95 97 100 99 96 75 78 94 87 100 97 100 97 78 99 98 93 71 73 64 83 74 77 97 99 100 71 93 78 59 81 63 51 65 98 91 89 60
99 91 83 82 80 91 94 89 88 96 100 96 100 100 93 87 87 90 100 98 99 84 96 85 86 80 78 68 69 90 65 68 82 89 66 99 99 96 63 66 81 69 53 53 62 58 47
100 96 85 86 90 95 91 90 95 96 100 92 100 100 99 98 98 97 97 100 86 91 86 94 75 84 74 65 86 80 58 56 89 78 68 99 99 81 63 59 56 84 87 40 45 46 45
98 99 89 86 87 89 90 90 95 94 97 97 100 99 88 98 100 100 98 98 88 82 88 78 63 59 69 66 98 62 55 44 66 64 56 67 97 68 63 69 58 67 50 68 51 58 54
98 100 91 92 90 96 88 88 93 98 93 100 98 98 97 100 100 99 100 99 87 76 84 64 48 57 49 59 85 58 56 57 52 53 58 52 54 72 53 81 77 66 78 69 46 44 43
98 100 95 92 93 98 89 90 94 100 93 100 80 99 100 99 97 97 99 92 84 84 86 56 47 43 44 52 87 87 56 68 45 50 65 48 38 77 62 45 43 47 53 53 59 55 43
87 98 100 95 93 99 90 89 95 100 96 98 85 99 100 99 99 97 90 89 85 92 81 56 58 44 42 57 82 78 62 47 51 54 52 40 43 59 80 58 43 58 48 48 39 38 43
91 96 100 99 96 100 94 90 93 100 100 100 86 99 99 99 98 92 95 93 92 78 62 63 54 54 54 56 53 60 67 60 61 55 50 40 44 39 49 45 41 52 48 47 48 52 42
98 93 100 100 98 100 97 92 95 98 100 100 77 83 84 98 96 94 93 89 87 84 78 81 66 55 50 62 69 74 69 69 62 60 54 46 46 43 43 42 39 41 46 42 46 44 44
99 98 98 100 97 100 97 95 98 98 100 100 76 82 83 73 81 92 94 92 89 89 88 87 88 54 50 56 56 70 72 60 65 56 53 46 52 40 42 48 42 42 39 41 43 41 37
96 98 99 100 99 100 98 94 99 98 100 99 88 70 77 55 61 93 95 89 89 90 94 87 65 56 58 53 46 52 52 48 48 50 50 47 46 45 48 41 43 52 42 40 36 33 32
88 100 98 99 100 99 100 95 98 99 99 100 81 79 76 57 60 73 74 88 94 89 93 59 56 55 52 52 52 52 52 53 50 43 41 51 50 49 47 46 67 36 39 32 35 31 30
97 99 99 98 100 100 100 97 99 100 100 100 100 83 84 62 52 53 64 83 87 82 83 56 63 56 46 49 52 61 64 77 59 51 43 58 72 75 58 49 37 35 44 40 44 40 35
92 97 98 99 100 100 100 100 99 99 100 100 100 86 82 62 50 56 57 77 89 83 76 59 66 58 73 59 67 94 97 87 74 78 48 51 71 81 64 58 52 35 42 37 35 36 37
94 93 98 97 100 100 100 100 98 99 100 100 100 79 89 69 65 55 50 61 77 88 81 63 66 66 86 76 78 90 81 55 68 74 75 67 56 68 62 90 41 37 41 44 39 40 48
93 94 98 98 100 100 100 100 98 100 100 100 99 83 91 72 73 66 61 54 61 69 82 57 70 70 91 88 80 83 74 66 49 46 46 51 58 55 60 85 63 46 47 43 49 58 55
96 93 99 98 100 100 100 99 98 99 99 100 100 92 98 91 80 78 70 61 54 46 61 61 63 62 77 90 76 66 62 64 50 50 55 48 45 41 42 42 59 61 55 53 55 55 56

GFSGBSN_850_rhum_015.txt.gz
RH
87 85 85 90 90 92 90 84 85 73 42 36 52 64 61 47 56 63 53 52 52 49 63 80 71 74 86 97 75 74 75 70 74 93 83 68 55 57 61 49 53 45 34 32 32 31 31
91 84 85 87 90 94 81 65 76 83 56 36 42 65 68 65 69 72 66 55 54 52 52 62 71 72 94 78 65 65 70 74 68 72 76 70 55 50 47 48 47 45 38 35 31 33 33
90 88 86 87 86 91 95 94 64 73 63 40 39 59 71 78 85 85 82 75 58 45 49 55 78 86 94 72 63 65 65 61 62 60 66 70 61 54 52 50 42 44 44 37 34 33 33
96 92 85 85 86 89 90 94 93 66 74 72 45 45 84 82 82 82 87 87 75 62 46 50 70 97 96 75 74 70 69 64 61 60 60 65 66 60 86 72 52 47 55 66 39 32 32
88 91 89 88 88 84 87 89 93 82 72 85 89 49 63 82 72 69 75 76 94 85 68 63 73 97 76 74 77 68 67 61 58 63 59 59 69 73 82 96 79 60 68 60 52 30 30
88 89 87 90 89 85 84 86 90 93 74 65 90 70 50 76 79 77 85 89 98 100 84 97 89 88 72 68 66 70 67 66 59 59 56 58 72 81 83 96 90 67 65 46 53 31 35
83 84 89 89 87 87 87 84 89 92 83 59 82 72 51 62 76 80 91 100 97 100 100 79 69 61 59 59 69 75 65 69 65 55 67 53 84 87 70 74 55 42 47 44 35 28 32
85 82 85 85 89 90 85 83 86 88 94 70 77 61 53 67 72 91 99 100 96 88 95 93 72 72 62 75 68 70 66 64 59 60 50 63 93 59 47 61 76 73 49 38 31 30 34
95 80 88 85 89 89 87 84 85 87 90 94 64 52 51 66 80 82 91 96 99 95 98 95 92 83 71 79 61 60 66 61 47 54 56 70 66 57 46 71 82 65 53 35 37 34 34
100 84 84 87 86 88 88 91 91 85 82 94 84 56 52 74 89 77 100 94 100 100 100 89 95 94 87 92 85 65 64 57 48 53 51 68 51 79 54 74 80 89 42 35 38 46 53
100 99 87 87 88 86 90 94 94 87 92 98 99 67 54 61 90 98 96 98 100 99 96 68 91 85 92 92 56 54 54 61 55 50 85 87 72 85 69 81 71 80 39 38 45 49 61
98 99 98 92 81 82 89 94 95 88 95 96 100 95 65 82 78 98 96 100 100 99 93 88 80 86 82 94 62 56 54 57 50 54 76 64 48 60 62 70 70 70 43 49 48 50 64
90 96 100 96 87 80 86 91 94 92 90 98 100 100 94 86 89 99 100 100 99 97 72 97 98 93 94 91 76 62 66 74 86 97 99 80 81 70 65 94 90 91 71 92 84 89 51
80 97 99 100 94 85 79 88 93 89 88 96 100 100 99 83 97 91 100 99 98 70 83 91 94 95 99 71 60 50 67 80 63 79 100 92 96 95 66 90 86 89 65 52 58 55 42
85 89 96 100 100 90 80 89 95 89 91 95 100 100 100 97 98 99 98 100 90 78 88 95 95 100 96 62 53 60 70 76 57 64 100 92 88 65 74 84 69 83 68 39 42 35 36
85 97 92 97 100 92 95 94 93 90 94 97 100 100 98 97 100 100 98 96 93 82 87 91 90 58 65 61 68 74 90 57 49 49 71 90 99 90 92 77 85 68 46 56 42 51 46
89 98 93 98 100 94 96 97 92 89 94 100 100 99 96 94 100 100 98 97 91 79 86 94 75 52 45 66 65 71 54 40 38 42 69 89 99 94 88 87 85 86 79 54 38 37 40
91 92 98 96 100 97 97 100 89 89 97 100 100 93 98 99 98 98 100 95 84 77 86 87 71 36 38 42 61 56 50 36 32 40 87 82 93 100 79 51 49 55 72 47 49 49 38
99 98 93 89 98 100 99 99 89 91 99 98 92 89 100 99 99 100 95 94 89 89 90 81 47 37 32 46 54 63 50 31 45 40 66 61 59 100 95 65 62 72 52 46 42 37 40
94 98 99 94 95 100 99 98 88 92 100 100 81 98 99 100 93 94 96 96 96 80 79 61 50 35 35 45 40 54 64 41 46 38 54 53 48 47 52 44 62 79 65 46 45 49 40
92 98 98 98 98 100 100 99 87 92 100 100 89 78 80 96 96 93 91 90 93 93 80 63 69 44 42 46 46 54 52 48 47 44 46 51 49 37 32 32 41 48 51 52 51 44 42
97 97 92 96 99 100 100 98 89 93 100 100 84 58 85 84 77 88 93 94 94 86 61 87 86 49 43 41 40 57 48 54 55 54 55 48 53 40 44 39 35 38 38 40 43 42 40
99 98 97 99 98 98 100 100 90 95 100 99 99 85 72 54 57 79 90 89 85 79 73 74 74 55 49 38 33 40 45 42 44 52 57 57 55 46 46 39 43 50 38 36 37 34 34
97 100 96 98 98 100 100 99 95 96 99 99 98 86 72 57 38 52 92 90 90 88 90 69 83 88 47 48 47 50 56 54 50 45 44 54 53 46 52 43 68 33 31 30 32 31 30
99 100 94 95 98 99 100 100 95 94 98 100 99 84 72 59 42 54 89 91 94 97 92 75 63 59 50 50 55 78 88 87 74 70 45 45 57 61 59 58 46 33 34 34 35 36 28
98 100 96 93 97 98 100 100 99 96 98 100 99 100 93 62 42 50 61 79 94 92 91 77 66 62 66 74 68 92 100 96 97 93 54 64 52 69 67 60 57 36 35 30 29 42 24
98 98 94 94 97 99 100 100 100 99 100 100 99 100 96 70 55 56 48 72 94 92 85 65 72 67 84 79 78 76 76 59 89 94 96 82 93 96 92 70 54 33 34 33 40 44 36
99 98 91 92 98 98 98 99 100 100 100 100 98 100 96 77 73 67 68 61 96 92 78 68 87 77 85 88 82 77 66 53 54 56 72 71 83 90 78 84 84 38 42 40 47 45 39
99 98 93 92 97 97 97 100 100 100 100 100 100 100 88 98 96 78 73 62 69 88 81 63 70 73 83 95 76 70 74 58 45 56 43 60 46 45 43 53 49 46 48 50 48 47 47

GFSGBSN_850_rhum_018.txt.gz
RH
86 85 88 85 86 88 88 92 88 82 84 70 38 42 62 59 47 53 58 52 54 59 57 73 74 63 73 94 75 73 58 58 73 79 93 80 64 53 63 51 54 56 49 39 34 32 31
72 87 84 84 87 88 88 89 85 69 79 85 53 38 56 65 64 71 72 68 57 60 60 62 74 73 85 82 63 68 70 61 67 69 83 80 65 52 47 46 50 49 50 48 41 32 31
67 64 86 87 87 85 88 88 92 90 73 75 65 40 45 68 74 83 79 77 74 63 59 61 64 75 97 74 60 61 60 63 64 61 56 63 62 60 47 47 48 43 55 47 46 37 35
82 68 61 89 85 82 87 90 86 88 88 67 74 63 44 82 77 81 71 69 80 81 74 68 62 92 93 74 60 69 64 63 61 60 57 55 61 60 58 69 66 66 54 73 49 40 36
91 81 62 79 82 89 88 86 90 85 85 84 71 90 74 57 82 75 69 65 69 92 90 75 65 93 74 67 72 59 68 62 56 55 56 55 57 69 62 75 84 71 78 66 62 41 38
100 94 78 77 82 83 92 88 86 87 92 90 68 79 95 58 78 81 81 72 87 84 100 94 91 84 71 63 68 72 69 65 60 54 57 57 54 80 80 82 88 78 80 64 68 50 44
91 100 89 79 82 88 86 87 88 88 87 88 81 62 90 68 66 86 88 87 93 92 100 85 77 64 56 61 62 64 66 63 63 59 64 54 74 87 79 71 67 58 58 66 49 39 45
100 93 98 88 75 86 82 86 89 87 85 84 90 64 80 65 67 79 90 98 94 92 94 97 77 76 66 66 60 62 64 62 64 73 57 64 83 58 51 56 66 69 73 69 53 39 39
96 99 94 98 82 83 83 90 86 87 90 88 89 81 69 60 78 85 90 91 88 96 100 96 84 81 74 69 69 57 64 60 57 66 60 72 61 53 49 55 64 60 83 74 79 49 36
97 97 99 95 99 86 82 86 88 87 89 91 93 92 65 64 83 76 99 84 98 98 100 92 95 93 86 89 92 70 61 60 57 61 55 58 47 48 59 60 56 72 55 68 67 85 78
94 98 89 99 100 92 94 86 91 89 94 93 94 98 79 59 84 98 91 96 99 100 97 78 89 88 90 94 77 75 68 75 65 57 50 76 62 62 72 74 68 72 61 75 77 87 75
96 91 97 71 98 94 100 93 86 91 98 94 97 100 89 80 81 95 97 95 95 99 94 88 85 92 92 94 85 81 70 73 64 63 53 59 55 60 58 64 68 63 70 91 89 78 92
92 99 92 83 92 95 99 99 88 90 98 94 100 98 98 82 83 75 93 99 99 99 66 96 95 85 77 95 93 89 84 73 78 95 93 73 93 68 69 83 67 72 84 100 100 99 79
87 92 93 84 85 96 99 99 94 86 96 96 95 100 100 95 92 96 99 97 99 58 76 89 93 93 99 92 93 94 93 83 63 73 86 84 80 87 72 85 85 80 97 100 96 92 61
87 94 97 93 88 93 99 100 92 88 94 97 96 100 100 100 97 99 97 99 86 84 90 96 97 100 100 83 67 73 72 85 78 63 97 98 95 70 55 68 81 87 99 83 70 38 52
88 96 99 89 98 98 100 95 90 91 98 97 100 100 99 100 99 100 100 96 87 77 86 92 99 90 82 73 79 62 59 52 54 52 59 87 99 80 77 75 82 97 75 94 69 59 65
95 99 98 92 98 98 100 99 92 98 99 98 99 100 95 99 100 99 98 93 93 84 87 94 95 91 59 58 80 58 59 49 48 50 70 91 99 96 96 91 92 95 96 86 57 49 60
99 100 97 99 98 95 99 100 99 100 100 100 100 99 98 100 98 97 97 93 92 86 90 87 90 84 68 48 62 56 57 46 44 43 86 88 100 100 96 79 67 80 75 65 58 58 56
94 100 98 98 99 98 98 100 100 100 97 98 98 95 100 96 98 98 93 96 92 91 88 91 91 71 43 40 63 57 55 41 36 56 73 91 99 100 100 95 89 90 75 68 66 53 58
94 97 99 99 100 98 99 100 100 99 98 96 93 95 100 100 95 88 97 99 97 92 88 80 73 52 42 39 41 59 53 45 42 46 76 80 78 98 100 72 81 85 81 72 66 66 52
93 94 99 96 98 99 97 100 100 100 100 99 89 91 84 98 96 96 94 94 98 98 83 74 68 59 51 46 47 50 52 51 51 42 64 82 94 92 89 62 61 65 68 64 58 54 54
91 95 99 100 100 100 100 100 97 100 100 100 97 82 89 83 74 87 94 95 96 90 83 79 80 62 56 43 42 49 47 57 60 52 50 68 82 62 48 48 55 65 60 60 55 49 48
91 95 98 99 94 96 99 99 98 100 100 99 98 83 81 65 75 89 92 91 90 88 84 78 67 66 66 43 37 37 39 45 57 51 59 64 66 61 55 41 46 54 53 52 50 48 47
88 94 98 99 95 92 99 96 93 100 100 99 98 94 90 90 58 60 84 86 87 90 88 67 73 79 65 47 52 56 65 62 62 50 48 67 69 66 58 47 70 39 34 34 38 38 40
90 92 99 98 98 90 96 97 100 100 100 100 99 95 97 91 74 50 83 86 94 93 95 88 77 76 67 59 66 84 90 85 77 74 54 53 63 83 69 67 50 40 35 37 42 43 34
88 92 99 96 93 90 97 91 100 99 100 100 99 99 92 95 71 53 64 85 93 98 98 90 80 70 79 75 72 95 99 98 98 90 69 59 66 82 90 77 69 44 36 32 33 53 42
87 94 97 98 97 91 95 93 98 99 100 100 100 100 100 97 79 60 56 66 92 95 95 86 82 73 88 90 94 88 91 80 98 96 97 84 84 91 86 90 72 39 34 32 50 52 44
86 98 98 98 96 92 96 98 100 99 100 100 98 100 100 93 83 76 72 63 98 94 92 88 82 82 94 93 95 85 73 71 84 82 80 86 95 96 96 99 92 38 41 45 53 43 40
87 96 98 98 94 93 97 97 99 100 100 100 100 98 100 99 99 89 76 71 65 95 88 92 87 75 80 93 90 78 79 62 56 88 67 75 66 73 79 80 51 46 52 48 47 45 50

GFSGBSN_850_rhum_021.txt.gz
RH
85 67 50 66 87 81 86 88 86 90 84 74 77 52 41 63 63 47 55 58 52 53 52 60 79 71 77 91 85 68 64 62 67 67 84 86 83 74 69 66 62 68 59 54 50 46 42
95 92 74 54 67 85 80 88 85 87 88 78 81 76 40 51 67 66 70 73 69 56 52 53 64 81 81 95 53 56 66 64 66 71 76 84 82 70 62 56 56 52 52 52 54 52 44
100 99 93 76 59 70 84 85 92 82 89 88 74 73 46 43 67 73 80 81 81 72 60 50 54 76 84 68 59 64 64 63 62 64 62 66 68 76 63 61 59 62 66 53 51 53 53
100 98 99 94 78 63 91 82 86 83 84 85 88 71 64 42 76 74 82 73 66 84 78 71 52 70 87 64 50 67 61 62 62 63 61 56 55 61 63 64 62 73 71 77 53 50 48
98 99 99 99 96 76 71 80 86 82 82 85 86 72 81 74 54 81 73 74 68 73 93 87 67 62 81 62 68 59 66 59 58 57 57 57 56 61 64 74 86 85 90 83 67 49 52
98 100 99 97 100 94 71 76 89 85 81 88 86 84 71 91 63 77 83 77 75 90 85 99 77 92 75 61 63 60 65 66 60 57 58 58 56 79 88 84 88 69 88 83 82 56 54
100 98 99 98 99 99 85 74 80 88 84 88 92 92 61 90 86 66 87 88 86 99 99 87 80 68 57 62 63 66 68 71 68 65 69 61 84 88 82 77 67 72 79 82 66 53 58
99 100 100 97 97 97 98 77 88 79 81 86 89 86 69 86 80 62 89 92 86 90 95 87 80 83 68 61 68 62 65 70 69 78 72 76 87 65 62 68 78 77 87 86 67 58 61
99 100 100 99 99 98 99 95 86 81 83 86 92 93 81 79 70 77 80 82 86 95 95 89 76 96 89 75 74 66 65 66 69 80 78 83 65 54 59 66 75 79 87 80 73 62 60
99 100 100 100 90 86 99 93 92 90 86 89 95 96 93 80 74 73 92 76 86 96 100 86 92 92 91 85 83 73 64 63 66 79 74 76 59 59 69 72 64 80 58 60 61 75 86
99 99 99 100 92 84 87 99 100 90 92 89 93 99 98 64 65 74 70 81 99 100 95 78 88 85 92 88 80 77 69 71 83 69 75 81 66 68 67 64 60 68 56 64 62 77 84
100 99 89 94 96 99 97 96 91 94 98 92 96 98 100 77 95 91 93 84 95 95 94 91 85 88 86 90 79 80 76 81 89 91 83 73 54 58 58 50 57 61 68 69 78 81 96
100 98 97 86 93 96 95 87 96 98 97 99 100 100 99 78 89 100 84 88 93 99 59 94 90 83 81 82 88 81 91 95 99 99 100 93 81 72 73 85 72 81 85 92 93 95 89
100 99 100 90 91 86 98 96 100 96 99 100 100 100 99 93 80 78 87 95 98 66 78 83 84 75 93 75 90 88 96 100 90 98 88 96 93 81 73 76 79 89 78 80 90 78 68
90 94 99 98 97 98 99 97 100 87 99 100 100 100 100 98 92 86 92 99 84 72 80 95 96 100 98 91 81 83 87 99 80 80 90 97 93 68 60 59 60 86 95 59 95 96 83
94 95 98 94 98 99 97 99 100 80 97 98 100 100 100 97 96 100 98 97 84 77 87 93 100 95 93 83 95 98 92 69 73 62 60 83 94 60 68 78 69 72 59 90 100 98 98
93 87 95 95 99 100 99 98 100 95 99 100 100 100 99 100 100 99 98 100 79 70 83 95 97 97 97 87 79 78 66 55 54 60 59 76 99 83 76 97 82 94 99 75 83 86 85
84 89 98 98 99 100 99 97 98 100 99 100 99 95 100 100 98 96 99 84 80 84 92 90 91 94 95 82 84 77 64 56 46 46 76 85 100 98 86 85 62 63 84 72 86 94 74
86 88 91 98 98 99 100 99 99 100 100 100 96 95 100 99 98 99 91 91 85 93 93 94 93 86 76 73 90 71 58 50 55 60 81 91 99 96 100 95 81 87 83 87 95 90 67
87 86 90 97 97 100 98 97 98 100 100 99 89 98 100 100 94 90 94 98 98 94 92 88 83 75 77 74 61 68 62 52 52 54 72 79 98 99 98 92 86 89 85 90 98 89 66
90 83 93 98 98 98 98 98 96 98 98 99 88 94 87 98 98 92 88 92 99 99 92 88 91 82 80 68 55 61 62 54 53 58 80 88 100 99 94 90 85 76 79 82 84 72 69
90 82 92 96 97 98 99 100 97 100 98 99 97 95 89 90 84 96 96 97 97 93 92 90 89 68 73 79 55 60 62 59 63 71 83 86 99 91 77 71 79 83 77 65 68 55 53
92 82 92 98 97 98 99 99 100 99 100 100 92 86 84 91 84 93 88 88 92 89 85 80 79 74 77 70 55 54 58 45 59 63 64 76 87 91 70 73 73 88 70 68 62 53 50
92 84 90 95 99 98 94 98 99 100 99 97 86 87 85 93 84 81 81 85 89 91 92 77 81 85 70 62 56 63 62 68 74 79 56 70 78 76 68 57 71 43 44 54 58 52 53
91 85 88 97 97 94 88 97 99 99 100 100 94 93 87 93 79 77 72 84 95 88 94 90 82 74 79 76 77 87 94 87 81 74 68 63 75 80 80 78 56 45 39 40 49 49 43
91 89 86 98 98 100 91 96 98 100 100 100 99 98 88 92 88 76 64 79 92 95 97 96 91 71 76 85 84 96 88 84 96 87 68 64 66 80 94 81 71 45 39 35 36 56 50
91 90 87 96 98 99 93 95 100 100 100 100 99 100 100 96 80 76 77 79 81 97 97 95 93 75 79 93 90 96 92 76 96 96 85 84 83 91 89 96 80 48 38 37 45 48 51
91 91 88 96 98 97 90 90 97 97 100 100 98 100 99 95 83 83 76 66 90 95 96 94 95 93 97 98 94 90 90 92 90 76 83 86 93 95 93 98 90 41 38 38 51 48 58
94 88 87 99 95 97 88 88 99 99 100 100 100 99 100 99 95 95 88 81 74 80 86 97 96 88 88 93 94 90 85 75 89 92 77 84 76 88 78 72 54 51 50 49 47 50 61

GFSGBSN_850_rhum_024.txt.gz
RH
98 100 98 94 87 58 74 83 84 86 85 87 87 76 72 40 62 59 49 59 57 51 51 51 68 70 62 94 80 66 67 67 61 71 90 92 80 78 73 68 67 76 70 62 63 60 57
98 100 99 99 97 86 61 79 83 83 87 85 88 80 78 50 48 67 63 69 69 64 52 55 59 76 76 96 49 60 70 70 64 71 82 89 78 72 72 67 68 59 61 61 57 57 57
98 100 99 100 96 100 86 64 82 84 89 82 84 89 73 62 42 68 74 75 76 73 66 54 57 63 88 66 54 53 59 64 68 70 66 81 71 84 76 66 61 63 77 69 58 52 58
99 98 99 97 100 96 100 90 66 81 84 81 84 86 83 70 43 68 78 84 65 71 80 73 59 61 68 53 53 65 65 66 65 67 65 63 62 58 63 66 66 75 75 83 52 52 52
100 100 99 98 100 100 98 100 89 73 79 80 80 84 84 74 55 70 79 77 71 69 73 94 80 60 64 56 57 50 62 65 64 63 59 57 60 58 65 77 84 84 97 84 72 51 56
100 100 100 98 98 99 99 92 99 77 79 80 78 84 81 74 86 56 84 83 78 73 85 99 91 96 75 59 55 57 59 66 61 60 59 60 58 80 89 86 88 70 86 83 81 64 58
96 100 100 98 98 96 95 99 100 96 78 87 82 87 95 77 91 68 87 95 92 93 97 95 86 73 60 62 60 60 60 67 68 72 78 66 85 85 74 84 78 73 77 87 77 62 72
97 97 100 100 99 98 86 91 98 100 83 86 82 85 95 88 85 94 79 95 81 84 93 85 84 90 70 68 73 63 64 72 73 89 77 80 88 69 66 71 84 85 88 84 70 56 62
76 97 98 99 99 100 97 87 86 88 90 93 85 80 94 88 91 98 69 96 80 83 96 87 78 96 96 82 80 70 69 72 75 84 80 88 64 58 68 75 84 87 91 79 77 67 56
88 72 100 99 100 98 84 88 70 86 100 97 91 88 98 94 100 85 93 82 84 86 97 85 90 85 89 88 86 76 67 66 73 81 74 74 65 64 72 77 74 90 69 73 74 75 90
87 81 98 100 98 89 83 85 82 79 99 98 92 99 100 93 77 72 61 80 86 91 87 68 87 88 93 83 79 79 73 70 91 81 83 92 80 77 76 72 60 74 56 63 71 82 80
90 86 93 99 99 98 95 97 87 82 85 91 100 100 100 100 70 56 67 83 96 90 94 92 81 91 88 90 80 82 77 76 94 88 75 74 62 62 63 54 59 65 69 70 73 84 92
87 92 96 98 99 100 93 90 89 91 78 96 100 100 100 95 70 69 86 99 97 95 61 94 89 87 83 85 81 81 90 95 99 99 98 99 96 73 67 68 63 63 79 92 100 96 80
86 91 87 92 97 98 87 98 98 94 92 83 95 100 100 96 83 81 89 86 93 66 81 73 73 79 86 71 81 81 88 97 93 99 100 98 97 96 75 67 76 79 77 91 91 97 62
91 83 91 85 92 98 94 100 97 95 96 86 94 100 100 99 92 90 88 99 86 71 75 76 79 90 88 82 82 86 89 86 77 93 95 96 94 66 64 62 60 88 94 61 79 76 96
91 88 87 86 92 98 99 99 98 99 97 85 100 100 100 90 91 92 95 97 79 78 81 81 90 93 91 86 98 89 84 69 69 75 71 76 97 75 69 70 69 70 64 93 94 98 83
93 88 88 87 91 94 99 100 100 98 100 87 98 100 99 100 100 99 99 96 80 79 76 86 95 98 96 90 86 87 86 67 72 72 75 77 88 89 85 97 75 94 98 85 66 77 95
89 90 86 84 84 92 98 97 100 99 100 94 100 100 99 100 98 98 100 82 69 79 82 87 91 95 95 91 92 89 84 60 55 60 84 67 96 95 76 58 71 94 83 79 78 71 96
89 89 89 84 80 96 98 99 100 98 99 100 99 97 100 98 98 100 90 77 80 85 87 94 95 88 84 93 96 83 71 50 50 58 77 92 100 97 86 86 83 100 78 92 64 74 71
92 87 90 86 87 97 98 99 98 98 99 100 94 98 98 98 94 92 96 95 96 90 86 90 92 83 84 82 78 78 69 53 53 53 79 87 99 92 94 99 87 88 81 70 84 96 73
90 88 88 87 91 98 97 97 97 98 100 100 94 94 86 89 98 85 83 93 96 97 93 92 94 85 86 83 82 85 68 59 65 64 81 92 100 99 95 90 97 83 76 80 98 84 98
92 91 91 85 93 99 95 97 100 99 99 99 96 96 87 86 88 90 93 97 96 95 94 96 98 80 80 94 66 64 58 61 74 82 91 89 100 100 98 90 95 98 90 81 93 92 97
92 90 89 87 93 99 89 88 94 99 98 100 92 87 76 90 87 96 96 93 92 82 85 86 87 88 85 82 68 62 56 51 59 78 80 93 100 100 100 85 90 100 90 96 92 88 91
94 90 88 90 88 100 92 94 95 97 100 99 94 80 83 95 88 88 86 90 90 87 83 81 92 90 67 64 68 71 66 73 70 67 68 78 82 90 91 89 79 45 52 62 70 59 52
94 92 88 90 88 100 94 91 97 99 100 98 99 77 81 94 81 81 84 85 78 81 93 92 82 84 71 81 86 82 90 90 84 76 83 65 77 90 97 92 61 44 44 50 63 60 46
91 90 90 91 87 98 95 93 95 98 100 94 98 83 81 91 90 78 80 84 94 95 94 96 96 79 86 93 83 98 99 89 94 91 75 72 70 83 96 90 74 47 41 37 38 62 48
93 83 90 90 87 98 98 93 94 100 100 100 100 97 90 88 83 80 86 82 84 92 97 96 95 83 90 95 97 98 92 72 86 94 91 88 88 90 89 96 80 58 42 40 49 49 51
92 88 93 90 88 98 95 93 90 98 99 100 99 88 99 94 85 81 79 76 97 91 96 94 99 95 97 96 93 93 91 92 89 69 83 85 90 94 93 96 87 47 38 37 46 60 64
94 89 90 92 89 98 98 94 88 98 99 100 100 98 100 98 94 94 86 84 80 82 88 96 99 92 86 91 93 90 90 92 89 97 79 90 79 91 80 79 59 52 50 52 48 54 62

GFSGBSN_850_rhum_027.txt.gz
RH
85 89 100 100 100 99 99 88 65 79 81 85 86 85 87 76 47 64 60 55 60 55 54 52 53 55 63 95 86 65 66 62 66 87 90 99 84 77 76 72 71 81 74 66 62 64 66
98 96 100 99 99 99 98 100 86 67 77 80 82 86 85 82 76 50 70 62 69 67 56 53 53 77 77 88 41 66 66 70 74 73 91 97 91 76 80 71 70 64 65 65 57 58 61
99 98 100 100 98 99 100 99 100 89 74 80 76 82 82 90 76 50 72 75 78 77 69 56 54 66 89 59 53 48 68 71 75 76 80 85 94 86 86 78 68 66 78 70 67 56 59
100 100 100 99 100 100 100 99 100 100 91 77 82 81 76 84 77 55 70 83 86 78 84 72 60 59 63 49 58 60 68 68 66 69 71 70 82 75 61 64 68 76 78 88 56 62 56
92 98 97 98 98 96 97 99 99 99 100 79 81 80 76 90 79 58 71 84 87 69 71 90 80 69 65 55 51 50 64 66 67 67 66 66 65 60 63 79 78 84 95 88 71 56 55
80 84 91 99 100 98 94 98 92 99 98 100 79 81 75 82 81 67 74 87 83 76 84 96 98 84 70 58 56 54 54 62 65 62 60 60 62 77 88 88 86 76 98 84 82 62 66
82 83 88 86 95 100 100 98 95 74 98 99 88 84 89 89 84 77 81 100 93 92 89 94 82 77 62 65 60 63 59 62 69 71 78 69 84 88 80 85 82 88 86 84 79 64 72
85 91 92 85 94 97 99 100 98 73 67 90 99 86 93 89 95 93 67 97 83 88 94 79 92 89 70 73 73 66 67 68 75 91 80 82 89 75 66 70 79 89 96 86 75 64 64
92 94 97 88 98 99 100 99 96 79 83 75 99 93 95 96 99 100 89 85 86 85 90 77 82 96 94 79 82 73 69 71 80 93 90 88 65 61 69 76 84 86 87 69 71 60 63
83 82 86 83 86 97 93 94 83 86 81 84 97 95 96 97 100 98 99 97 81 84 94 78 91 87 88 83 83 74 67 67 72 88 84 86 69 70 72 78 79 88 72 76 80 86 88
89 88 87 89 93 94 82 97 98 98 98 90 80 99 99 100 96 99 92 81 81 85 85 70 88 91 92 82 77 78 74 69 78 86 84 88 94 82 78 72 67 73 61 77 78 85 87
87 90 86 85 92 94 97 100 100 100 82 85 87 94 94 100 97 92 86 72 89 88 94 88 86 87 90 87 81 81 79 76 88 86 77 76 70 73 75 60 62 62 69 74 76 88 97
92 92 87 89 91 92 99 99 92 85 80 75 80 94 99 98 89 85 74 90 98 93 62 90 82 87 72 80 81 80 89 94 96 98 98 98 95 80 69 75 62 68 91 97 97 96 83
88 96 89 88 90 90 95 87 98 94 74 81 90 95 99 83 93 78 81 89 97 70 89 67 75 90 89 82 83 81 85 87 84 98 100 98 99 95 86 71 78 86 87 95 90 92 84
94 94 92 92 89 89 95 94 98 99 90 96 93 99 99 100 93 83 80 98 83 70 77 72 72 84 85 67 74 88 91 79 76 74 98 98 95 84 83 66 73 99 98 72 87 68 89
95 95 92 89 91 89 97 91 100 99 96 99 98 97 96 95 90 98 94 88 77 72 71 67 91 78 80 76 91 91 84 69 76 71 67 80 95 76 79 68 76 83 65 95 98 96 91
93 94 92 90 88 93 98 92 98 99 100 99 93 97 95 98 95 98 97 93 78 80 71 85 84 97 84 89 87 82 80 72 68 72 71 71 87 84 88 92 87 93 96 90 75 84 90
94 94 89 92 85 92 99 92 98 100 98 90 99 98 100 100 97 98 100 84 70 87 80 82 78 82 90 83 96 84 94 73 63 72 93 72 92 97 74 70 59 63 71 77 81 88 76
94 92 94 92 85 88 96 88 97 98 100 100 96 95 100 99 98 99 93 80 76 89 83 89 94 85 78 91 100 93 80 58 64 70 84 80 99 97 95 84 82 100 95 86 71 70 80
86 89 91 91 88 88 97 89 89 96 100 100 96 100 99 99 90 82 89 87 92 82 82 86 93 88 94 94 90 86 84 58 55 59 67 75 100 96 89 84 99 99 94 93 96 95 76
86 93 86 90 90 89 93 90 88 92 100 96 99 97 94 98 98 87 77 92 91 96 84 89 95 95 95 97 76 86 81 74 63 61 81 91 100 99 93 81 80 100 98 91 97 78 86
81 91 88 89 87 87 94 92 90 93 100 98 97 96 86 84 87 86 86 95 93 81 92 97 99 84 90 96 70 79 74 70 66 77 90 94 100 100 96 85 94 96 96 87 80 76 78
93 90 91 90 92 88 98 93 91 98 99 100 90 98 75 84 88 91 94 90 86 82 86 81 90 96 92 80 70 64 69 64 64 79 94 98 100 100 93 96 95 100 94 95 83 73 80
92 83 84 90 90 91 98 99 90 98 100 100 100 100 91 94 85 88 87 82 86 86 84 83 89 96 74 73 66 72 76 76 74 72 72 96 100 100 100 100 98 86 86 82 92 86 84
96 87 82 89 91 90 99 98 91 97 100 100 100 100 83 95 79 79 84 89 90 92 90 84 88 81 78 81 95 88 91 86 81 79 75 78 82 98 100 98 68 48 68 94 97 93 82
91 80 81 83 93 90 99 96 92 93 99 98 92 100 87 89 90 74 83 86 96 97 97 86 85 92 88 89 87 93 98 96 86 89 81 80 81 92 92 100 81 50 44 40 63 65 56
93 86 78 80 91 89 99 95 94 96 100 100 89 99 90 82 85 79 86 88 88 93 96 94 93 87 88 95 96 92 97 80 88 85 96 95 94 95 90 94 83 58 56 42 52 50 54
90 81 90 85 90 89 96 99 94 95 100 100 98 92 99 90 87 83 82 87 98 89 96 90 97 99 98 98 96 93 84 84 81 65 84 88 89 86 93 94 77 55 44 42 47 59 65
98 82 83 82 83 91 92 100 92 90 99 100 100 98 96 98 91 85 85 83 83 89 88 93 96 93 89 86 90 88 92 93 88 94 81 88 77 86 83 79 61 54 54 55 53 58 64

GFSGBSN_850_rhum_030.txt.gz
RH
99 99 99 99 100 100 99 97 95 100 76 86 74 81 92 80 84 75 54 61 60 59 53 54 63 67 73 99 84 69 66 65 70 84 99 99 90 75 77 76 75 86 80 69 65 62 63
95 99 98 98 100 100 100 98 98 94 99 80 85 79 82 85 82 82 56 71 64 67 61 57 63 81 80 83 44 60 70 71 72 98 99 100 92 80 79 76 72 68 67 68 62 58 59
89 88 88 99 98 100 99 100 98 95 99 99 88 81 80 86 83 82 73 71 74 78 73 62 60 70 87 56 52 54 71 72 78 85 87 96 95 84 88 82 71 70 82 75 70 62 62
92 89 89 91 86 96 94 95 97 97 99 97 99 88 79 88 89 78 74 66 83 89 83 74 66 66 61 51 50 55 57 73 74 78 70 70 76 92 75 63 66 75 80 93 62 65 58
91 87 91 97 99 86 95 90 88 88 85 93 97 100 87 94 91 86 71 64 90 85 70 88 83 79 72 58 51 50 59 65 67 68 68 70 69 64 65 75 78 78 83 86 75 57 61
92 87 91 95 89 85 92 96 98 87 96 89 99 97 94 91 97 94 67 73 100 86 73 86 100 88 72 61 56 55 55 66 67 66 66 64 64 78 81 84 91 74 72 62 74 65 69
80 84 90 87 91 89 95 99 94 89 85 94 82 88 98 89 99 100 78 100 95 90 83 93 93 77 66 69 63 62 62 63 68 64 78 71 85 94 86 79 67 77 93 90 75 66 76
91 91 90 91 85 90 97 99 96 97 87 85 86 80 97 90 99 100 68 99 78 74 93 73 90 90 76 76 73 69 66 67 75 88 80 84 94 76 68 73 83 85 87 77 70 65 71
90 98 94 90 89 92 99 91 85 96 99 91 84 80 85 92 100 100 83 87 78 75 83 77 78 97 86 80 83 73 72 71 80 93 93 90 67 65 73 80 85 88 91 84 78 62 63
98 88 95 88 86 87 85 92 93 96 94 94 82 74 82 100 100 99 98 94 82 70 92 77 95 89 92 88 80 73 66 67 80 92 90 93 72 72 78 83 82 89 74 76 80 88 92
88 92 97 88 88 91 86 99 99 99 97 92 85 64 68 100 100 100 88 94 81 67 98 74 93 94 90 74 76 85 75 67 79 87 84 83 90 92 90 76 74 76 69 79 83 95 98
89 94 94 90 90 88 92 98 97 94 95 98 70 56 76 87 99 94 89 94 75 86 98 91 87 89 90 87 77 81 81 73 83 77 78 74 74 75 77 65 62 64 74 76 92 97 95
97 94 94 84 93 93 92 93 94 98 100 96 77 62 70 90 100 99 94 84 95 96 66 87 87 79 76 82 75 78 87 95 97 99 98 92 92 77 73 82 69 82 100 97 98 97 86
98 96 94 86 93 93 89 92 99 97 98 94 86 83 79 75 100 100 86 86 94 70 88 69 78 76 79 68 74 84 85 93 85 89 100 97 90 87 79 73 79 82 88 95 92 86 85
99 96 93 93 92 95 85 99 98 95 98 100 99 93 87 94 100 96 90 97 82 73 77 81 81 82 93 78 74 83 87 88 64 81 98 99 93 82 83 73 64 98 98 72 97 96 96
99 86 93 94 95 93 86 98 99 100 99 99 99 95 90 98 98 99 90 85 73 64 70 70 85 78 77 76 85 90 84 76 74 74 63 80 95 78 80 83 75 81 79 97 98 96 94
99 94 92 92 90 91 88 98 100 98 100 99 95 94 95 99 99 98 97 85 76 77 64 78 82 86 75 82 78 82 81 71 72 76 68 76 92 84 86 97 84 97 96 100 89 95 92
99 94 80 84 91 92 87 98 98 93 97 96 92 98 98 98 99 98 97 84 75 85 81 84 73 86 84 80 90 88 87 75 63 76 86 70 95 96 76 63 62 68 77 78 84 88 86
98 94 81 81 91 91 86 99 94 94 98 100 95 94 100 76 99 100 90 86 80 91 87 85 82 78 77 86 99 91 84 65 66 78 87 77 98 98 88 84 68 99 86 72 69 63 82
92 82 86 87 89 92 87 97 94 94 95 99 93 99 100 100 96 87 88 89 97 82 81 80 80 77 88 96 91 96 90 68 68 70 69 69 95 88 84 70 99 100 88 96 98 96 80
93 89 88 86 87 90 90 94 96 88 99 100 94 99 97 99 99 78 75 82 85 94 81 83 83 82 93 100 96 97 87 78 67 65 77 83 100 97 92 80 91 100 99 96 98 89 97
87 78 79 81 87 90 92 94 97 94 99 96 94 96 95 82 89 78 85 92 94 81 86 91 97 87 93 98 74 76 69 78 76 78 88 90 99 100 97 86 99 97 94 98 96 92 96
88 80 77 76 85 92 92 96 96 98 99 98 96 99 85 87 85 89 93 87 85 81 85 75 86 96 97 92 83 74 63 68 71 78 95 98 100 100 89 90 100 100 98 96 95 94 88
99 82 78 75 78 92 92 99 98 98 100 100 99 99 91 97 87 82 89 80 84 82 78 86 86 92 81 84 75 73 77 80 77 76 73 98 100 100 98 99 98 89 91 88 92 81 70
97 95 82 75 78 92 91 98 100 98 99 100 100 100 96 92 80 82 88 86 83 82 90 86 85 86 85 82 91 98 97 92 87 88 86 84 96 100 100 96 89 66 90 91 97 87 77
86 93 77 86 87 92 92 97 99 99 98 99 98 95 100 90 86 74 83 87 93 96 100 95 92 93 98 93 91 83 97 94 89 85 79 78 81 98 99 98 97 58 56 68 74 69 78
84 98 85 79 87 82 92 93 100 99 98 100 96 100 95 85 84 78 86 91 86 91 95 95 93 98 98 97 95 100 91 82 88 70 96 98 98 99 91 93 82 60 61 55 60 58 56
98 82 84 72 81 81 89 88 98 98 98 100 100 93 100 89 88 83 80 84 94 90 96 92 98 98 98 95 97 94 93 83 84 65 85 87 95 90 86 96 76 57 51 48 52 57 62
83 76 86 76 77 82 88 87 99 99 98 99 98 99 100 95 96 84 83 82 85 87 89 97 95 98 86 90 96 91 93 94 87 94 81 90 80 79 84 84 60 59 57 58 60 63 68

GFSGBSN_850_rhum_033.txt.gz
RH
92 91 92 90 90 94 98 99 99 100 89 95 100 83 86 88 93 80 81 56 63 57 58 57 62 61 55 97 90 70 75 66 73 99 97 98 85 71 73 76 78 86 79 72 68 64 61
92 93 91 92 99 99 92 99 98 99 96 82 98 100 88 86 96 90 81 77 61 59 63 59 61 79 65 78 53 69 74 73 72 95 97 95 88 79 75 77 71 71 71 70 66 62 60
90 93 92 92 94 91 97 99 100 100 99 96 99 99 98 92 88 95 80 77 54 68 74 66 62 69 75 53 52 49 67 75 74 99 94 96 90 82 84 84 75 72 78 71 69 66 63
90 87 89 85 87 90 87 88 96 95 97 99 98 99 99 97 90 94 95 77 54 79 84 77 77 69 59 54 51 53 61 75 80 88 84 78 85 90 85 68 66 74 74 82 63 62 63
88 81 93 90 93 90 89 84 93 94 88 91 92 78 92 93 96 96 100 81 61 92 84 85 90 82 72 64 55 52 59 64 76 77 73 70 79 73 70 75 78 79 86 88 68 58 63
91 96 82 97 90 92 92 88 89 99 93 88 83 76 77 96 97 100 100 87 88 97 74 80 99 93 75 66 57 57 54 66 67 69 69 68 67 77 76 84 87 82 90 72 64 55 66
97 95 89 94 91 90 85 82 90 92 79 83 86 81 72 86 85 100 100 100 99 91 80 78 84 78 70 73 66 68 60 68 67 68 82 70 83 92 80 79 70 78 86 79 67 59 70
93 83 85 96 98 90 90 91 87 93 79 83 90 86 83 78 90 100 100 97 72 57 87 71 89 88 80 75 73 75 68 67 71 85 78 86 90 72 71 80 83 79 84 69 56 53 65
89 90 98 92 91 92 90 90 92 89 86 92 94 88 87 74 98 94 98 82 73 65 69 76 75 88 84 76 80 76 69 73 81 92 89 88 69 67 71 79 83 85 88 82 79 63 59
91 94 85 95 93 94 90 87 91 86 94 99 99 90 98 97 89 97 100 88 73 69 87 73 93 91 90 87 80 72 68 64 80 90 90 91 74 73 83 85 78 90 73 73 77 82 86
91 96 94 96 91 94 93 90 91 96 87 87 86 88 76 100 96 100 97 89 81 62 86 72 95 97 93 78 71 86 76 68 84 86 86 78 88 93 84 74 75 75 67 74 77 89 87
97 99 98 96 93 94 89 92 90 93 90 97 98 80 77 96 79 87 98 89 80 86 94 92 89 93 93 81 78 84 82 72 75 78 83 76 72 75 78 71 67 64 76 78 83 88 96
98 96 98 92 95 94 89 89 89 98 99 98 99 87 84 76 84 90 100 98 97 90 68 97 88 86 77 82 79 78 87 91 92 98 98 84 84 74 70 80 73 72 100 95 96 98 83
93 96 98 91 94 91 89 90 93 97 96 98 100 95 79 86 80 98 100 98 91 74 82 67 75 79 79 73 72 78 87 92 79 89 98 96 87 87 76 75 82 86 87 91 92 82 70
99 100 97 95 94 93 89 87 96 96 99 98 100 95 91 87 84 100 96 98 80 74 75 80 75 82 84 74 76 79 83 79 71 83 96 96 85 78 81 76 66 97 97 72 89 79 95
96 94 97 94 92 93 92 85 94 94 100 99 98 96 96 85 76 100 96 94 69 67 73 74 86 79 88 87 92 92 89 76 77 75 72 81 97 74 79 79 77 87 72 96 98 96 86
94 90 95 94 90 90 93 89 97 96 96 97 94 94 96 91 94 100 100 89 82 72 62 72 84 87 71 84 82 84 83 70 75 79 72 72 87 79 90 93 79 91 95 99 89 88 81
84 91 93 84 73 88 93 92 90 95 95 99 99 97 97 99 99 100 100 80 80 86 76 81 78 78 78 78 79 77 83 73 66 76 87 75 85 97 85 66 66 63 72 76 96 80 92
81 90 90 75 77 75 90 90 79 94 98 99 94 96 97 97 99 100 88 87 88 86 86 83 81 77 77 75 90 85 84 66 68 76 85 76 96 97 79 79 71 87 72 70 89 85 94
84 95 81 76 81 77 93 87 88 94 99 100 92 100 99 96 98 93 86 91 96 83 84 79 78 73 76 85 80 87 83 74 68 72 70 65 88 86 80 61 83 99 89 83 98 96 78
89 92 87 76 79 81 92 90 93 98 100 96 95 99 97 99 99 84 76 78 95 93 84 81 90 78 78 94 85 87 81 76 72 70 70 81 100 88 84 76 75 96 96 97 98 88 96
92 88 85 79 82 84 92 92 95 99 99 100 99 96 93 92 90 80 79 83 82 92 79 88 94 78 77 92 81 90 85 85 75 78 84 81 100 100 96 85 82 99 95 96 97 94 97
88 97 93 84 87 92 93 89 97 100 99 98 97 97 90 85 88 92 86 75 82 79 79 71 82 82 87 89 82 82 72 66 70 82 85 98 100 100 90 73 89 100 99 97 98 96 84
94 82 92 82 85 94 94 91 99 98 100 100 100 99 96 99 93 92 84 81 85 83 85 85 81 87 85 87 89 88 86 86 78 77 73 92 100 100 97 97 98 91 87 86 91 96 88
97 95 98 92 77 83 86 83 92 100 99 99 100 100 100 96 88 80 86 82 85 82 82 77 88 85 84 86 90 93 92 94 92 84 82 78 90 100 100 96 74 59 65 82 97 86 76
100 99 89 84 73 76 84 64 58 96 98 98 100 100 96 88 87 75 90 87 94 94 98 95 93 91 94 92 90 91 91 84 88 89 83 84 80 98 94 99 97 64 63 69 73 71 78
81 92 92 83 72 72 79 68 56 93 97 98 98 100 100 94 84 79 85 89 80 92 96 94 98 99 97 98 98 97 93 82 86 70 98 98 95 97 97 100 81 59 65 65 60 64 72
87 79 81 73 68 75 85 56 70 93 98 98 98 100 100 97 84 82 80 85 91 87 97 95 98 99 98 99 98 90 97 86 83 73 88 86 92 98 93 91 89 62 56 57 58 60 63
75 73 74 74 75 76 86 47 74 94 99 98 98 100 100 95 94 87 84 81 80 76 85 92 95 93 90 93 95 91 95 91 86 94 77 92 83 76 75 78 63 63 60 60 66 72 72

GFSGBSN_850_rhum_036.txt.gz
RH
93 91 93 92 96 96 95 95 98 100 98 98 99 91 99 97 89 95 94 80 78 51 56 56 56 56 73 89 71 70 69 64 67 93 100 88 70 60 54 51 59 54 44 50 50 58 51
93 92 90 92 92 89 88 90 90 97 99 94 99 100 99 97 93 86 100 83 79 53 56 60 56 66 74 64 65 76 70 64 82 97 96 89 75 70 62 56 56 54 57 54 54 52 50
90 91 91 91 92 92 90 92 88 90 92 93 90 91 92 99 100 93 96 90 79 58 58 66 60 62 77 62 50 52 73 69 72 95 95 96 85 78 69 61 65 60 61 47 45 45 45
97 95 87 94 94 92 92 93 92 92 88 98 86 85 71 92 100 99 96 99 80 65 69 73 67 64 68 55 53 56 57 77 78 94 85 90 89 87 64 64 55 53 52 52 43 46 46
95 97 97 89 90 90 92 83 88 85 91 95 91 86 74 76 86 95 99 100 89 66 84 78 84 78 71 65 58 53 60 75 84 79 75 86 83 71 67 65 60 53 53 55 50 41 45
98 93 96 93 97 93 92 92 92 88 83 93 76 78 82 70 86 95 99 100 95 88 94 93 95 89 81 69 58 54 61 70 74 72 72 73 63 57 52 58 55 45 54 48 49 40 44
95 94 93 94 94 89 90 91 90 92 88 87 82 79 82 80 78 88 87 100 99 100 98 70 80 73 74 72 70 64 70 69 68 67 65 65 69 70 54 51 45 53 54 55 46 42 45
94 94 92 92 91 94 90 90 89 90 88 76 94 80 95 88 86 86 98 100 90 73 86 83 88 83 82 80 74 81 74 61 58 64 61 69 76 49 48 52 59 59 61 58 46 40 44
94 96 99 93 95 95 90 90 92 91 92 85 86 82 80 98 98 91 97 92 78 53 61 86 88 83 86 80 69 76 71 67 56 66 64 63 54 52 60 62 68 64 64 55 54 45 42
98 91 99 98 98 94 93 91 91 93 88 96 86 84 93 96 91 75 83 79 94 76 89 79 85 78 83 79 66 75 70 63 64 61 64 63 49 57 63 63 58 62 45 54 54 59 62
100 99 86 94 97 82 92 90 90 90 94 94 90 100 99 99 90 93 88 84 99 82 94 69 88 91 80 63 70 87 77 65 64 65 66 65 69 74 67 60 54 60 51 54 56 61 63
97 100 96 97 98 80 86 94 89 88 94 97 99 98 98 96 82 81 97 95 100 96 85 90 87 92 88 66 68 84 80 74 63 62 67 52 60 58 54 52 52 54 62 62 60 73 90
100 98 98 96 91 80 92 93 92 96 95 93 95 99 99 98 81 78 95 100 98 96 63 92 82 87 73 75 77 70 84 85 83 97 94 65 63 57 60 66 60 64 89 75 84 93 67
82 94 91 89 79 82 91 90 93 96 97 95 97 96 93 97 85 78 100 97 95 69 68 63 69 74 79 70 71 73 81 89 64 64 77 79 75 65 67 68 62 78 74 69 68 44 40
93 91 87 84 76 92 85 92 91 90 91 97 98 92 92 69 77 90 99 98 84 59 63 68 70 78 79 67 65 72 75 70 62 65 87 84 78 59 61 58 56 82 96 58 80 66 76
82 81 86 88 76 78 80 85 88 95 95 98 98 89 89 82 92 94 98 99 62 61 58 56 72 63 76 73 76 70 68 55 56 54 52 67 88 57 65 66 64 66 53 87 92 78 61
83 80 86 77 75 76 75 87 94 97 96 98 98 94 97 85 100 96 100 94 75 60 56 60 65 70 63 72 68 69 63 57 56 59 56 63 70 68 74 83 68 82 92 94 63 61 70
83 91 86 76 76 75 76 90 95 100 93 98 100 100 97 96 98 99 100 75 66 68 72 67 60 58 60 64 68 65 62 58 56 61 71 55 70 83 63 43 44 43 55 61 89 70 79
80 94 91 87 77 75 83 75 91 95 99 100 98 100 99 87 96 98 96 85 75 69 71 66 70 63 58 61 73 61 67 59 62 60 59 58 85 83 51 69 56 74 58 52 67 76 93
83 87 90 91 82 92 85 75 83 99 100 92 100 100 98 91 99 81 96 92 86 80 72 68 66 59 64 70 64 75 73 63 63 57 59 56 67 68 58 53 63 99 78 76 96 96 74
84 92 93 90 84 92 88 58 76 99 96 95 98 97 94 100 97 74 65 73 78 80 73 66 71 66 65 75 78 92 72 64 66 67 63 64 97 72 67 60 63 80 87 93 99 93 94
94 91 92 93 76 93 92 68 75 98 97 97 99 96 99 82 79 77 75 72 71 79 70 77 70 69 66 76 69 75 69 70 71 66 72 71 95 100 96 71 76 99 92 96 97 96 97
92 98 99 90 77 89 70 79 53 97 99 98 98 98 92 94 75 75 68 66 65 65 69 63 63 68 72 67 65 68 76 67 60 64 69 79 98 98 94 76 78 94 97 96 95 93 86
98 98 97 92 76 70 83 80 38 90 100 100 99 98 98 94 76 70 64 61 70 66 72 75 69 70 75 81 85 86 85 85 71 66 65 84 100 100 99 91 93 70 63 73 86 79 83
90 82 92 84 75 66 77 80 21 75 99 99 99 100 100 88 73 80 72 67 72 75 77 72 80 79 82 85 92 83 90 90 74 69 67 62 80 100 100 93 69 54 53 62 93 94 81
94 93 90 90 71 70 76 70 23 83 92 97 100 100 100 91 87 73 70 69 75 77 82 89 85 88 93 92 95 77 66 62 80 92 83 73 81 99 100 96 81 51 49 59 72 96 93
93 87 85 72 70 68 85 67 21 81 97 99 100 100 100 99 81 85 68 76 76 80 92 97 99 99 96 96 88 79 70 69 86 80 92 98 98 97 97 98 68 45 51 61 55 62 64
70 88 90 76 73 79 86 62 24 71 95 94 99 100 100 99 90 83 79 87 88 84 94 96 94 98 99 99 99 72 72 67 71 60 68 73 82 97 98 90 82 54 49 56 53 60 61
37 39 91 77 80 74 69 50 28 49 95 85 98 100 100 99 96 87 83 81 78 75 85 94 91 91 90 97 89 72 80 72 66 67 66 72 59 64 61 54 49 59 57 62 70 69 71

GFSGBSN_850_rhum_039.txt.gz
RH
95 94 93 94 93 92 92 89 93 92 90 89 94 97 99 98 99 100 90 99 83 76 57 56 55 53 74 80 70 79 78 81 83 91 94 72 59 49 47 39 38 44 38 33 37 41 42
93 95 92 92 93 92 93 92 94 92 90 92 92 92 84 84 96 100 96 91 94 77 58 58 57 59 83 63 64 72 69 76 78 90 95 84 69 55 48 41 44 40 40 38 40 40 40
98 95 90 95 90 84 92 90 91 92 94 93 92 96 92 82 78 94 100 92 99 84 61 60 61 70 83 54 59 61 68 78 85 83 80 86 78 64 61 53 50 50 52 42 39 38 38
97 99 86 96 97 96 88 91 69 83 83 94 90 89 77 85 77 77 99 91 99 88 62 69 67 88 66 64 71 48 72 78 83 87 90 91 81 76 70 58 48 48 45 51 30 34 34
99 98 96 94 91 97 98 92 92 87 91 90 91 91 72 74 74 74 91 94 99 87 65 78 79 82 60 62 58 61 65 69 71 77 87 95 85 79 70 58 50 44 48 41 33 31 34
96 95 96 94 97 87 91 93 92 90 95 90 91 76 77 72 79 75 84 97 97 97 90 97 94 81 74 64 67 65 67 69 66 66 73 72 63 59 56 56 56 42 42 38 37 30 37
99 99 98 99 98 92 95 93 91 94 88 85 79 75 80 71 72 84 80 95 99 99 100 76 76 59 68 70 70 66 67 68 64 60 55 54 57 58 44 40 38 36 43 40 32 30 37
96 91 97 96 95 98 95 87 92 90 91 93 92 86 76 81 85 90 86 99 97 100 91 80 74 72 70 67 67 64 63 58 60 69 52 67 74 43 37 39 43 47 49 45 36 32 36
97 98 92 97 82 93 86 88 92 92 94 91 94 94 92 78 95 91 94 72 92 100 88 79 73 69 77 74 56 66 63 52 49 54 55 62 46 42 44 50 55 51 51 45 44 37 34
98 91 97 99 97 96 77 77 82 84 84 92 94 99 97 85 95 97 93 58 94 100 100 86 81 72 79 68 62 63 60 52 49 48 49 51 40 47 48 54 48 55 37 40 44 51 52
98 98 92 94 90 81 78 80 87 94 89 88 94 91 98 99 100 90 89 66 87 100 97 72 72 68 70 56 60 67 60 61 50 48 52 59 55 53 56 49 42 49 45 48 49 54 59
96 99 94 88 80 78 80 77 92 94 89 91 93 91 99 96 88 85 89 80 88 99 97 87 88 77 70 53 62 68 67 66 51 48 52 47 47 48 47 44 43 47 51 57 56 65 86
95 95 87 88 81 78 77 78 92 90 92 93 88 92 94 96 94 98 87 97 98 97 61 93 80 75 68 64 66 70 76 78 73 93 85 61 53 47 46 56 51 53 73 72 83 88 65
96 93 82 83 75 79 76 92 93 90 90 91 96 97 90 92 96 88 98 97 98 77 65 52 68 69 76 65 66 62 68 80 56 54 64 74 76 53 55 61 58 60 65 66 61 37 34
94 84 79 78 75 81 85 93 90 91 97 91 97 88 89 96 95 88 98 96 94 56 58 63 70 91 83 59 60 66 66 65 55 53 76 69 71 47 52 49 49 64 86 54 70 55 63
98 81 89 81 73 77 93 95 88 90 97 98 99 96 96 96 96 97 98 100 60 48 51 54 69 57 74 71 69 65 71 49 54 45 42 63 79 49 52 51 51 55 47 80 90 82 59
91 79 84 89 77 78 94 98 90 93 97 100 97 100 99 81 86 98 99 94 63 49 46 50 55 57 55 64 58 63 61 51 44 45 46 57 62 64 60 72 62 68 76 67 54 60 62
94 80 90 93 90 88 94 93 88 98 98 99 99 99 99 98 98 99 100 84 53 54 60 53 44 45 51 52 60 56 54 48 45 44 59 52 67 80 56 39 38 42 58 58 86 59 62
98 80 86 92 90 87 94 95 63 99 100 99 98 99 99 99 99 100 94 80 58 62 58 55 59 47 45 52 63 53 51 51 50 50 51 52 77 78 63 57 42 56 50 47 56 80 95
97 91 86 84 83 87 91 89 67 100 100 99 99 100 93 94 90 75 96 82 72 68 59 51 54 46 50 54 51 57 58 58 54 49 59 49 61 67 59 62 52 89 60 57 96 97 71
100 97 98 89 91 74 91 83 51 93 95 98 93 96 92 94 73 58 63 69 72 64 58 54 58 52 52 62 62 66 56 61 61 59 56 56 80 60 56 51 54 65 71 73 97 96 98
100 98 97 89 91 64 95 53 44 95 85 94 98 97 89 67 63 55 64 67 80 66 53 59 55 55 52 55 54 63 63 64 64 63 66 68 87 96 89 63 61 83 66 73 96 96 97
87 78 85 90 96 67 61 64 26 82 97 99 98 99 100 80 59 67 60 55 55 53 59 55 52 56 61 56 55 57 65 58 52 70 71 73 96 94 84 62 62 86 89 91 90 81 89
94 88 92 94 82 75 50 71 24 68 96 100 100 99 99 82 65 59 52 52 53 52 64 61 57 56 76 77 76 72 72 78 75 61 60 72 88 96 100 72 89 56 46 53 70 82 83
92 86 91 96 68 69 64 70 27 51 98 99 100 100 99 77 59 56 58 53 54 64 60 61 67 72 81 78 88 76 79 83 72 68 59 55 71 99 92 76 56 46 48 56 71 91 85
85 88 87 85 82 82 84 65 32 31 84 91 100 100 100 99 74 58 62 56 61 59 65 70 92 83 86 90 96 81 69 50 72 93 61 54 58 99 75 93 72 42 41 50 70 74 79
60 79 90 92 76 77 86 57 32 30 80 84 98 99 100 100 77 75 59 62 61 63 82 90 98 98 98 91 100 81 62 51 68 72 89 91 100 99 97 96 63 38 42 50 60 58 55
24 70 66 23 48 56 48 34 28 53 82 80 95 99 100 99 95 86 82 71 76 71 80 92 94 97 97 99 96 66 53 49 53 49 61 71 84 98 99 100 87 45 44 57 52 54 54
27 76 62 32 67 92 86 84 92 62 49 60 92 99 100 99 99 88 82 81 81 79 82 90 87 86 84 95 94 72 62 57 50 58 53 65 50 84 76 62 38 43 49 53 62 61 64

GFSGBSN_850_rhum_042.txt.gz
RH
94 96 95 98 95 92 94 91 92 92 92 91 92 92 95 99 93 93 95 100 95 98 86 56 52 55 62 96 83 83 69 83 88 85 83 76 58 51 50 40 39 42 39 34 33 35 36
99 96 98 95 95 93 94 92 91 92 89 92 90 90 92 92 93 82 75 98 99 99 94 64 54 60 60 70 67 78 68 77 84 93 83 78 59 51 53 44 40 37 38 38 35 34 37
96 98 98 95 97 92 97 89 88 83 90 93 90 90 93 91 86 87 80 84 100 96 96 73 58 61 80 67 57 72 61 72 75 77 84 84 76 63 56 53 53 44 55 47 43 40 41
95 96 96 98 97 97 98 89 86 90 92 86 93 91 91 92 78 65 73 76 98 100 98 74 64 85 79 66 68 50 65 71 77 75 80 87 85 72 70 58 50 55 56 71 40 39 36
96 98 94 97 96 92 92 92 87 86 88 90 95 90 91 76 79 80 69 67 83 83 99 82 74 90 67 61 62 58 68 69 71 77 84 89 77 74 68 66 65 53 64 56 44 35 34
99 96 98 98 92 84 82 98 84 96 87 94 79 83 76 75 81 79 82 76 74 93 99 92 92 87 74 66 57 60 64 64 66 76 86 90 82 78 70 75 80 57 59 51 46 37 37
99 97 98 97 100 95 88 88 82 95 80 86 77 90 81 84 72 76 82 74 77 93 98 91 81 61 63 61 64 61 65 64 59 68 67 64 75 84 71 62 56 45 45 46 39 30 37
98 98 93 94 92 92 82 81 80 76 77 75 76 92 87 93 88 86 87 99 90 98 99 87 75 62 66 66 63 62 65 61 60 68 52 64 74 48 41 39 44 46 51 53 43 34 36
97 96 99 97 84 87 92 82 84 77 78 86 89 93 91 99 94 89 83 90 74 95 98 91 75 65 70 62 59 62 62 56 58 65 65 66 49 42 49 47 52 54 58 54 50 41 39
98 98 98 89 92 87 88 77 77 82 93 84 92 91 90 97 100 100 78 70 91 99 100 98 78 69 73 63 58 60 57 49 51 61 58 61 46 42 50 53 50 62 43 44 45 54 67
93 94 96 92 79 79 81 93 88 86 92 89 92 94 87 95 99 98 92 92 88 97 97 94 77 69 71 57 61 63 58 54 51 50 51 60 50 54 56 48 43 51 48 51 52 62 69
97 100 86 81 79 89 88 90 82 80 88 85 82 83 90 91 98 79 88 89 90 97 95 99 80 72 74 59 60 59 59 58 52 45 45 50 44 46 49 42 42 47 50 56 59 68 93
98 95 79 88 93 92 93 89 85 91 89 90 85 80 89 94 99 91 96 85 95 97 94 98 83 68 66 68 70 64 73 71 77 89 91 62 58 46 46 53 47 49 62 94 98 93 91
92 91 80 75 92 93 90 90 95 89 86 84 97 96 92 96 98 97 99 93 92 66 100 56 73 67 72 62 71 69 76 78 61 59 78 76 76 56 51 58 59 60 68 94 86 77 70
100 87 80 85 91 85 93 92 92 94 98 98 98 85 98 99 99 90 95 97 79 71 58 77 73 86 79 63 65 72 74 69 59 55 75 67 73 45 53 49 54 64 86 58 78 64 86
99 88 80 84 81 88 94 92 89 99 98 100 98 96 99 94 95 79 99 98 97 51 52 60 78 60 85 70 72 71 70 52 52 46 46 66 78 51 52 46 48 54 49 85 94 96 85
99 95 78 82 92 79 90 90 94 100 99 90 94 95 98 93 90 91 100 100 84 48 50 52 57 55 56 66 62 63 60 49 44 46 45 53 66 66 63 75 73 68 72 64 64 73 91
98 98 94 82 83 80 90 91 86 100 97 94 98 98 94 80 97 99 97 98 65 60 53 45 44 45 52 52 62 56 60 50 42 44 57 49 70 87 71 48 51 53 62 64 82 74 77
98 96 96 92 86 83 89 93 62 100 100 99 98 99 91 99 96 99 96 87 58 61 55 52 48 42 43 55 66 52 55 49 47 47 55 55 80 92 66 60 46 61 55 56 63 77 90
95 99 99 97 89 82 88 91 56 99 100 95 97 99 96 97 91 99 96 81 79 65 54 49 49 44 46 55 49 57 61 55 50 49 48 48 66 80 90 73 70 84 65 56 74 98 78
92 98 81 90 91 82 88 84 41 92 88 96 96 85 85 90 83 91 76 75 69 66 55 49 53 48 48 58 58 56 56 67 56 58 52 56 85 70 67 58 59 67 69 67 99 96 98
87 96 95 92 93 80 80 86 27 81 84 91 98 99 96 63 58 69 75 68 64 57 54 55 57 51 50 55 58 59 58 62 70 64 62 59 97 96 90 65 69 80 70 70 71 76 91
96 91 91 92 80 74 92 86 23 82 91 98 95 96 100 70 62 64 61 64 64 56 59 51 52 58 60 64 54 55 57 51 54 68 67 74 93 95 85 71 77 89 75 75 86 84 84
99 90 91 90 76 75 83 80 34 45 98 100 99 98 99 80 66 59 50 50 55 57 62 57 52 56 75 72 70 66 69 68 69 61 57 75 93 97 95 89 95 63 61 58 65 63 83
92 89 90 90 79 74 80 82 43 31 84 100 100 99 99 97 62 55 57 51 58 60 57 58 73 80 80 76 80 72 82 77 73 74 70 63 86 97 96 85 62 52 54 56 62 78 77
96 92 88 87 88 73 82 81 45 31 55 94 100 99 100 100 69 53 54 52 57 61 68 80 91 80 78 85 89 75 82 66 82 89 68 62 66 98 97 97 84 49 49 54 72 91 68
98 93 78 87 84 89 91 60 65 88 36 80 100 100 100 97 80 63 64 62 59 60 86 86 94 93 85 93 89 81 71 50 75 87 99 98 99 99 97 96 75 47 51 57 76 79 64
99 97 86 90 92 88 92 89 90 92 53 58 94 99 99 99 87 78 77 70 64 68 80 95 93 95 92 97 96 86 63 59 57 68 80 87 97 98 86 95 93 46 50 66 66 60 60
99 98 94 94 96 92 92 92 92 96 78 60 99 97 100 100 98 89 82 78 78 77 79 88 84 84 84 93 95 89 83 62 65 62 53 70 62 82 79 77 52 44 50 59 61 66 69

GFSGBSN_850_rhum_045.txt.gz
RH
92 96 93 97 98 93 94 91 96 90 83 94 92 90 90 90 95 89 90 86 97 99 97 98 74 59 68 92 85 80 76 82 88 84 75 80 77 64 60 54 50 53 48 41 40 37 36
95 95 91 96 94 92 96 94 91 82 80 83 92 78 90 91 92 88 97 87 78 95 98 99 79 67 75 94 69 76 65 77 87 86 77 76 67 56 52 54 51 40 43 45 43 44 42
98 95 92 94 89 96 91 93 82 91 84 91 86 88 91 93 90 90 95 92 75 92 98 100 83 72 91 73 62 76 63 64 75 81 83 75 77 61 60 56 53 49 55 54 50 46 47
96 97 95 97 98 99 94 91 86 85 90 96 86 80 72 77 70 86 79 72 58 60 100 100 86 74 89 59 64 61 63 72 78 79 78 81 82 66 66 56 51 56 59 78 55 46 44
92 91 98 99 94 95 99 92 90 84 97 92 76 76 73 77 77 77 80 84 69 52 85 100 86 84 77 66 70 62 61 62 79 79 82 92 93 82 68 65 71 62 78 76 64 41 45
97 99 98 88 94 84 87 92 82 81 82 77 82 73 76 87 82 84 78 68 61 64 80 100 89 91 82 69 70 65 59 70 76 76 91 90 85 88 86 82 95 75 76 64 60 43 43
100 92 99 98 92 86 87 84 91 94 77 77 79 71 76 84 86 90 89 68 79 76 98 96 90 76 63 65 60 59 64 66 75 76 90 88 90 97 88 80 68 64 61 57 48 39 40
99 98 99 96 87 87 77 90 95 92 76 93 93 83 90 94 96 99 98 93 88 98 92 87 95 72 65 60 62 60 65 62 68 87 62 68 78 65 64 66 71 67 58 61 51 39 42
99 99 98 89 94 88 96 98 94 91 81 91 82 84 85 86 85 97 100 87 84 92 98 96 99 79 66 63 64 62 66 61 62 71 65 78 53 50 57 58 53 56 62 62 62 51 45
98 97 97 83 96 92 94 97 86 79 74 84 83 78 84 87 91 90 94 87 89 89 100 98 93 81 65 62 66 64 65 57 60 63 64 63 52 47 58 60 54 67 51 52 54 62 74
97 93 95 87 84 92 92 88 93 94 96 91 93 94 80 82 96 98 96 92 100 82 96 98 94 76 62 71 63 64 63 54 65 61 65 72 59 58 55 55 49 59 52 57 60 71 76
94 99 89 77 81 92 78 87 88 95 90 86 87 80 91 88 100 85 99 93 77 92 95 100 89 79 82 64 62 62 61 56 51 53 56 55 46 49 54 45 46 50 56 58 63 78 96
99 98 86 77 79 80 92 90 89 89 96 95 96 97 97 96 97 91 98 79 88 96 99 100 94 76 74 74 68 66 71 75 78 81 87 65 61 48 48 59 50 60 70 94 89 95 93
100 99 88 78 80 90 92 91 91 98 89 92 100 86 92 93 95 90 85 98 86 59 93 84 75 73 93 71 72 72 78 83 66 64 89 87 88 65 54 61 67 64 70 92 93 92 83
99 98 93 79 82 86 92 88 91 98 98 100 80 96 92 93 91 88 86 99 87 100 94 95 84 79 91 71 81 73 76 76 64 64 79 84 77 53 52 50 57 68 85 65 79 77 94
99 96 98 94 91 92 88 91 94 98 98 97 84 86 90 97 96 88 97 98 98 93 70 67 96 73 90 76 84 78 79 61 62 56 52 67 80 60 57 49 54 59 59 86 92 94 94
98 98 98 87 91 88 82 92 93 98 98 95 89 86 98 95 90 88 99 100 98 75 61 58 69 71 65 80 73 74 76 57 48 52 50 55 69 77 63 72 75 72 80 64 73 87 96
98 95 94 98 90 84 72 88 45 98 99 89 91 97 99 95 96 98 100 100 90 73 62 50 46 58 61 65 74 60 67 54 40 42 58 53 76 90 81 59 59 63 68 65 92 75 89
92 84 98 84 78 79 66 37 32 100 100 89 83 94 90 99 99 100 96 94 78 73 57 54 50 46 49 59 67 57 64 52 47 48 56 57 82 95 74 69 61 76 67 64 68 82 91
90 86 91 92 85 78 59 36 39 92 93 92 93 96 91 99 94 98 96 92 91 61 60 52 50 43 51 57 57 67 72 57 52 56 50 47 74 80 87 77 77 86 68 66 77 98 80
95 96 90 88 88 77 64 44 19 83 93 98 95 87 86 99 97 93 85 82 75 71 57 51 52 50 53 63 59 58 67 67 58 59 54 64 85 74 76 73 69 75 77 76 84 78 97
96 96 90 90 85 74 74 61 18 57 89 95 91 96 99 93 86 80 87 89 74 69 65 63 65 61 60 63 64 58 63 66 70 66 64 66 85 97 92 71 74 84 76 76 77 76 89
92 92 89 92 91 78 76 67 26 31 98 98 100 99 99 78 73 70 67 67 65 59 60 58 59 71 81 79 64 65 61 56 66 75 64 76 85 98 93 70 83 92 80 75 73 79 84
88 94 92 93 83 87 79 64 36 18 95 100 100 100 99 88 72 65 63 64 70 66 69 62 64 78 77 70 64 61 64 70 70 66 58 83 81 96 98 86 95 65 54 60 70 74 76
86 99 93 94 54 77 42 34 36 26 45 98 100 99 100 96 75 59 59 70 64 61 63 80 82 82 77 74 85 84 88 76 72 79 70 73 85 95 100 96 70 57 57 57 65 70 73
92 99 94 97 91 88 92 69 27 39 25 74 99 100 100 99 79 73 57 53 68 74 70 92 85 72 72 84 84 85 93 81 98 93 78 77 78 94 99 100 91 64 50 53 65 85 63
92 98 98 98 94 97 93 92 91 61 34 35 98 99 100 99 83 72 65 62 55 64 89 90 89 84 80 89 94 80 83 60 90 86 96 95 99 98 96 97 82 58 50 65 75 71 65
93 98 100 95 97 100 90 91 95 93 74 35 70 100 100 100 88 79 73 71 62 63 80 95 86 92 95 95 92 86 82 67 67 86 87 95 97 100 99 98 92 46 53 67 65 63 65
90 98 100 98 99 97 95 97 95 95 97 84 66 100 100 100 92 88 81 81 77 75 75 79 83 86 79 91 94 94 92 80 75 80 69 84 78 88 77 74 51 52 55 60 62 63 69

GFSGBSN_850_rhum_048.txt.gz
RH
97 98 96 96 95 98 96 87 89 87 83 85 86 94 93 75 92 89 89 89 89 90 94 97 96 97 69 91 82 79 82 51 96 89 85 84 80 74 70 64 58 60 53 46 43 43 44
98 99 99 98 96 98 97 98 96 81 84 85 82 91 81 76 88 82 94 92 86 83 78 98 92 91 68 92 48 74 80 67 98 91 87 72 75 68 55 55 61 50 48 46 44 44 46
98 96 98 97 97 93 94 99 86 92 88 94 94 89 79 76 69 78 89 79 76 64 66 90 93 90 81 66 73 71 72 70 70 81 79 72 74 66 59 58 52 50 55 54 50 47 49
98 99 98 99 95 99 88 87 83 75 95 86 76 77 76 74 78 78 77 70 82 71 56 64 94 99 85 53 68 77 67 73 78 82 77 70 77 72 64 57 55 58 62 69 51 46 43
98 100 99 95 99 97 86 81 80 90 94 87 81 78 74 73 81 82 79 74 61 66 63 58 96 96 73 59 61 74 68 75 85 83 84 83 91 80 64 72 74 64 78 76 66 50 50
98 97 98 97 95 83 86 93 96 93 91 87 78 90 90 79 87 86 80 74 56 58 61 79 99 92 86 70 58 62 59 73 86 88 99 96 99 95 87 78 88 82 77 69 66 47 49
100 96 98 99 84 94 92 94 100 90 93 82 93 84 74 75 87 91 91 77 67 89 94 97 94 89 72 61 71 65 66 76 81 84 93 90 93 94 90 74 64 59 66 63 52 42 44
98 95 94 96 96 88 92 89 92 90 89 93 89 78 72 80 76 85 91 99 90 95 88 84 99 96 80 67 72 68 67 70 84 90 83 90 89 74 77 76 79 74 71 69 55 45 44
97 97 94 86 91 78 84 80 88 92 85 90 94 92 87 80 71 85 86 90 96 91 97 87 92 93 67 60 63 65 66 68 76 81 72 80 57 56 61 68 73 63 64 62 63 54 46
96 99 99 90 79 76 84 90 89 91 91 93 90 95 86 77 73 90 86 99 78 95 98 94 95 92 72 61 67 64 65 59 64 74 63 64 52 55 64 63 56 66 52 55 59 62 76
96 99 100 89 78 78 89 87 87 97 92 95 88 94 97 99 97 82 86 88 81 96 96 92 95 87 71 72 65 68 66 53 67 65 64 69 64 56 60 59 52 61 53 57 61 74 74
98 99 100 84 80 80 83 81 91 87 94 92 91 97 97 98 99 98 90 96 94 94 95 100 98 91 80 66 64 68 62 55 52 58 58 57 49 52 53 50 49 53 57 68 73 80 93
97 99 100 97 81 81 77 89 86 98 98 98 92 84 84 93 96 94 96 93 88 96 98 100 97 79 75 74 75 68 71 70 75 91 95 64 62 49 49 62 53 58 73 93 91 95 85
94 97 93 98 97 90 83 92 91 97 99 91 81 90 91 93 84 88 96 92 89 87 87 89 76 75 91 72 75 73 75 81 66 72 88 86 86 62 52 60 69 67 71 88 79 96 88
99 99 95 97 90 93 96 87 95 98 92 86 81 84 96 91 86 87 88 98 97 98 99 85 74 86 98 86 81 72 73 77 68 64 79 85 75 56 56 52 57 69 83 65 84 82 96
97 95 89 92 91 90 95 91 92 99 96 86 83 85 92 93 99 98 100 98 99 94 79 71 97 83 99 91 91 76 74 64 61 58 57 68 86 60 57 53 53 57 62 89 93 82 88
80 96 90 95 86 60 86 93 96 99 93 73 72 89 95 92 88 85 99 100 99 77 74 65 83 72 79 81 78 76 71 62 54 57 52 56 74 83 62 70 78 75 82 70 77 81 93
91 90 94 91 83 74 60 88 62 98 86 72 77 96 93 97 95 99 100 100 95 85 68 68 54 58 70 73 75 66 76 60 49 51 66 56 77 95 84 60 59 64 71 69 90 72 92
86 97 63 91 89 76 51 35 35 85 82 77 81 90 94 100 99 100 99 95 90 85 80 56 55 50 56 66 71 66 62 56 46 50 61 59 79 90 76 70 67 78 70 67 70 84 96
64 92 41 90 89 80 72 35 26 76 87 85 86 94 86 94 94 97 98 94 87 62 59 51 53 49 54 59 60 78 70 62 55 56 48 52 76 74 87 72 79 84 76 74 79 99 89
59 93 35 63 82 91 84 51 20 70 84 80 95 95 98 98 96 90 85 93 75 75 60 49 54 49 55 67 67 77 72 66 62 58 58 62 83 80 80 76 73 74 75 76 88 74 92
47 87 45 20 42 86 77 50 24 66 81 86 96 97 95 95 81 83 86 82 76 72 68 65 71 66 61 70 67 73 74 72 70 65 66 68 91 97 95 73 79 86 78 78 77 73 75
36 89 84 29 21 14 16 30 35 52 86 98 100 96 98 81 80 77 74 66 70 61 62 61 69 77 84 80 70 65 52 55 64 73 72 71 84 98 88 74 84 93 82 76 76 77 70
25 80 96 76 20 18 18 16 40 30 86 99 99 99 97 92 80 71 66 69 69 66 71 78 72 78 78 70 63 60 65 68 65 62 60 81 88 95 96 82 93 62 54 59 69 66 73
24 79 96 91 61 18 28 19 22 46 39 92 98 99 100 89 92 69 64 71 66 67 81 89 86 83 77 70 83 84 84 72 74 73 68 71 78 98 93 97 73 59 59 57 70 75 71
34 65 95 99 98 59 52 57 78 29 35 49 99 99 99 98 87 85 65 60 78 76 71 80 77 70 70 83 75 88 93 81 97 90 76 74 73 88 98 98 86 56 49 54 60 86 68
35 70 91 98 94 98 97 80 92 93 63 48 77 100 99 99 89 86 68 63 57 71 82 84 81 79 79 87 90 80 87 68 94 90 96 97 98 96 92 96 80 58 52 65 76 70 64
27 76 88 96 100 100 99 93 95 93 96 80 64 98 100 100 90 89 92 74 62 63 76 89 81 86 91 94 91 85 93 70 77 78 75 82 92 96 93 97 94 46 59 71 64 64 64
25 80 89 94 96 97 98 97 90 97 100 100 64 100 100 98 96 93 89 83 78 75 70 80 79 86 79 88 93 92 92 88 78 90 78 91 81 90 83 76 52 47 56 58 61 64 65

GFSGBSN_850_rhum_051.txt.gz
RH
97 98 99 98 96 93 96 92 92 94 80 94 95 87 82 82 77 79 96 89 91 89 90 90 93 99 100 89 61 80 83 79 51 93 90 95 95 77 77 70 62 63 56 52 48 46 48
99 98 97 97 95 98 99 91 84 84 79 87 92 85 72 75 77 74 72 74 77 92 77 80 97 100 100 86 57 41 87 86 52 91 87 88 88 75 66 62 67 56 54 51 47 46 46
93 97 94 92 94 99 99 85 84 80 74 86 95 77 72 77 76 75 78 75 74 72 57 75 93 100 100 77 55 41 82 93 72 89 86 86 75 75 65 59 54 53 57 55 53 49 51
96 99 96 100 98 87 82 85 88 81 86 91 94 74 73 74 73 74 76 75 72 61 74 63 85 100 98 77 64 70 77 84 82 89 74 72 78 73 66 59 59 63 62 74 51 51 47
98 99 96 96 99 90 95 92 89 100 92 89 79 79 90 80 78 82 80 86 75 63 58 63 81 89 92 77 63 79 76 80 82 82 84 76 75 78 67 71 76 66 86 77 62 49 48
98 89 89 89 90 96 83 80 88 86 84 90 94 94 79 64 65 83 89 80 61 57 57 65 73 98 94 75 60 77 74 76 85 91 96 97 84 94 85 82 90 87 75 72 69 49 55
99 95 98 94 92 83 79 88 91 82 93 85 86 89 89 77 85 78 89 74 69 82 83 88 95 91 88 72 62 75 70 76 86 93 96 98 94 95 80 75 63 68 69 68 58 45 47
95 95 99 99 97 81 82 78 77 82 90 86 95 92 92 89 81 74 84 92 90 93 81 86 100 95 88 80 71 62 63 78 91 91 92 92 92 80 86 84 77 76 75 74 60 49 47
94 97 99 98 90 81 79 75 84 88 86 95 88 83 88 85 84 62 88 96 89 92 87 95 97 96 88 74 73 71 69 76 80 85 77 80 66 82 82 91 91 82 72 65 63 55 50
92 99 99 98 97 85 78 77 81 91 90 89 87 84 91 99 93 82 77 89 83 90 95 97 94 91 84 63 70 68 67 69 77 80 70 61 52 72 70 76 66 71 54 57 61 62 75
98 99 99 98 98 87 90 82 94 91 86 86 89 88 99 94 100 100 78 84 78 97 93 83 95 92 78 68 67 68 67 56 71 66 62 69 60 67 70 65 54 63 54 59 65 76 70
93 95 98 97 96 92 88 90 87 97 92 87 98 85 77 91 92 97 95 97 95 96 96 100 96 94 78 69 70 74 66 53 54 62 59 59 52 51 52 58 52 57 58 69 80 77 89
94 92 95 99 94 87 99 99 89 98 96 93 99 96 83 90 98 96 95 94 88 96 97 100 97 72 74 76 81 78 72 68 86 98 97 66 66 51 52 64 56 60 71 89 83 91 79
91 94 98 98 99 94 96 93 98 99 94 88 92 94 96 91 86 81 81 94 89 80 96 94 78 74 97 73 86 75 74 94 66 73 90 90 92 61 52 60 69 64 68 85 68 88 87
86 98 96 96 98 76 96 95 95 98 90 79 82 83 94 99 94 87 94 98 96 97 99 93 79 93 100 87 90 92 76 75 67 61 79 84 78 58 54 55 57 73 84 64 85 83 93
61 81 97 92 93 85 95 99 88 98 82 74 75 82 90 93 96 87 98 98 100 98 74 74 93 92 86 93 90 89 72 63 61 59 57 64 87 62 58 52 59 59 64 83 92 66 75
72 86 77 93 90 65 94 94 65 80 78 73 74 79 80 83 82 82 98 100 96 74 73 71 85 80 85 84 80 72 73 63 55 60 54 62 77 83 60 68 78 75 85 80 80 77 87
86 90 26 78 75 49 94 66 47 76 72 68 78 97 84 88 92 93 100 100 97 86 78 72 60 67 74 72 74 71 74 64 53 55 64 59 81 89 76 62 61 65 71 72 86 76 94
68 58 18 53 28 28 83 41 30 72 81 82 79 89 82 98 98 99 98 94 88 84 88 60 58 52 60 68 71 68 65 56 55 56 64 59 79 92 81 69 68 76 72 69 74 84 98
42 56 24 35 12 11 18 34 24 77 86 88 83 94 87 84 85 97 96 93 86 72 63 52 57 54 57 64 69 77 69 68 55 51 51 51 74 74 86 68 82 90 81 76 79 96 88
42 58 29 18 15 12 8 24 22 75 80 85 94 97 99 96 86 84 84 86 79 81 59 54 54 52 59 71 71 79 71 65 63 61 60 61 82 82 79 74 75 77 75 84 85 76 89
27 64 43 21 19 12 9 14 25 74 84 92 96 95 93 92 82 89 81 79 79 75 69 66 76 71 69 73 71 79 74 69 63 62 67 67 96 96 93 72 84 92 80 80 81 76 78
38 53 74 41 18 14 11 11 26 58 85 98 98 95 98 81 87 82 81 69 73 65 70 73 72 78 86 82 74 58 51 57 60 70 76 72 88 97 88 76 84 89 84 78 74 76 66
32 47 85 65 31 21 25 10 18 26 92 99 98 98 91 91 87 77 70 71 74 67 77 86 76 77 80 69 62 60 63 68 64 63 62 79 88 92 98 81 95 60 61 64 67 61 66
53 32 83 91 78 38 53 40 54 22 35 85 99 99 95 86 95 76 70 72 69 76 86 88 85 84 78 72 82 82 79 72 74 69 66 65 82 98 94 92 76 62 65 70 74 73 69
74 32 58 93 93 79 60 83 80 89 24 47 100 100 100 98 88 89 83 66 78 79 76 87 70 66 69 85 80 85 91 81 94 90 74 69 74 91 98 96 90 55 53 59 61 82 67
66 26 56 88 93 93 98 95 75 95 89 36 56 100 100 99 79 97 87 70 61 76 83 84 77 76 74 86 84 87 82 75 90 88 98 100 99 94 90 97 83 58 52 63 73 71 64
50 30 70 85 92 84 94 99 93 98 100 80 66 86 100 100 86 90 95 93 66 68 82 88 78 86 89 92 89 87 92 72 82 76 86 88 91 93 87 97 93 49 68 71 64 62 65
47 59 50 83 95 80 91 95 91 85 100 100 68 96 99 100 98 97 92 96 87 81 71 78 75 81 79 87 90 90 94 91 83 98 74 89 75 84 82 77 51 46 54 56 58 60 59

GFSGBSN_850_rhum_054.txt.gz
RH
94 93 96 98 96 95 94 98 87 81 82 76 82 81 83 94 90 81 78 77 69 79 80 86 83 90 98 100 84 92 89 80 38 73 100 98 88 79 75 72 64 66 58 54 50 50 50
95 99 98 94 100 99 88 82 83 92 76 76 80 89 79 81 82 76 78 74 75 84 92 87 72 87 99 98 79 72 62 87 56 94 100 100 87 73 68 69 67 60 56 54 52 50 48
92 98 100 91 98 95 87 80 84 91 90 88 89 79 82 80 90 92 85 76 75 75 76 93 78 82 100 91 77 70 49 75 58 82 97 94 82 71 69 63 59 56 60 56 57 52 52
99 100 100 96 90 90 93 80 89 76 80 84 83 92 95 92 95 94 77 76 72 80 75 76 82 79 98 85 82 84 76 83 85 84 92 86 83 74 65 60 61 67 61 77 55 56 50
99 99 97 99 96 93 79 80 84 80 74 79 86 82 87 79 84 77 82 77 76 77 92 90 81 78 94 85 78 82 92 81 82 77 78 77 72 78 69 74 80 72 89 83 65 54 50
99 97 98 99 99 97 83 81 81 72 76 86 85 86 94 92 92 75 81 74 66 64 57 69 71 92 89 81 76 74 84 82 92 88 92 89 80 90 88 76 83 72 75 76 75 50 58
100 100 97 99 100 93 85 80 88 90 79 92 85 94 69 93 95 82 79 68 62 76 75 79 88 90 89 80 87 72 78 83 86 87 98 91 92 95 84 75 65 71 74 72 62 48 48
100 99 99 98 100 95 88 80 84 88 90 94 91 80 78 86 78 85 67 88 83 91 82 86 96 91 95 90 82 76 74 77 89 96 97 99 96 81 69 68 72 72 78 76 63 51 49
100 98 97 95 99 95 94 93 91 96 93 95 84 86 91 99 98 94 75 91 90 95 82 90 97 99 99 89 70 71 67 79 82 92 92 92 92 89 85 88 85 82 78 70 67 56 53
99 94 97 95 94 97 88 98 98 93 96 92 95 97 98 98 97 96 77 91 88 88 93 94 96 95 94 86 74 66 68 78 86 85 74 71 77 90 88 88 88 98 61 57 59 63 79
92 93 96 97 98 97 91 99 99 98 96 98 92 85 80 86 100 99 83 85 76 90 91 83 95 99 86 80 70 68 73 62 73 87 74 86 82 80 89 83 86 66 56 61 64 74 68
54 94 98 97 96 99 94 100 99 93 95 88 82 88 80 90 90 95 98 80 82 91 96 99 96 94 88 72 78 71 72 61 57 60 59 62 53 51 55 61 52 60 62 69 78 74 85
38 89 97 98 92 99 98 98 97 97 97 88 91 85 77 85 89 85 85 78 89 94 98 100 99 84 78 82 81 77 80 75 93 96 89 70 66 52 54 66 56 59 69 85 74 87 74
32 97 99 92 92 99 98 98 92 98 92 90 88 78 78 80 82 87 84 92 95 92 97 96 81 79 96 79 86 89 80 84 64 74 91 93 93 60 54 60 69 68 66 82 59 80 80
28 94 99 95 92 98 99 70 71 77 74 80 80 81 100 99 88 83 89 96 98 99 100 92 74 92 92 95 87 95 84 77 65 61 79 85 83 58 55 57 56 71 85 64 87 80 94
39 84 99 96 78 82 87 34 57 71 65 68 71 75 87 95 93 92 91 98 100 96 74 72 90 86 92 99 91 92 86 63 65 60 56 63 91 64 60 55 61 60 65 80 91 64 64
38 76 99 87 45 19 46 26 43 59 62 64 70 79 83 86 89 80 98 100 96 79 75 72 88 86 87 86 80 76 72 65 54 60 57 63 75 81 62 67 78 74 88 80 77 75 78
43 46 99 82 20 10 8 25 30 56 66 63 73 93 79 84 89 98 100 100 90 83 79 59 62 69 74 72 73 69 72 62 54 54 63 60 78 80 74 63 61 63 72 72 84 79 93
46 30 95 86 19 11 7 12 24 69 77 74 79 78 77 83 99 99 96 90 90 84 85 58 57 57 61 67 72 68 64 59 54 55 63 60 78 94 80 68 67 77 73 69 74 82 98
41 26 89 96 35 13 8 8 19 76 78 85 84 96 80 78 83 95 90 91 88 74 68 55 59 54 58 69 72 76 70 71 57 52 52 54 72 70 82 67 82 92 82 73 77 90 85
35 32 73 96 80 14 11 7 12 62 81 86 89 95 99 97 86 91 86 82 80 82 61 56 56 56 62 75 73 80 71 66 65 66 62 62 86 90 78 70 75 78 75 86 82 79 85
30 36 51 87 95 30 14 9 10 34 78 88 88 95 96 94 81 83 82 81 81 78 76 69 82 79 72 74 68 80 73 67 64 62 67 67 98 90 92 72 83 93 82 82 84 78 80
38 48 42 70 84 75 21 12 11 20 76 98 98 99 97 83 90 81 83 78 76 68 74 78 71 82 84 85 76 61 56 58 61 70 75 72 90 94 88 78 83 88 84 79 81 78 68
60 59 38 83 78 85 68 23 16 18 73 96 99 99 90 91 90 85 81 74 86 76 82 89 75 79 77 73 67 61 62 65 63 69 63 76 84 89 98 83 96 57 58 64 68 60 67
64 68 41 61 90 80 82 82 30 41 23 74 98 98 97 86 93 80 85 73 72 79 88 87 84 84 75 70 80 78 78 71 76 73 69 61 81 96 90 81 77 60 75 74 73 68 68
64 69 47 37 88 95 76 92 75 38 40 34 96 100 99 96 88 89 97 72 79 82 78 82 72 68 69 85 82 80 88 79 93 91 74 71 74 85 98 82 96 54 53 61 60 78 62
68 68 41 39 96 96 90 95 90 59 80 52 52 90 100 99 88 98 97 78 69 77 82 87 80 74 71 85 84 84 80 77 91 95 99 99 100 87 92 88 83 61 52 62 86 70 63
68 66 41 44 85 89 87 93 94 84 92 82 73 88 100 100 86 86 93 99 76 75 85 80 77 82 88 86 80 87 92 84 86 78 89 84 97 93 92 96 94 52 67 75 62 61 63
86 81 60 63 50 84 92 85 89 96 83 91 82 92 98 100 98 100 92 90 100 93 81 82 69 77 75 87 89 87 94 90 85 97 75 88 72 80 79 75 52 52 56 50 56 58 59

GFSGBSN_850_rhum_057.txt.gz
RH
96 95 89 96 99 93 96 94 85 75 84 91 82 83 82 91 94 93 87 81 93 84 77 77 76 80 82 98 91 80 95 98 100 86 94 99 98 88 78 74 68 67 60 55 50 53 50
98 99 99 98 99 94 93 85 80 84 70 80 85 78 76 89 91 82 83 93 86 73 73 71 76 79 86 98 92 82 81 70 94 99 94 98 87 79 72 73 63 61 56 56 52 51 49
98 98 99 99 95 90 95 84 84 80 78 76 75 81 81 82 82 94 93 94 94 90 80 73 76 84 92 94 89 77 76 85 85 94 94 90 81 64 68 68 63 60 66 60 54 54 52
92 98 97 97 98 99 96 86 84 80 82 75 78 80 75 84 82 80 87 78 76 72 78 82 74 85 96 79 89 82 81 70 82 67 92 88 76 65 63 61 64 67 62 74 56 57 51
97 98 98 98 99 98 95 94 79 82 85 82 75 82 78 89 92 92 81 82 69 66 96 97 88 93 78 71 83 80 85 96 99 79 92 79 77 74 66 73 80 75 86 78 63 58 56
96 99 98 98 99 100 98 94 91 80 91 88 93 93 92 86 84 83 87 73 60 75 65 76 91 89 72 84 75 84 88 99 98 84 76 80 78 90 86 76 83 88 80 78 62 53 60
96 97 97 100 100 96 96 99 96 98 97 94 95 90 86 82 85 80 84 62 67 84 83 74 76 87 78 82 77 78 84 96 85 86 85 82 92 90 85 71 62 64 73 73 66 50 51
86 97 97 97 98 96 94 92 98 97 99 99 97 96 97 97 89 95 84 75 81 87 70 82 87 91 96 95 97 79 91 82 88 90 86 97 93 72 71 66 66 68 76 76 63 52 51
80 94 93 95 98 98 97 100 93 97 93 94 84 86 89 83 98 100 86 86 90 88 69 90 87 97 99 84 90 83 87 89 85 88 90 96 82 74 72 76 76 77 78 74 68 56 54
71 89 94 96 96 99 100 97 90 97 95 84 81 85 87 77 91 99 80 88 88 91 90 95 96 93 98 86 88 76 87 82 91 93 88 93 88 84 89 82 75 93 68 60 59 64 71
58 72 79 94 94 90 88 97 95 90 90 78 81 87 88 85 98 97 88 84 79 93 92 91 93 95 98 90 75 73 73 65 86 88 89 96 96 92 95 93 77 90 58 61 63 70 63
42 68 74 96 94 93 98 98 99 78 77 81 78 81 80 88 93 98 83 76 82 84 96 99 95 95 93 84 77 77 76 65 76 78 66 70 72 70 70 85 77 69 61 68 72 70 76
32 60 82 53 90 93 99 99 94 65 62 73 84 83 71 75 89 84 84 86 89 93 93 99 99 90 85 84 80 81 87 83 94 99 99 81 67 56 54 64 54 58 71 86 68 83 70
35 52 75 30 48 85 96 91 60 67 56 63 71 89 82 81 90 94 92 89 89 91 99 96 88 84 96 85 87 85 94 86 67 74 89 91 92 64 55 61 68 68 66 83 55 65 62
38 58 60 29 14 38 52 54 39 60 56 52 61 66 84 86 87 85 91 96 100 99 99 93 87 94 97 89 86 90 86 78 69 64 79 84 91 58 60 58 57 68 80 61 85 81 84
41 54 51 27 11 11 6 16 26 56 59 61 65 62 79 83 86 81 93 98 100 96 72 70 89 82 96 93 98 87 85 65 68 62 56 65 94 67 62 56 61 60 63 78 85 76 55
45 50 50 22 14 10 7 6 22 61 58 57 66 66 77 81 78 83 99 100 95 79 72 72 88 87 87 85 78 79 74 65 56 60 58 64 74 82 63 69 77 74 82 77 71 69 61
49 44 76 35 18 11 9 5 18 64 61 52 65 88 72 67 91 95 96 96 90 82 76 59 65 72 75 74 71 71 70 63 54 54 65 63 78 90 74 64 62 62 73 67 75 76 88
52 36 77 66 28 16 10 6 10 64 73 65 74 71 66 73 97 98 88 86 88 86 79 58 58 60 63 67 72 67 66 63 53 53 61 59 78 94 86 69 66 78 73 66 70 79 97
54 36 49 93 40 18 13 8 6 53 77 77 79 95 68 70 90 95 91 87 82 73 65 56 60 55 61 74 72 75 72 72 59 53 53 52 73 68 80 68 80 92 83 71 76 89 82
56 33 43 94 72 21 18 10 5 28 78 85 86 94 97 98 90 88 86 82 80 84 69 60 61 58 64 77 74 80 73 69 67 67 62 61 84 89 76 69 77 77 80 79 82 77 82
53 40 52 80 89 35 34 14 7 9 69 82 90 92 94 95 82 78 82 80 84 82 89 75 81 80 66 71 64 80 74 70 68 64 64 68 94 93 87 74 84 93 82 83 78 75 75
52 54 58 56 98 65 57 24 12 9 49 98 98 97 95 84 86 82 83 81 74 72 75 82 74 80 84 84 79 65 59 58 61 70 74 74 94 90 87 82 81 93 83 80 82 79 69
51 55 65 55 79 96 79 52 36 13 28 92 97 96 92 93 90 83 84 80 88 80 80 86 78 75 71 72 68 61 62 65 65 71 63 75 80 88 93 82 92 51 61 67 69 63 70
41 57 62 62 37 90 94 75 67 38 21 48 93 94 96 90 91 85 84 76 74 82 88 84 85 81 73 68 76 71 75 69 79 78 69 60 78 95 90 77 70 67 76 73 72 67 63
43 65 62 63 35 83 98 88 90 73 50 39 71 96 98 99 89 88 99 83 81 84 81 80 79 76 69 85 80 76 86 77 89 92 73 70 70 82 96 86 89 55 55 63 60 78 57
71 65 64 64 37 80 90 89 91 86 82 59 51 64 98 99 92 98 91 92 74 78 83 88 80 79 69 85 82 82 82 75 87 95 86 95 96 87 96 91 72 60 52 57 90 73 60
89 71 71 72 53 61 90 92 89 88 89 82 76 70 88 100 97 90 88 98 96 81 86 78 81 78 89 82 78 84 89 86 85 78 83 80 92 83 87 86 87 52 69 78 65 60 61
98 89 83 85 69 65 75 86 96 80 93 83 96 84 82 93 91 97 86 80 82 96 98 88 66 75 68 88 88 85 94 96 88 95 75 91 77 81 73 71 49 52 59 50 48 56 58

GFSGBSN_850_rhum_060.txt.gz
RH
97 96 98 96 95 91 91 99 88 82 81 77 88 84 81 87 76 85 78 78 87 96 88 76 69 67 80 92 74 88 80 91 99 98 92 83 81 76 70 61 58 50 46 45 45 51 48
97 99 98 95 97 94 99 99 89 86 75 76 80 80 80 77 74 77 92 94 95 81 83 84 81 75 92 85 65 70 95 82 97 99 90 89 73 71 64 60 55 50 46 45 43 46 47
99 97 98 98 97 99 97 95 88 83 89 82 88 86 81 78 80 84 78 79 95 88 82 82 82 78 92 76 83 89 88 88 94 96 84 91 72 69 64 62 58 54 53 43 46 42 37
100 99 98 97 95 94 97 96 94 86 88 88 88 85 85 81 80 89 93 77 67 74 85 80 82 85 82 65 70 89 80 81 89 98 87 92 81 68 51 57 56 51 46 54 36 41 45
94 99 96 93 92 93 98 93 99 97 93 99 96 87 89 92 92 89 80 78 71 72 77 87 96 88 77 66 85 88 96 84 80 93 92 90 82 63 62 53 64 52 45 44 50 44 34
72 98 93 93 98 99 95 96 95 97 99 95 89 87 88 85 82 74 78 76 63 74 68 96 90 94 81 72 82 90 93 77 87 98 90 94 86 82 60 51 54 55 52 47 41 46 48
66 96 88 91 98 99 100 94 96 97 94 98 84 85 87 94 98 89 86 65 77 89 75 73 73 84 74 79 82 88 83 88 99 83 75 77 94 87 63 46 39 40 47 44 44 43 44
57 63 76 94 97 99 98 96 90 95 99 83 85 79 77 74 87 98 97 80 83 82 68 83 82 83 83 97 82 78 88 99 87 79 59 82 93 68 50 50 49 46 43 45 55 46 44
46 50 72 98 93 96 97 92 97 98 98 81 71 87 84 89 99 96 90 90 83 81 68 86 97 94 97 92 80 94 92 91 64 68 71 71 69 52 56 58 56 50 46 55 50 48 43
38 40 68 96 94 94 96 97 99 99 97 73 66 62 79 82 83 85 93 90 86 88 96 88 97 94 96 90 82 92 88 98 88 72 83 86 79 65 62 59 49 64 54 53 53 54 52
39 40 47 66 71 66 87 97 98 99 79 64 62 58 59 59 84 96 86 81 80 91 93 97 96 98 97 86 89 96 93 80 78 94 91 98 92 81 78 60 54 72 56 53 52 52 50
38 41 45 29 39 48 42 88 86 85 70 55 56 61 60 60 64 73 74 81 84 93 92 98 95 90 88 94 84 92 91 80 82 78 83 96 97 87 86 92 72 49 50 50 50 54 66
39 43 37 20 18 30 10 32 47 64 71 54 64 62 57 68 80 78 83 97 92 86 97 100 97 87 81 84 74 78 76 83 91 98 100 100 97 87 82 89 88 70 58 81 77 80 59
40 44 36 21 12 10 6 7 28 52 60 58 65 67 77 78 86 86 84 84 86 95 100 95 83 88 96 74 88 92 73 70 58 62 94 92 96 90 76 60 67 59 58 69 54 43 41
40 46 38 33 16 8 7 5 19 58 55 57 63 63 81 86 83 85 92 97 99 100 99 80 65 71 75 72 83 93 68 67 61 51 68 78 89 55 55 52 49 62 72 49 65 62 56
41 48 41 41 35 12 8 4 11 56 61 54 61 61 76 70 70 71 90 94 98 93 70 60 76 68 65 71 68 66 68 58 58 52 46 60 90 62 56 51 51 53 48 67 79 66 47
40 50 42 44 40 20 8 6 5 44 61 55 62 67 70 61 64 80 99 99 81 71 69 61 68 66 65 65 63 63 63 58 50 52 45 50 59 80 56 63 61 60 64 59 48 48 44
33 51 41 43 43 28 11 7 5 31 60 56 60 79 68 61 85 91 98 92 83 71 68 54 55 60 60 59 58 57 54 54 51 46 51 54 62 77 67 56 52 52 54 47 55 63 64
26 52 40 44 48 36 15 8 5 23 68 74 67 66 62 63 91 87 74 72 78 65 59 52 54 53 54 56 62 57 56 60 52 47 48 49 70 84 76 66 60 66 58 54 53 63 84
23 50 41 51 51 38 17 10 6 10 67 76 81 82 65 71 93 76 71 73 67 70 57 53 53 49 52 57 54 60 61 60 60 54 53 45 57 57 54 65 66 85 69 57 80 85 56
22 46 44 55 51 43 20 12 8 7 52 73 82 89 96 84 72 71 74 70 69 69 63 57 51 50 51 57 58 61 62 60 60 64 54 48 70 70 62 61 65 68 71 67 82 68 85
20 43 51 58 56 49 32 19 10 6 32 80 98 91 93 82 76 68 74 71 72 74 74 61 57 63 54 51 51 59 58 54 53 56 53 58 93 86 82 66 68 81 65 66 67 61 62
19 36 52 60 60 56 47 43 15 10 20 93 96 91 94 81 71 68 70 72 68 68 78 70 62 59 62 66 70 62 55 51 49 54 58 58 81 81 71 68 69 81 72 65 63 59 56
19 28 46 58 62 63 65 61 32 22 17 75 88 93 93 83 76 68 74 73 77 74 66 74 71 60 68 67 67 60 57 57 55 58 52 60 68 75 74 69 82 50 53 52 56 50 52
22 22 40 59 61 50 77 74 55 56 28 36 84 87 98 88 76 70 75 76 76 80 76 75 85 80 68 69 60 62 65 62 70 65 57 51 61 80 76 66 50 52 62 60 64 64 48
41 25 34 59 61 52 86 81 71 72 62 43 52 94 92 98 76 86 91 88 72 70 71 78 85 79 71 67 63 71 75 64 78 80 62 60 60 63 79 85 61 55 52 58 52 69 55
68 29 39 64 65 64 61 92 82 82 83 71 68 57 89 98 89 93 85 86 83 74 69 77 78 80 69 69 69 70 71 60 73 75 75 80 80 80 71 74 50 38 44 51 84 68 58
84 46 63 74 74 77 64 76 90 86 84 87 80 73 68 96 89 74 97 94 97 86 70 80 75 76 76 75 63 64 63 67 71 61 67 65 74 78 69 78 73 47 66 76 64 59 58
96 76 82 84 88 88 80 66 80 97 90 96 91 79 93 89 65 58 48 60 75 92 98 90 73 70 63 66 69 66 69 86 69 79 65 68 52 60 56 49 40 50 56 53 55 56 61

GFSGBSN_850_rhum_063.txt.gz
RH
98 96 91 96 98 96 97 99 97 98 97 95 83 84 83 80 82 82 81 79 92 80 86 76 77 75 78 79 72 71 89 78 92 91 71 71 53 61 60 53 45 44 31 31 36 45 39
89 80 83 95 97 96 99 99 98 98 87 85 88 84 82 78 78 78 82 75 81 92 81 77 79 77 87 69 53 55 62 97 99 98 67 69 53 54 53 49 45 42 37 37 35 44 44
72 64 72 98 93 93 98 97 97 96 96 97 93 97 89 90 72 75 80 88 87 85 85 82 76 91 84 64 57 88 62 94 100 99 68 62 55 54 51 53 53 45 43 40 36 36 37
63 49 69 96 95 98 98 98 94 99 97 98 89 95 93 87 72 75 93 88 94 79 77 81 78 94 84 64 63 69 82 84 95 93 70 61 65 66 59 48 52 54 44 54 38 37 34
42 44 59 94 93 99 98 95 89 85 93 90 96 92 81 85 86 87 71 73 78 71 60 60 95 92 68 69 65 74 87 89 90 95 75 67 87 72 60 60 59 50 50 43 35 33 36
34 40 58 86 98 95 97 96 85 88 92 87 100 83 68 72 88 87 71 70 63 66 86 94 93 87 66 60 65 88 96 97 92 92 70 80 87 74 65 53 68 49 46 31 31 40 35
33 38 51 82 96 95 98 94 90 88 84 83 99 84 74 62 69 90 80 81 81 83 79 66 71 71 73 67 80 98 74 82 97 74 64 76 91 87 55 42 29 26 36 30 26 38 39
34 38 40 74 94 94 100 98 92 90 87 84 85 89 83 87 87 93 93 71 84 91 62 68 70 79 78 96 98 91 82 98 95 72 52 83 91 69 42 38 35 35 36 38 38 35 38
35 39 35 73 79 72 86 93 87 94 95 87 88 71 80 73 70 93 89 96 92 92 86 78 89 84 88 95 89 96 91 88 84 54 64 79 75 76 72 51 47 36 37 35 40 45 38
33 39 34 35 45 34 31 68 56 88 95 61 65 64 54 63 87 94 90 78 72 79 100 92 80 87 90 90 78 94 85 87 77 60 57 68 71 82 77 63 44 45 32 31 49 50 40
29 40 34 27 26 14 11 14 41 60 89 58 56 66 60 42 85 89 76 66 73 87 82 97 93 91 93 89 89 93 99 98 75 88 73 95 78 77 82 67 41 56 43 45 48 51 48
25 41 35 32 21 11 7 4 24 44 66 60 59 64 67 87 88 70 72 78 98 97 92 96 91 81 89 90 92 92 94 80 77 80 84 95 90 86 87 75 53 51 50 50 48 52 70
22 41 38 38 34 18 8 4 11 40 57 62 60 63 78 82 87 84 95 96 98 88 96 100 95 86 79 91 90 82 80 88 96 99 100 100 99 89 87 84 67 56 60 90 92 87 63
22 40 41 38 40 29 10 6 5 38 57 56 57 70 81 88 87 86 100 87 89 90 99 95 84 64 78 57 80 71 65 85 65 75 100 99 98 100 90 90 95 72 68 76 68 54 48
22 36 42 38 40 35 18 7 4 24 51 54 55 67 89 91 73 72 80 99 100 100 97 75 61 59 60 58 72 60 56 59 56 56 83 87 98 89 79 58 75 95 94 47 56 44 42
21 32 41 38 43 39 23 8 5 11 49 54 57 62 82 66 74 94 82 93 84 74 61 50 60 57 56 56 56 52 53 51 51 44 39 52 88 68 56 48 46 51 44 64 80 69 41
21 28 41 37 44 39 28 10 6 5 46 50 73 78 57 57 77 73 100 92 64 57 60 55 52 50 46 54 50 51 53 52 43 43 37 44 54 71 55 62 57 54 58 51 46 41 45
19 20 37 37 44 39 29 13 7 5 34 49 72 72 61 51 80 76 90 83 74 56 52 47 46 46 44 46 48 47 47 47 44 39 43 46 58 73 63 52 48 45 46 42 53 50 50
16 18 31 40 44 42 38 18 8 6 34 61 76 71 58 58 82 76 64 58 61 51 48 46 48 47 46 47 55 48 48 53 47 42 41 42 65 78 67 59 51 60 50 45 44 58 88
15 17 32 42 47 43 42 33 11 7 17 66 80 76 74 65 73 59 54 55 55 60 48 46 45 43 46 48 43 52 51 53 52 48 48 40 48 55 52 64 56 71 56 51 81 86 48
16 15 26 41 48 48 44 43 28 9 17 69 80 72 90 72 58 59 57 53 53 53 50 47 46 43 42 49 46 47 49 53 50 55 44 42 58 53 50 51 55 64 62 59 88 68 87
19 15 19 35 52 52 47 47 39 11 11 89 96 92 89 75 60 56 64 55 58 54 58 47 47 44 41 41 38 46 46 44 44 48 44 46 88 84 82 56 58 73 58 58 62 62 54
24 16 17 30 44 55 50 50 44 19 10 82 94 97 98 68 56 57 53 55 55 59 60 58 46 44 46 50 53 49 43 40 39 44 49 51 74 82 61 59 60 74 62 59 58 53 54
49 27 21 25 35 55 53 54 49 34 20 47 83 97 90 65 62 54 64 64 60 59 61 55 60 52 59 60 54 48 46 45 46 47 44 53 60 69 67 64 82 57 47 46 51 47 46
84 66 39 22 35 54 56 60 61 49 37 50 58 99 96 76 62 60 60 63 64 66 64 60 69 69 64 61 54 56 55 54 58 52 48 44 49 68 72 59 45 37 52 53 58 60 43
96 87 56 29 37 55 61 62 63 60 59 62 48 64 99 83 56 75 73 72 72 59 64 66 87 82 74 58 57 62 65 54 65 68 55 54 51 63 76 78 62 57 50 48 45 69 51
99 98 87 37 36 59 69 69 74 80 75 71 90 62 93 89 61 74 68 86 81 68 70 64 74 74 72 62 67 71 59 48 64 61 67 67 70 78 69 72 52 36 51 46 77 76 54
100 99 98 59 47 67 74 83 72 82 87 80 98 78 94 75 69 68 72 79 89 90 73 72 73 70 68 70 63 58 54 51 55 46 53 60 64 66 61 74 74 38 55 54 65 57 55
90 94 97 92 72 72 83 92 83 68 95 90 99 95 90 100 74 82 58 44 53 87 100 90 72 57 53 57 49 50 54 62 50 61 49 59 45 50 51 50 37 44 51 52 58 62 61

GFSGBSN_850_rhum_066.txt.gz
RH
39 54 89 99 98 94 97 97 90 94 96 98 98 89 88 82 75 78 79 77 74 86 85 71 75 75 80 85 69 54 77 78 88 88 88 74 57 64 71 60 48 52 40 33 31 41 39
33 58 91 99 97 99 97 94 94 95 94 94 95 84 92 89 85 86 72 79 77 75 82 78 72 70 79 74 56 51 55 66 99 94 89 67 60 51 52 53 54 44 42 35 33 44 37
31 46 87 98 95 91 95 96 85 88 87 98 99 97 82 84 85 77 89 90 81 88 82 77 75 82 91 72 53 72 68 62 98 89 92 67 59 45 53 53 53 44 47 43 35 44 43
32 43 80 91 95 92 92 98 79 90 93 93 96 85 79 83 80 84 77 81 73 65 58 63 78 91 89 66 62 61 70 70 92 100 93 66 54 56 52 53 54 62 49 61 41 39 41
32 40 63 85 96 93 96 97 89 96 89 89 87 93 77 70 74 87 70 70 66 61 58 59 96 96 67 60 68 61 59 69 85 89 82 69 58 66 58 76 75 67 73 62 49 38 38
32 38 49 72 83 72 93 94 95 99 95 88 91 80 79 79 66 84 79 59 57 69 80 91 90 89 73 57 58 59 71 70 93 88 83 76 66 80 74 83 87 73 68 47 46 40 40
30 38 46 42 50 27 77 91 93 97 97 97 90 85 72 75 87 90 70 80 82 83 76 66 67 69 65 78 69 76 77 75 97 100 97 80 86 88 76 66 51 42 47 47 36 36 44
28 39 41 34 22 12 30 55 60 74 64 74 74 78 70 62 84 84 80 74 90 88 72 64 65 68 80 86 86 87 83 98 96 96 78 86 87 60 52 56 53 45 44 44 33 40 42
25 39 36 32 27 11 12 13 34 57 50 52 55 72 59 70 76 85 89 96 87 85 97 81 88 91 97 93 95 95 93 93 84 96 70 74 68 56 53 52 56 43 44 39 43 44 39
24 38 36 35 34 21 9 9 10 33 46 53 52 59 58 67 84 81 68 58 66 76 99 94 79 92 97 90 88 95 94 98 86 64 64 66 67 69 80 76 52 61 34 34 47 56 58
23 35 38 35 37 31 11 8 11 21 45 50 56 59 61 73 92 71 66 72 78 98 93 77 88 88 92 91 93 89 100 85 78 69 74 98 82 80 88 82 57 47 39 45 52 57 50
23 31 37 35 38 35 22 8 6 12 43 48 54 59 74 89 94 86 81 100 94 97 96 97 92 90 88 84 88 87 94 82 67 69 84 94 87 83 89 86 87 51 54 54 51 60 90
22 26 35 34 36 37 31 9 6 6 39 48 52 66 74 94 96 96 98 93 98 93 93 94 97 88 88 92 92 86 88 89 85 96 99 100 99 91 88 97 81 67 68 94 96 96 88
20 21 31 34 35 37 34 15 7 5 37 41 50 62 67 80 93 98 95 99 89 82 99 84 80 55 71 64 79 80 90 95 77 83 100 96 95 99 85 91 92 72 71 94 76 88 73
17 18 27 32 31 36 35 18 7 6 30 41 50 56 76 74 72 91 97 95 98 98 94 78 62 63 58 60 65 60 60 81 85 79 98 100 100 94 90 79 78 96 94 51 70 45 78
15 17 23 28 31 35 38 21 8 7 16 41 50 69 76 58 76 89 90 87 86 70 57 51 60 51 56 54 55 53 55 50 55 56 51 69 98 96 93 86 77 88 63 74 93 74 62
15 16 17 26 33 34 39 32 11 7 7 38 57 82 60 51 75 79 98 83 62 52 56 54 51 47 46 52 49 48 53 51 41 42 41 48 65 88 72 89 87 94 92 68 56 54 80
17 15 15 23 30 34 40 43 24 8 8 33 71 89 57 60 90 77 92 80 68 51 48 45 47 46 43 45 47 47 54 53 43 40 46 51 66 81 68 52 47 52 52 53 88 61 71
23 15 15 21 30 31 39 45 39 10 8 40 80 67 63 66 93 93 67 57 57 49 46 46 46 46 45 45 52 47 52 52 46 49 51 47 78 90 71 64 52 62 55 50 61 78 90
41 20 15 20 28 33 39 44 44 16 9 59 77 88 73 62 64 66 57 53 54 58 50 44 43 43 45 48 42 54 57 52 51 49 45 46 52 62 81 76 71 77 62 56 83 96 72
49 24 17 20 27 34 41 45 46 27 20 68 72 73 85 92 62 63 55 54 53 51 51 45 46 44 45 49 46 48 52 58 50 48 46 53 64 55 51 50 57 70 65 65 89 76 78
64 41 31 27 23 26 37 47 49 41 18 72 86 93 89 79 63 58 64 55 57 50 54 47 51 41 39 46 44 46 47 49 53 52 46 54 92 88 88 53 57 73 63 64 70 70 70
77 64 58 46 27 24 39 50 53 46 26 60 46 84 89 72 58 62 62 61 58 57 56 52 54 46 49 52 51 47 44 39 41 50 55 58 86 93 78 59 62 82 71 68 65 62 66
85 80 75 63 39 27 38 50 57 52 43 48 81 88 82 69 62 58 60 62 64 60 68 52 58 55 60 53 52 46 43 42 44 45 43 56 72 85 88 71 97 62 48 50 58 55 55
91 92 88 81 50 34 43 53 60 61 55 56 78 88 90 78 50 45 56 63 61 61 69 62 61 65 59 60 59 62 61 53 54 49 50 48 58 84 91 78 57 60 52 54 62 63 48
89 99 98 90 82 46 48 62 68 68 68 68 78 50 92 87 57 55 57 68 78 77 68 66 75 68 70 70 66 73 82 58 72 74 55 54 56 74 85 85 79 65 50 47 44 77 54
96 97 100 98 94 76 56 68 77 76 80 78 88 77 86 85 63 70 63 83 88 87 83 75 80 79 73 77 88 87 70 48 64 60 80 73 73 89 83 80 67 57 54 48 85 84 58
64 91 98 95 88 79 79 72 85 83 83 90 89 93 86 81 69 60 62 62 63 80 98 87 84 76 81 80 86 71 63 59 56 48 57 62 80 82 72 87 84 49 50 60 69 55 57
61 78 91 97 95 85 84 80 85 87 72 92 98 96 91 97 75 62 62 57 68 74 89 99 100 84 65 76 70 60 63 63 59 62 48 65 56 63 60 69 46 43 52 54 58 62 62

GFSGBSN_850_rhum_069.txt.gz
RH
48 70 99 95 96 95 98 99 89 93 96 98 96 99 97 98 99 88 60 72 79 72 71 67 73 70 67 77 61 53 65 79 78 80 76 86 66 76 86 75 61 63 48 41 41 39 40
36 64 94 90 97 93 96 99 95 96 97 100 99 91 94 81 89 84 76 63 79 76 68 77 80 70 70 88 40 59 55 67 79 92 77 76 68 66 71 67 70 53 53 49 39 42 39
32 47 70 78 98 96 91 99 99 99 98 100 98 99 83 96 83 84 79 74 70 66 72 69 77 75 85 64 61 80 79 68 74 100 90 78 63 61 54 59 58 60 58 53 45 45 44
29 36 44 65 87 77 77 100 97 100 98 100 97 88 77 96 70 82 72 58 57 59 58 59 82 82 86 47 47 57 63 66 64 87 91 73 65 59 53 54 60 67 55 70 47 47 44
28 35 41 42 43 64 63 94 98 100 99 92 98 68 63 72 70 78 50 57 59 58 57 62 75 83 80 64 64 51 57 60 67 97 93 73 70 62 59 73 83 76 89 73 53 46 49
25 34 34 34 29 38 21 68 87 97 94 80 85 60 59 73 77 70 58 60 71 77 75 83 85 81 67 70 64 65 64 64 74 92 91 86 68 83 78 86 87 92 82 67 65 49 47
23 33 33 31 32 32 12 21 55 89 90 53 58 41 45 57 73 77 74 80 77 76 76 68 66 71 71 72 62 63 70 66 84 88 91 88 88 92 75 76 63 68 71 59 52 44 49
22 31 34 31 34 33 18 9 18 61 84 54 54 51 46 54 52 54 62 76 88 92 81 75 70 76 81 82 77 86 88 81 96 93 92 91 90 74 65 70 71 59 66 63 44 38 47
22 27 33 30 34 34 30 9 7 25 56 59 58 54 48 50 54 68 58 65 73 78 96 95 88 85 77 88 95 83 82 92 85 91 88 94 73 61 68 73 78 65 71 61 47 47 43
21 24 31 30 32 35 34 12 7 11 41 66 58 58 62 55 57 68 69 64 72 77 97 96 93 93 89 88 97 91 83 95 86 90 84 89 67 67 74 69 62 74 51 47 54 60 72
19 21 27 30 30 34 36 22 8 6 38 56 58 60 71 74 71 80 85 73 83 92 92 91 93 95 96 91 84 96 87 88 89 89 80 98 80 86 91 77 80 69 49 44 55 60 56
18 19 23 28 27 31 37 26 8 6 30 48 54 64 70 78 95 98 98 94 85 87 91 98 95 86 82 78 89 94 90 91 67 78 83 93 85 88 89 89 87 83 61 57 61 69 91
16 16 20 26 26 30 38 26 11 7 14 46 50 63 68 72 86 96 98 89 90 95 82 85 96 85 92 95 86 81 87 84 88 94 96 97 98 87 84 88 83 89 88 98 94 95 92
16 15 17 24 24 30 39 35 19 8 8 40 50 59 70 72 85 95 94 91 90 83 97 79 86 76 78 77 89 84 83 92 83 86 92 97 100 97 84 85 95 97 79 88 87 97 85
17 14 15 22 23 28 38 43 33 11 8 33 50 56 65 70 82 88 92 96 89 93 91 79 64 72 67 65 78 85 86 90 84 79 88 98 95 90 86 78 87 98 96 63 71 59 81
20 14 14 20 22 26 34 44 39 24 10 31 52 70 66 62 80 82 86 93 91 78 68 61 66 52 63 57 64 65 65 71 77 74 69 87 96 90 92 88 83 95 72 79 92 76 72
24 16 14 20 23 25 32 44 42 29 16 20 65 77 63 61 83 68 95 89 72 58 56 62 63 52 48 54 50 56 63 52 49 64 66 73 77 99 96 98 98 96 98 80 63 69 81
30 19 17 22 24 26 32 46 43 28 21 19 61 91 61 66 82 89 95 86 68 59 52 55 51 51 53 48 51 60 66 56 47 46 56 54 76 96 78 79 65 71 83 74 85 65 73
46 26 24 25 26 27 33 47 44 29 19 47 76 71 67 73 95 94 72 70 65 57 51 51 50 48 47 49 57 53 65 54 48 53 54 53 80 93 77 68 58 67 61 69 62 76 87
53 40 36 35 31 30 38 50 44 38 22 57 74 94 58 69 64 70 76 68 60 56 59 47 47 45 49 50 45 58 65 53 50 50 47 49 67 72 84 70 75 80 68 62 72 87 71
63 56 51 51 37 30 39 50 53 43 30 32 49 90 92 98 84 84 69 64 67 61 54 48 52 50 52 55 50 57 61 62 54 48 48 58 69 56 54 54 66 72 68 74 79 69 76
68 66 68 66 51 40 39 45 56 54 38 27 58 77 72 85 78 76 70 68 59 62 57 62 57 59 46 51 53 54 58 63 64 57 52 64 90 83 83 59 58 72 70 72 76 68 67
74 73 72 69 67 57 52 45 51 61 50 32 34 68 89 73 77 75 72 66 69 72 59 55 59 69 54 57 55 50 46 45 50 63 63 71 84 90 88 66 66 78 72 69 71 69 62
76 79 75 74 73 69 61 53 51 64 60 56 45 57 91 84 72 64 53 62 68 68 72 67 64 66 57 52 51 47 44 45 46 51 52 76 78 90 92 76 90 48 56 57 60 62 65
55 64 86 90 76 75 64 55 56 63 69 62 67 44 91 90 73 62 61 69 64 68 69 70 65 65 57 61 68 66 65 59 59 53 54 57 67 86 91 92 63 63 56 59 71 69 59
66 77 98 98 87 85 82 76 63 67 77 70 72 77 89 91 74 66 66 59 78 86 82 67 73 68 65 79 73 85 92 78 80 75 58 59 60 79 87 91 91 62 50 47 49 82 59
71 83 96 100 99 87 80 81 72 77 82 77 79 87 87 90 59 69 77 82 77 91 94 88 89 81 73 88 99 97 77 55 80 77 82 81 77 93 91 84 73 50 57 52 86 75 62
47 66 84 90 95 95 83 83 79 80 79 77 83 90 95 92 79 71 65 65 66 62 88 96 96 94 91 94 96 91 73 64 62 61 77 78 72 94 88 93 92 55 52 70 66 59 58
54 80 79 86 87 99 85 81 80 80 83 81 93 98 100 100 87 82 74 75 68 75 79 83 98 99 92 86 84 75 72 73 71 78 56 72 67 67 71 70 48 50 53 59 59 61 60

GFSGBSN_850_rhum_072.txt.gz
RH
37 92 87 78 100 94 96 98 95 98 97 92 87 98 99 95 81 76 73 61 80 70 66 66 67 66 74 78 72 72 57 64 77 54 80 84 76 84 87 81 72 65 52 49 46 58 58
27 89 61 74 94 88 89 99 92 97 97 90 97 91 98 96 82 76 69 48 66 59 63 77 71 64 74 85 70 79 66 80 89 89 83 88 73 74 74 74 73 63 56 51 48 43 43
25 56 54 57 77 66 84 93 99 90 99 96 93 64 99 84 70 74 52 56 62 56 66 66 64 66 70 48 61 70 72 80 87 85 82 80 68 71 67 62 64 65 65 63 54 47 44
24 34 39 37 52 57 64 78 84 71 96 84 68 71 89 81 79 60 53 59 56 55 59 64 69 66 52 61 62 56 60 66 68 82 91 79 74 54 62 57 65 76 72 78 52 50 44
21 27 34 31 36 54 41 62 64 69 93 73 64 53 67 74 73 57 56 54 57 55 58 62 73 76 64 60 62 66 55 59 63 83 86 85 74 65 60 73 88 81 88 74 58 49 50
19 26 32 30 31 41 38 22 50 52 74 62 60 48 62 68 58 60 66 69 72 76 81 85 85 74 64 71 66 76 60 57 67 90 89 94 74 80 84 86 91 95 84 70 66 55 53
18 24 30 29 29 34 38 11 13 40 65 60 53 54 56 60 52 55 68 74 77 72 80 71 70 70 70 70 71 78 63 58 79 85 88 92 92 90 82 72 67 77 71 70 60 48 52
18 22 28 28 27 32 37 15 8 14 43 63 54 54 50 56 53 48 39 54 90 85 82 80 78 79 77 81 82 78 74 79 85 93 95 95 90 74 71 69 70 78 79 71 51 43 52
18 20 26 27 26 30 38 22 8 7 36 52 55 55 60 55 63 58 50 52 61 79 92 98 96 84 82 90 89 89 84 85 84 94 93 85 72 66 71 79 79 75 74 65 58 50 47
18 18 21 26 25 31 38 28 8 7 22 48 54 58 64 62 66 68 69 66 73 69 95 98 96 92 91 86 91 75 92 87 88 98 91 84 67 72 77 81 76 83 58 57 52 61 80
18 16 18 25 24 32 40 31 14 8 10 43 52 58 64 70 71 82 90 94 89 94 92 96 93 94 92 92 93 92 82 84 85 93 93 96 81 77 86 78 65 69 74 56 57 65 59
20 16 16 24 24 32 41 39 26 9 8 39 50 58 64 69 84 92 98 93 89 81 92 96 90 82 88 82 94 93 91 91 85 83 85 92 82 88 90 89 89 86 58 66 68 79 93
24 16 15 23 24 30 38 42 37 18 9 31 48 58 66 74 81 93 98 93 84 92 74 83 95 85 81 86 87 86 94 96 97 98 99 97 97 87 79 82 76 81 77 98 98 98 93
28 17 16 23 25 28 38 43 38 28 13 24 48 57 58 72 83 98 97 80 89 82 88 80 83 78 95 82 88 82 81 91 81 78 95 97 100 94 83 83 83 94 88 92 89 96 83
33 19 18 25 26 29 40 41 37 29 21 12 48 58 60 63 84 98 93 91 83 91 84 90 72 69 74 86 88 87 83 87 84 80 86 90 93 84 84 81 75 96 99 75 73 71 88
35 22 21 28 29 32 41 40 36 29 24 14 56 67 68 69 82 86 85 91 90 77 78 74 76 55 67 67 86 92 89 76 80 78 70 85 98 83 81 86 87 91 84 98 92 83 79
37 26 26 33 32 36 44 41 36 30 24 21 53 73 72 79 90 67 94 94 79 64 64 66 65 63 50 55 55 65 68 62 62 68 71 81 78 93 92 96 81 96 100 89 70 72 83
44 33 35 38 36 37 48 46 39 32 25 30 47 81 72 80 81 92 92 86 67 65 56 60 56 57 57 52 56 63 66 61 50 51 70 64 81 92 89 77 76 76 89 76 91 83 77
49 42 45 45 40 38 47 52 48 37 28 38 61 70 66 77 93 95 77 75 69 60 56 52 54 49 49 54 57 56 64 54 50 52 62 60 81 98 96 74 77 100 90 80 73 79 87
55 51 54 54 46 43 47 50 49 44 31 46 64 83 47 65 74 75 82 73 58 60 58 52 52 46 52 53 47 58 65 54 51 50 49 51 73 72 83 69 78 84 78 89 94 97 80
62 59 63 62 55 54 54 55 48 46 36 30 41 97 85 91 69 88 82 71 71 66 57 53 56 52 60 60 53 58 64 63 54 52 50 56 70 61 60 64 70 72 73 77 86 78 82
65 62 68 64 63 59 61 59 52 48 42 33 42 62 66 77 76 83 77 77 79 71 64 60 63 67 67 60 53 56 66 66 64 58 55 68 87 81 80 63 59 74 72 76 74 69 69
69 66 71 66 66 64 65 64 58 53 51 42 36 59 80 65 78 78 72 57 66 70 65 58 63 72 71 55 57 52 49 49 50 66 67 73 85 86 79 68 67 76 69 69 74 72 62
68 78 80 70 70 67 62 67 64 60 61 54 48 44 62 61 80 64 62 64 75 68 79 68 68 71 60 54 52 52 48 48 53 56 58 82 77 89 93 76 92 57 54 56 59 62 67
71 73 79 71 78 75 78 78 73 68 72 63 60 52 57 71 80 62 64 62 58 49 68 69 65 62 63 58 71 70 67 61 60 57 61 67 78 87 93 94 72 57 61 65 70 64 62
86 91 71 67 52 78 78 80 75 74 77 70 67 69 64 83 72 71 71 74 86 83 80 80 76 82 69 80 80 92 94 82 79 72 64 63 61 74 92 94 92 55 52 48 55 86 62
96 94 81 75 72 85 92 81 84 78 76 72 77 80 84 82 67 67 74 75 63 78 86 76 95 90 82 93 97 98 87 66 86 83 84 85 88 89 87 91 75 54 52 52 81 70 63
95 86 61 42 52 86 96 91 89 81 77 78 82 88 96 95 86 79 76 68 66 70 87 62 55 95 97 99 96 96 95 73 72 69 82 89 91 95 92 97 93 54 55 72 64 62 61
56 79 63 34 40 81 99 82 89 89 79 88 92 93 98 100 95 94 90 89 79 78 80 74 72 89 100 100 96 85 80 79 76 82 65 72 66 76 78 76 49 50 50 47 58 60 60

GFSGBSN_850_rhum_075.txt.gz
RH
27 33 29 94 82 90 68 95 79 76 97 98 99 97 98 84 77 74 72 50 74 64 61 62 65 60 77 80 77 78 76 70 60 82 82 93 82 76 83 84 76 64 58 56 84 77 72
23 27 29 63 79 82 47 62 80 47 87 100 95 96 92 74 70 70 66 50 71 57 58 65 67 61 63 74 79 76 81 77 56 68 66 89 76 72 73 80 73 66 56 72 73 77 61
21 24 27 46 67 80 30 37 52 48 85 98 77 72 92 71 52 48 52 54 63 64 57 67 66 62 57 57 70 85 79 89 78 78 60 82 71 72 72 73 68 68 70 68 59 63 68
20 24 26 28 58 78 40 28 50 68 80 87 61 44 66 73 50 49 51 56 59 61 49 66 65 66 52 65 67 61 62 76 85 87 79 83 79 70 67 68 75 79 70 84 58 52 57
21 22 25 26 32 69 53 18 47 47 58 67 49 41 51 60 58 57 54 53 55 57 59 71 78 75 61 66 66 59 60 63 68 82 81 81 86 67 64 84 88 86 90 82 64 52 51
22 21 24 26 26 41 50 14 28 27 45 50 52 46 49 52 62 63 66 72 69 77 77 83 79 68 61 71 71 67 58 63 65 72 90 98 81 83 86 87 86 98 87 73 67 59 55
23 20 22 26 24 32 41 17 12 12 37 48 52 50 41 46 49 47 59 71 71 67 77 95 86 72 76 82 81 69 62 63 62 82 91 98 91 85 89 68 70 77 70 71 59 51 57
27 18 20 26 25 34 38 24 9 8 24 47 52 54 51 47 52 48 49 50 67 70 81 89 83 83 78 85 79 75 67 79 78 96 90 94 94 75 73 67 71 75 77 72 55 46 53
31 18 18 26 25 36 40 31 12 8 13 42 53 55 55 49 52 59 53 62 74 87 88 97 96 93 78 83 79 85 81 85 82 94 96 97 77 69 75 77 80 76 78 70 59 51 49
33 17 17 26 25 35 42 40 28 10 9 40 50 57 58 60 62 67 70 66 70 73 98 98 93 82 83 82 90 82 86 87 86 94 94 83 70 76 82 83 77 87 63 60 54 61 74
34 18 17 25 26 32 39 43 38 20 10 31 50 58 60 66 69 84 92 96 82 90 90 93 90 93 87 91 83 86 91 86 85 89 93 98 82 86 86 79 69 75 71 63 60 66 65
38 20 18 25 27 30 38 42 40 28 14 27 50 57 64 71 81 90 98 94 90 81 84 98 92 82 92 89 90 88 91 90 84 88 88 92 84 86 88 87 74 76 62 70 83 80 93
44 22 21 27 30 31 39 42 37 27 20 17 48 55 63 77 85 97 98 93 83 90 68 82 96 87 83 84 86 81 87 92 94 99 99 99 96 87 80 82 73 72 87 98 98 98 94
50 25 23 30 32 34 40 38 35 26 24 16 49 54 63 69 88 99 97 80 86 75 89 74 82 82 92 76 84 90 89 95 88 79 97 98 99 96 86 79 80 86 75 92 89 96 84
54 28 26 33 34 37 42 38 34 28 25 23 51 64 69 76 87 98 90 92 79 84 76 91 73 79 94 81 84 84 82 88 82 78 80 92 97 84 81 85 78 93 99 71 77 75 91
51 31 30 36 36 39 46 43 38 32 26 30 58 64 74 84 92 89 84 93 89 72 74 80 83 61 72 94 94 94 88 78 80 80 68 78 97 81 83 83 86 84 81 94 96 95 87
48 35 34 40 38 42 48 47 42 36 28 41 70 66 74 89 92 68 92 90 81 66 70 69 68 70 57 68 84 90 81 64 68 81 71 76 76 91 83 96 87 98 98 98 95 81 80
49 40 42 45 43 44 46 47 44 40 30 43 49 79 70 78 77 92 86 82 68 68 62 64 63 62 59 54 59 70 75 62 54 69 80 74 81 90 86 76 72 73 78 88 96 87 84
54 45 48 51 49 47 47 47 41 37 33 37 53 67 62 75 90 94 79 77 71 65 58 54 57 52 52 58 59 58 66 56 52 59 64 65 89 98 98 91 86 95 81 85 95 80 88
56 51 53 55 52 48 48 46 41 37 34 36 52 66 42 61 72 79 85 75 69 63 63 57 54 50 54 58 53 57 66 57 52 53 51 56 75 74 79 67 83 99 93 86 96 98 83
60 57 58 60 51 50 52 47 44 40 35 30 36 84 70 78 58 86 87 77 77 71 62 55 58 56 67 69 58 62 63 64 58 51 56 57 74 77 68 64 76 78 79 89 94 85 88
64 60 62 57 52 52 52 51 46 38 31 33 39 52 65 71 73 82 77 77 80 74 73 64 67 64 70 71 57 57 68 68 64 61 63 70 82 81 84 64 74 79 74 81 90 86 89
67 64 59 56 55 54 46 52 52 43 34 42 42 50 75 60 76 73 76 56 59 70 65 68 71 78 80 69 56 54 53 54 53 68 71 75 86 85 82 72 67 79 67 69 74 70 70
74 68 68 59 57 60 58 65 66 57 47 47 51 46 54 54 77 57 61 61 68 75 72 52 46 63 67 60 56 56 55 54 60 65 62 83 77 85 91 77 96 61 48 59 59 53 65
78 77 76 63 58 61 64 56 62 61 61 57 57 58 55 69 65 62 62 59 56 58 68 61 60 60 63 69 78 70 72 65 65 64 72 69 82 93 94 96 74 53 60 69 69 63 57
84 72 68 58 44 50 60 53 71 67 65 59 62 65 72 83 75 64 68 71 92 90 83 74 59 59 90 85 95 96 96 81 84 79 67 72 68 74 96 97 90 50 56 52 56 76 62
88 80 66 53 33 27 48 53 76 76 74 71 70 69 76 87 75 70 77 76 65 78 85 71 78 51 96 98 100 98 93 74 88 90 93 87 88 88 87 88 82 57 50 54 75 63 66
80 77 75 26 20 30 42 45 80 87 82 78 77 80 88 93 87 95 81 75 70 72 84 67 67 77 92 100 99 98 93 78 79 75 87 91 92 96 92 95 91 51 60 69 61 63 63
66 86 61 14 23 26 32 55 76 81 89 79 76 85 96 100 92 92 93 91 93 86 97 87 73 85 97 94 94 97 99 83 80 86 71 80 76 90 82 77 51 49 55 50 51 60 62

GFSGBSN_850_rhum_078.txt.gz
RH
22 36 44 63 67 65 35 46 88 80 99 91 92 90 93 80 60 44 39 43 67 61 67 61 64 62 74 79 77 82 81 74 77 93 87 86 85 73 75 75 71 62 64 75 78 73 70
21 29 31 53 66 64 42 29 58 86 82 92 93 82 86 66 46 42 40 42 47 49 59 66 66 62 66 64 77 73 78 64 67 88 81 86 79 68 69 71 71 61 59 82 81 73 74
22 25 28 31 57 50 47 13 40 74 72 80 83 44 69 59 45 47 47 43 42 49 52 59 67 62 62 67 72 74 71 72 68 67 79 86 73 73 74 81 71 66 87 80 85 82 79
24 21 24 28 30 53 55 13 14 55 62 67 67 47 47 55 49 50 50 46 47 46 44 58 63 63 60 73 73 68 63 76 82 88 65 80 76 75 71 76 73 74 75 90 78 82 85
27 19 23 27 27 37 52 13 10 24 56 63 58 50 47 46 50 57 53 53 54 54 55 69 68 75 62 67 68 65 66 66 80 86 63 79 82 75 68 88 90 86 94 83 82 75 86
29 19 21 27 26 36 40 21 9 10 36 61 56 55 44 43 44 54 62 65 70 75 74 74 74 62 65 79 76 69 70 71 69 79 68 82 84 84 83 91 84 91 85 80 76 67 77
35 21 20 27 26 36 40 32 12 9 16 44 54 56 51 48 44 41 57 69 66 66 82 92 88 75 78 86 82 70 68 77 71 79 86 94 91 92 88 69 72 78 76 78 62 56 62
45 24 19 26 26 36 42 40 29 10 9 34 53 58 54 47 51 47 48 52 70 74 84 87 81 79 83 86 72 70 72 72 72 90 88 95 90 75 73 66 74 76 78 75 59 52 62
52 27 19 24 27 33 39 43 39 24 10 24 51 58 59 57 54 58 52 59 64 70 88 89 84 83 78 80 84 76 88 78 87 95 95 99 79 74 72 71 78 78 81 74 63 53 58
54 31 19 23 28 30 37 43 41 35 16 16 50 58 62 64 66 65 70 64 68 69 94 98 86 80 79 80 83 88 88 84 84 97 95 92 73 79 81 82 74 82 66 65 60 64 80
56 37 20 22 29 30 36 42 39 34 22 15 49 58 64 70 72 80 90 97 85 79 91 88 85 84 76 84 77 84 86 74 87 92 94 98 83 86 87 79 66 72 68 65 62 72 67
57 42 23 23 30 31 36 40 36 30 24 15 47 59 68 78 84 92 97 94 84 81 93 95 89 85 94 84 90 78 85 84 82 84 89 92 85 82 84 86 67 72 70 77 84 78 90
57 47 25 25 32 33 39 39 36 30 26 20 46 58 68 80 90 98 98 96 83 92 67 87 97 84 79 87 91 81 84 92 91 91 100 98 95 85 79 85 75 71 78 98 97 97 90
60 50 28 28 34 35 42 43 41 33 26 22 47 62 72 81 92 99 95 82 88 75 87 70 80 80 87 74 76 80 87 96 89 85 98 95 99 96 83 78 84 81 80 92 88 96 89
61 52 30 30 35 37 45 47 43 35 28 28 53 70 84 88 93 99 88 90 78 80 74 88 78 91 81 81 82 85 73 88 86 84 91 94 98 84 81 84 81 97 96 63 85 80 91
61 50 32 32 37 40 46 47 41 37 28 37 54 69 85 96 98 98 86 91 87 67 70 83 78 65 83 90 90 95 87 74 81 75 65 72 96 82 87 79 85 83 80 92 96 97 91
60 48 34 36 41 41 45 46 39 34 29 41 64 67 81 93 94 77 88 91 82 69 72 74 70 71 62 90 88 89 84 70 72 86 72 73 74 91 86 96 93 97 97 92 83 82 87
58 49 38 41 45 45 47 44 33 31 28 37 47 72 67 78 77 93 90 77 68 69 70 73 66 64 64 57 74 91 79 66 65 78 84 71 81 97 82 81 71 73 76 85 94 86 87
58 52 42 47 50 48 47 43 32 30 28 30 47 56 60 61 87 93 80 76 75 68 61 57 61 61 55 61 64 69 68 56 59 73 74 73 89 100 99 86 87 97 85 76 87 84 93
59 55 47 51 54 49 48 39 29 24 26 25 38 60 35 52 67 83 92 77 76 62 71 58 57 55 58 64 62 59 69 60 56 59 56 63 81 78 81 68 83 96 88 82 91 94 77
60 57 53 53 56 50 42 34 22 20 26 24 33 76 60 76 56 81 86 84 82 81 68 61 62 62 64 74 62 68 64 65 62 54 62 65 85 78 70 62 83 88 86 86 96 86 96
62 60 56 58 55 44 30 21 19 18 22 23 32 46 65 64 70 77 76 79 72 72 73 77 74 77 71 77 63 60 66 72 68 66 71 69 86 81 88 64 79 87 81 86 87 87 84
65 61 56 58 52 45 22 14 12 11 17 29 36 44 48 60 73 64 71 60 56 63 47 66 53 53 80 84 69 60 52 56 58 73 76 79 84 88 87 74 70 84 73 72 76 83 78
67 62 61 53 55 47 35 12 10 16 20 33 41 45 46 52 69 56 60 61 61 64 82 64 56 55 55 57 71 71 65 62 61 67 63 83 79 83 88 78 94 60 46 56 65 58 72
69 67 65 61 60 50 33 12 19 27 36 39 44 48 52 64 60 59 59 62 60 62 78 69 65 74 60 88 88 97 82 72 70 71 78 67 78 90 95 93 75 56 55 70 72 63 59
73 76 70 65 62 49 31 19 22 33 45 46 48 57 63 71 73 66 70 70 89 91 89 70 54 49 49 96 95 99 97 82 89 83 75 76 70 74 97 96 94 52 57 54 57 82 53
80 81 78 66 57 37 21 30 28 42 66 57 56 64 70 82 79 72 76 78 68 79 89 74 79 64 56 91 94 94 97 70 90 97 95 92 99 96 96 92 76 60 50 57 76 62 67
85 83 76 53 50 28 17 26 36 48 73 72 72 73 74 81 86 82 75 80 79 78 79 74 78 84 93 97 100 94 98 88 81 79 90 86 96 97 97 97 91 53 65 70 59 61 64
91 85 78 56 52 28 34 30 42 60 66 82 78 82 92 90 83 90 76 66 73 90 88 88 83 85 84 94 94 95 98 99 84 88 76 83 78 91 82 76 51 52 56 51 53 58 63

GFSGBSN_850_rhum_081.txt.gz
RH
25 21 26 48 36 65 62 27 24 54 78 89 99 76 90 76 45 42 42 44 60 53 56 60 57 56 66 73 71 88 82 79 82 94 80 94 82 72 79 81 72 64 72 78 80 69 71
26 20 24 30 32 56 58 26 15 38 71 84 87 60 96 85 44 46 48 42 45 49 56 56 52 52 54 66 70 71 77 80 80 81 82 92 81 66 64 79 72 59 75 87 73 73 71
28 23 22 28 28 39 54 25 12 32 61 67 87 61 49 79 54 49 48 47 47 49 47 50 52 55 66 70 65 73 66 80 76 74 80 84 80 70 72 81 69 63 86 80 85 78 81
43 27 22 26 27 36 53 25 12 17 57 59 63 64 44 45 48 53 50 47 44 43 42 58 58 53 66 72 70 65 63 76 80 75 80 80 74 73 74 77 76 72 79 89 83 79 88
60 30 21 24 27 35 43 34 12 11 26 57 55 69 45 42 45 50 57 50 58 58 64 69 63 60 63 65 67 67 68 80 80 86 76 80 80 75 73 85 87 80 90 82 92 76 87
60 36 21 22 28 33 42 39 28 12 11 30 51 58 51 43 43 42 55 59 61 70 74 69 71 56 73 86 72 74 74 88 81 90 79 92 79 84 82 88 89 92 86 77 86 84 87
55 44 24 20 28 31 39 42 39 27 12 13 47 56 54 46 48 46 47 61 61 62 81 89 86 80 82 78 74 72 77 80 92 76 88 96 91 86 86 69 70 70 70 65 66 63 81
57 51 27 20 28 29 35 42 42 38 20 12 38 55 56 54 51 55 50 53 59 69 81 84 82 83 87 80 70 71 88 84 89 93 83 91 89 75 74 67 73 72 77 76 62 60 70
66 54 32 20 26 29 33 41 42 37 28 14 32 53 57 58 57 59 58 57 61 68 86 87 85 81 82 77 84 83 89 81 84 83 96 100 88 72 72 75 78 79 79 74 70 57 57
74 55 38 21 24 30 32 40 38 34 25 21 30 53 59 64 70 67 72 66 64 69 94 97 87 79 80 76 77 86 89 82 85 91 91 92 77 75 79 77 71 82 68 65 62 69 85
75 55 43 22 23 30 34 41 36 32 26 27 27 55 64 72 76 85 92 97 89 76 88 77 86 73 77 71 76 76 86 78 89 91 95 97 85 85 86 78 60 71 68 66 63 70 69
76 56 48 26 23 31 35 43 40 35 28 28 30 56 66 78 89 96 96 93 82 82 94 92 87 84 89 87 86 74 83 80 80 81 86 92 86 78 80 83 68 70 72 75 79 74 90
74 60 52 29 24 32 37 46 44 39 29 28 40 60 71 80 94 97 97 92 82 93 68 84 82 79 80 91 84 77 84 90 83 95 100 97 94 84 78 84 75 66 76 92 94 95 90
73 63 53 32 27 34 39 47 43 40 30 28 51 67 82 87 95 97 89 80 88 75 87 69 78 74 88 81 75 84 83 93 88 88 98 99 99 89 81 78 84 81 77 87 93 92 83
76 59 53 35 29 36 41 45 43 38 31 42 59 72 83 90 96 98 86 90 77 79 73 84 77 92 80 84 80 74 82 80 88 84 89 90 94 82 81 83 79 87 89 65 83 80 84
81 59 52 37 33 39 42 44 42 34 32 48 64 64 79 87 99 97 85 88 86 65 68 84 79 73 83 81 84 84 87 76 83 77 61 76 96 82 84 80 82 80 74 86 95 97 92
80 59 53 39 37 42 42 43 36 34 31 55 64 63 71 82 90 76 89 90 80 70 72 79 73 74 65 94 86 84 84 70 74 86 68 71 73 93 90 97 95 95 93 89 78 78 82
80 62 54 42 41 45 43 41 30 32 29 47 52 67 66 74 72 93 93 77 70 71 75 78 69 69 69 61 90 93 90 76 70 80 87 69 77 89 87 80 74 73 81 78 86 84 86
81 68 56 45 44 48 43 39 27 27 24 36 42 53 57 60 79 92 80 74 78 71 64 61 63 66 61 65 69 78 71 57 72 77 80 75 93 96 97 87 81 89 79 76 81 81 96
82 71 56 47 47 50 43 34 28 19 21 27 34 56 37 52 72 80 86 74 78 65 75 66 62 57 60 66 64 65 66 62 68 72 62 66 89 77 77 68 82 98 92 82 86 96 74
84 70 57 50 48 50 42 26 23 14 18 20 27 54 52 70 57 78 86 85 85 84 70 68 67 74 72 80 68 73 64 65 66 61 77 86 100 90 79 63 82 84 85 88 96 81 86
87 64 58 53 51 48 36 18 12 10 10 18 26 41 59 64 68 73 76 82 74 70 66 73 76 63 78 93 75 100 95 77 72 71 76 70 98 81 86 68 73 85 83 89 84 78 79
84 61 59 55 52 44 28 13 7 6 10 12 24 33 44 64 75 57 60 65 61 56 46 55 59 62 75 70 93 92 89 86 74 73 78 82 94 97 94 74 71 90 80 76 73 81 77
82 58 61 56 53 43 33 15 8 8 9 11 19 31 40 41 68 55 59 60 57 59 67 58 56 67 57 67 62 73 84 90 75 71 64 88 81 86 94 78 95 58 47 63 69 60 69
82 62 62 57 51 41 33 16 11 8 9 13 15 26 40 52 61 57 59 62 62 62 80 76 68 67 63 62 93 93 99 99 98 79 79 66 80 96 95 90 74 55 53 64 67 57 60
78 66 62 59 56 44 30 19 15 13 13 17 18 31 45 55 64 63 70 72 84 88 87 72 60 57 60 85 94 95 87 91 96 95 81 72 74 98 97 97 90 55 55 58 57 80 52
78 70 65 62 60 52 33 24 26 27 25 23 31 41 52 63 68 67 74 76 72 80 93 79 78 66 70 97 98 98 90 98 97 96 97 94 99 95 95 94 83 55 56 57 78 57 59
79 69 70 71 67 55 30 25 36 35 45 33 40 50 61 70 71 67 72 80 81 84 88 78 76 84 87 91 97 96 96 93 91 79 90 85 94 97 97 97 90 55 65 67 58 60 63
75 76 75 79 75 49 19 26 36 43 52 56 52 58 67 74 67 84 70 66 73 90 91 95 83 87 84 94 96 96 93 96 98 96 85 90 79 89 81 74 53 54 50 46 54 55 62

GFSGBSN_850_rhum_084.txt.gz
RH
35 28 22 25 28 37 56 28 31 57 83 88 98 99 95 88 43 42 41 36 42 48 56 54 53 55 61 64 74 94 90 89 86 95 94 74 66 58 53 53 66 57 57 63 74 65 60
56 30 23 23 29 33 47 32 22 28 70 89 96 100 66 98 76 45 45 42 42 46 48 50 49 53 63 58 74 81 82 86 88 92 97 84 65 57 51 59 55 56 56 61 63 62 60
54 48 28 22 29 31 39 46 15 15 49 77 82 100 77 52 58 48 46 42 42 41 40 47 46 61 68 73 71 73 70 75 81 93 89 80 84 69 51 62 58 50 59 63 64 58 56
62 57 33 22 26 29 39 42 34 15 33 44 67 88 86 46 47 46 49 44 45 44 42 52 51 58 66 67 66 63 70 78 79 74 82 87 80 78 60 68 61 51 46 60 56 61 60
73 53 43 24 22 29 37 42 46 36 23 22 46 66 75 47 44 43 48 52 58 73 65 54 55 57 61 65 62 68 72 82 79 84 82 92 70 74 68 60 66 60 54 50 68 60 56
74 63 50 29 21 29 32 39 42 43 45 17 19 55 62 52 46 45 42 54 57 66 63 55 64 60 71 84 71 76 78 79 83 81 88 88 79 64 58 63 64 70 51 49 50 60 59
93 70 52 36 21 27 30 36 42 41 40 30 16 50 58 55 48 46 45 55 64 70 81 82 86 81 83 73 73 80 79 84 81 78 83 92 89 64 50 52 47 47 51 51 47 51 56
94 72 60 42 22 24 30 34 42 38 33 26 17 50 59 58 52 53 48 54 54 63 75 84 77 84 85 70 65 85 86 83 81 77 81 94 87 49 56 53 50 49 46 48 51 49 59
91 75 64 46 26 23 30 34 42 36 29 25 22 52 59 61 59 60 59 55 56 71 74 86 87 86 84 81 82 88 87 90 68 70 74 99 83 56 54 59 55 50 44 49 48 48 53
84 77 65 46 30 24 31 35 41 37 31 27 24 54 60 66 72 71 73 64 61 67 96 77 73 73 85 74 76 84 82 77 69 74 74 77 70 64 56 56 50 61 52 50 54 54 59
78 74 71 49 34 26 33 37 42 42 34 29 25 56 62 73 79 87 88 92 85 69 83 66 74 67 74 64 74 74 86 86 67 78 75 92 80 67 63 56 48 51 54 53 54 54 55
78 73 74 50 38 27 34 39 44 43 36 31 32 56 71 79 88 94 91 83 76 92 89 86 75 71 71 76 68 74 80 84 72 69 80 89 78 58 48 64 56 57 57 55 53 51 66
81 74 76 52 43 28 34 40 45 41 35 30 49 66 79 82 92 94 93 88 96 86 68 83 72 68 67 69 71 63 68 72 71 91 100 94 89 74 72 65 61 56 57 78 77 82 59
78 74 76 56 46 30 36 41 44 38 34 34 54 73 86 86 97 92 85 73 93 70 83 63 70 65 70 64 62 60 60 67 65 60 97 100 97 85 67 61 68 55 50 56 67 56 44
78 76 76 57 47 31 38 41 42 33 33 46 55 67 84 89 99 96 80 99 72 81 72 70 70 79 66 70 68 66 57 51 57 62 70 76 90 78 74 68 62 70 86 52 70 61 63
79 78 77 56 48 33 40 40 40 32 32 50 59 69 75 91 99 92 75 86 75 58 61 71 67 61 61 67 75 75 58 47 60 59 56 59 90 80 86 73 73 65 49 76 86 81 66
92 79 77 55 46 36 41 40 34 32 32 51 63 73 67 81 86 76 99 78 70 67 68 68 62 62 58 71 70 74 67 56 56 66 57 55 60 91 92 96 97 83 74 70 55 55 60
99 80 74 54 45 38 42 39 30 30 33 56 70 68 64 74 76 81 77 70 70 65 76 67 64 61 59 54 74 76 69 55 59 65 71 54 59 85 77 66 61 60 57 57 67 67 59
100 80 74 54 45 41 43 37 28 27 27 40 52 68 58 67 72 66 62 62 73 67 61 60 58 57 53 58 63 57 58 54 64 62 65 62 88 92 90 79 76 86 66 62 55 64 87
100 82 76 56 46 43 44 34 23 19 20 32 38 58 49 55 66 53 53 58 62 68 67 66 58 54 56 59 51 64 58 55 65 68 64 57 78 64 57 56 56 80 64 61 77 96 63
98 85 78 55 48 45 44 31 16 14 17 20 26 42 37 54 42 56 62 67 65 62 68 66 63 62 65 60 56 58 55 54 68 73 73 83 100 79 63 59 66 68 65 65 88 77 79
93 90 79 56 48 46 42 28 15 13 13 16 20 38 52 59 63 54 58 54 70 63 59 55 68 55 56 80 72 100 98 88 74 81 77 92 100 100 100 84 69 76 63 61 61 64 60
92 87 76 59 50 47 41 18 9 8 10 17 16 19 25 62 54 40 35 53 53 52 43 49 51 58 56 49 61 63 97 99 100 100 95 79 92 93 87 86 95 92 66 61 60 56 58
93 85 72 58 52 49 36 10 7 7 9 10 10 16 28 32 40 36 49 56 48 50 49 46 53 56 58 67 63 59 59 72 86 97 99 98 86 83 78 70 87 43 46 50 51 47 46
98 90 67 58 54 48 28 12 8 9 10 11 10 11 16 30 40 47 51 52 55 57 63 65 65 68 66 60 74 80 80 86 84 81 92 87 88 97 84 72 50 45 47 53 54 45 41
100 93 67 56 54 43 28 12 8 8 8 10 9 11 15 36 40 50 55 63 55 59 57 64 63 59 67 64 78 82 60 82 94 96 100 78 76 81 94 78 68 38 50 48 47 54 48
100 90 67 59 56 42 32 16 8 8 8 11 13 14 22 49 50 54 54 56 72 71 70 72 70 66 83 82 74 74 62 85 78 86 90 97 100 95 85 80 59 39 48 54 53 44 54
100 92 72 64 58 50 40 21 9 9 10 12 19 24 22 45 55 54 60 70 80 78 72 71 69 76 67 80 84 80 80 81 88 79 90 83 91 84 74 86 72 50 59 52 39 58 59
100 91 76 70 65 58 48 22 10 10 11 12 20 38 34 51 60 69 73 69 74 87 82 91 78 75 75 67 73 69 66 70 81 69 69 87 69 63 58 50 47 51 40 44 49 54 59

GFSGBSN_850_rhum_087.txt.gz
RH
68 51 42 26 24 30 42 63 53 43 66 91 99 98 86 69 98 54 48 46 42 45 49 48 43 44 72 58 71 69 88 92 82 89 94 82 61 48 40 37 55 59 65 52 57 52 43
79 61 53 36 22 29 34 59 70 33 64 93 98 98 91 44 78 65 47 46 44 43 41 45 42 54 65 55 72 78 81 88 91 95 86 84 59 48 38 33 44 48 77 55 64 53 47
82 74 55 46 26 26 30 42 52 53 42 83 86 89 90 49 45 47 48 43 42 42 38 46 44 54 54 65 71 74 77 85 85 95 83 70 69 52 41 40 38 38 57 56 48 60 48
89 77 63 53 36 23 29 35 48 49 76 75 62 66 81 58 40 43 47 47 62 72 54 54 46 71 53 67 71 75 78 75 80 94 87 66 72 70 54 46 44 40 45 71 57 47 45
100 86 71 59 45 23 28 32 38 44 68 76 39 37 58 55 42 41 41 48 51 70 52 57 72 65 52 67 71 79 85 77 78 89 77 71 83 64 58 54 59 47 50 50 50 42 41
99 97 86 67 51 28 26 30 35 41 43 47 26 35 56 54 44 42 41 47 54 78 66 62 66 64 61 69 75 85 85 84 72 79 86 92 82 56 48 48 62 54 39 32 38 48 45
99 99 87 71 56 34 24 30 34 38 36 31 24 36 56 58 48 44 44 56 66 65 69 68 71 64 69 74 74 79 80 72 68 80 81 93 85 63 44 38 36 30 34 29 27 35 48
100 98 86 73 63 39 24 30 34 36 33 28 26 42 57 58 52 49 48 61 61 77 62 75 75 68 79 78 68 80 78 61 55 71 72 86 70 46 36 35 43 42 35 37 38 38 42
100 97 83 75 67 44 24 31 35 38 35 28 27 47 60 61 59 58 72 66 53 68 64 68 74 68 75 76 84 76 81 68 49 58 68 98 59 50 47 49 45 41 38 47 42 41 41
100 97 86 79 67 47 26 31 35 40 39 31 26 52 62 68 82 73 82 60 54 65 95 62 54 70 71 71 70 77 83 77 54 56 65 79 62 58 50 46 39 47 34 33 40 48 50
100 99 92 76 70 49 27 31 37 42 39 32 26 54 67 74 86 90 88 73 59 73 87 57 61 64 76 58 61 68 81 70 52 58 65 74 67 60 52 41 39 42 42 43 45 47 47
100 100 93 76 72 51 29 32 38 42 38 31 33 58 73 82 96 90 76 76 72 92 86 77 60 57 51 56 54 62 66 73 55 56 65 75 69 48 42 42 46 47 47 44 47 52 87
100 100 90 75 74 53 31 32 39 41 36 29 49 70 78 84 92 84 75 88 94 89 64 76 62 58 56 55 55 52 57 65 70 88 97 92 76 56 63 60 50 47 47 73 77 85 64
99 100 88 71 73 56 34 34 40 39 35 33 55 72 82 88 88 80 98 66 97 60 80 58 60 57 64 51 50 49 53 61 50 59 90 95 100 69 49 51 52 48 46 54 59 47 39
98 100 94 72 72 58 35 35 41 38 34 43 57 70 86 92 95 90 76 99 70 74 70 59 61 70 53 54 55 55 49 46 38 48 72 97 97 65 62 52 59 56 67 39 58 47 49
100 99 93 75 73 56 36 37 40 34 35 48 60 88 91 85 90 98 72 79 63 52 52 58 59 49 47 57 65 59 50 35 37 41 47 78 98 75 73 64 61 75 46 71 75 69 53
96 97 96 77 74 53 35 39 40 31 35 54 66 78 68 77 82 73 96 62 55 54 58 58 49 49 46 46 52 62 50 40 35 41 39 43 69 86 92 91 59 68 70 61 52 40 49
92 100 100 82 75 52 36 40 39 31 42 59 77 64 65 75 72 60 62 52 63 53 59 58 57 51 47 42 46 57 54 47 44 42 59 47 65 99 84 68 58 54 53 50 65 59 51
99 100 100 84 76 50 38 41 38 30 45 60 62 73 58 62 66 58 45 45 57 56 53 52 52 47 40 46 49 40 45 36 52 57 52 52 85 86 94 86 73 88 76 64 50 49 97
99 99 100 87 77 49 39 40 36 28 42 43 54 58 62 69 54 35 34 35 39 59 58 52 49 47 46 44 39 45 44 50 57 62 77 71 72 66 67 67 52 76 61 56 68 100 64
98 100 100 91 72 48 41 40 32 27 29 39 39 37 51 54 37 36 41 40 36 41 53 56 46 48 50 52 35 32 36 40 47 63 84 96 100 82 59 53 52 63 59 55 80 73 80
97 100 100 92 68 47 42 41 30 22 27 34 36 36 36 38 43 36 46 35 42 37 49 28 46 38 42 40 32 42 58 79 88 77 88 94 100 99 100 94 59 66 55 54 54 55 62
100 99 100 96 69 47 43 40 28 17 21 20 15 16 26 43 33 28 19 29 36 45 31 38 42 43 38 38 53 50 48 55 96 99 100 100 100 100 95 96 100 98 72 59 54 48 49
100 100 100 89 66 47 44 38 22 13 12 12 8 14 23 20 25 23 35 41 38 38 42 36 42 44 50 60 54 48 48 49 48 68 86 100 99 97 93 92 92 41 42 44 47 43 40
100 100 99 88 62 48 44 35 12 8 8 10 8 8 21 16 20 29 36 38 40 44 50 50 51 59 59 56 57 62 74 79 61 48 68 96 98 99 86 70 41 37 44 46 48 41 34
100 100 90 87 55 50 44 26 8 8 8 11 9 8 9 18 23 33 35 42 34 35 41 54 58 62 66 58 66 81 52 57 76 96 99 93 100 100 96 91 59 39 41 38 37 46 37
100 98 97 78 64 51 45 16 9 10 10 11 9 9 10 27 46 43 34 40 53 52 50 57 59 57 68 68 76 72 67 56 69 85 93 98 98 97 78 69 50 34 44 45 49 46 51
100 100 96 76 54 54 38 14 10 10 9 10 11 10 13 42 64 42 49 60 67 60 54 61 63 71 58 71 72 68 64 60 68 56 74 79 86 94 85 86 67 39 50 48 40 48 47
100 100 91 69 57 53 32 14 10 9 11 12 12 13 14 36 73 51 62 60 77 74 67 72 67 60 64 63 67 66 60 60 64 57 57 72 73 90 56 51 45 45 37 43 39 40 46

GFSGBSN_850_rhum_090.txt.gz
RH
89 82 73 54 42 25 27 30 39 40 32 34 62 96 98 95 59 87 58 53 39 41 40 39 38 51 63 58 67 75 76 86 77 85 94 78 70 52 48 59 77 78 70 60 64 59 58
100 91 79 66 53 35 24 29 34 40 42 36 36 64 91 93 43 49 52 42 44 55 38 39 40 62 67 57 69 74 78 88 90 94 90 83 74 60 45 43 72 71 71 79 71 57 52
100 100 93 74 63 46 25 28 32 36 41 43 26 24 60 79 43 42 44 43 59 68 45 49 37 62 58 61 71 72 78 78 79 85 86 80 78 66 56 38 50 68 77 76 86 64 49
96 100 98 91 73 58 34 25 30 34 39 40 39 16 48 63 45 40 40 46 53 63 45 44 55 76 54 61 68 74 81 71 83 93 86 70 66 66 60 43 44 65 80 87 69 54 57
90 95 100 100 88 68 44 24 30 33 37 37 32 17 49 54 46 40 40 46 64 67 42 60 62 64 55 62 67 80 81 76 91 73 70 60 57 71 56 55 58 52 76 85 77 73 56
87 92 98 100 91 73 54 26 29 32 36 34 28 20 48 54 47 42 42 44 54 65 60 69 60 58 59 63 71 78 78 76 84 74 60 65 81 77 62 69 83 62 50 47 62 68 57
87 94 95 100 93 77 63 32 27 32 37 34 28 23 48 53 49 45 45 56 69 63 67 62 65 56 64 70 74 78 76 72 74 76 83 86 95 83 57 50 35 38 42 40 41 52 63
95 87 95 98 97 79 70 39 26 33 39 37 28 25 49 56 51 49 54 64 62 70 65 61 61 64 70 74 69 72 74 62 64 83 80 89 84 50 40 39 39 47 40 40 50 51 61
77 89 97 95 99 81 74 44 26 33 41 40 31 30 51 60 57 60 76 64 56 66 73 62 67 59 69 72 73 76 70 61 51 62 68 83 78 53 48 44 49 50 50 49 52 44 41
74 84 100 94 99 86 74 49 26 34 43 40 32 38 54 64 85 76 81 56 48 66 91 59 52 66 67 67 67 76 78 71 51 59 64 69 58 58 55 54 45 56 37 54 56 52 66
99 66 94 96 99 89 75 52 28 34 44 40 31 49 63 72 87 88 86 59 49 70 89 57 59 55 68 58 63 70 63 70 54 54 62 75 71 64 62 46 40 49 40 51 56 52 55
100 70 80 100 86 96 75 55 30 35 45 37 29 55 70 81 95 88 71 62 61 94 83 75 55 56 54 52 52 64 65 71 62 49 57 69 69 67 54 47 39 45 50 44 47 56 96
100 90 68 99 100 98 74 56 31 36 43 36 40 66 76 94 91 68 64 80 96 93 65 74 57 51 51 51 52 55 62 66 73 91 96 76 74 55 61 68 57 56 63 90 93 91 91
99 100 77 88 100 98 76 58 32 38 42 36 55 70 78 98 70 67 82 80 94 57 88 60 56 52 65 47 49 51 53 58 60 61 79 93 93 77 58 69 66 63 63 82 73 75 60
98 100 92 84 100 93 79 59 32 38 40 41 64 70 87 88 73 84 93 97 80 83 76 57 51 64 61 49 53 51 53 55 48 52 78 83 76 60 57 50 52 65 75 51 90 61 70
99 99 96 77 100 92 80 59 33 38 38 47 64 95 98 87 76 96 90 82 63 48 48 53 60 49 50 55 66 58 54 41 44 37 45 80 96 76 67 63 62 78 60 76 92 90 62
98 100 99 76 100 99 80 58 33 38 37 63 75 92 90 79 86 94 93 70 50 50 52 55 53 47 43 44 61 61 56 41 36 37 44 75 92 95 86 88 78 87 97 90 64 62 74
98 100 100 76 100 97 80 58 34 39 39 65 87 87 84 76 99 75 93 55 51 46 52 55 53 57 55 46 47 45 58 43 47 50 58 52 95 92 88 77 61 56 69 81 97 74 67
97 98 100 89 100 100 82 56 36 38 34 58 85 89 77 92 98 90 47 40 49 51 51 53 53 47 42 48 53 39 40 41 51 70 80 63 99 98 99 95 78 92 73 61 68 80 87
100 100 100 99 97 98 82 52 38 35 36 55 60 82 74 79 60 48 38 34 39 51 53 47 46 45 49 48 39 45 41 44 51 54 67 85 89 70 68 75 75 95 77 64 78 98 78
99 100 100 99 89 99 82 48 39 35 43 59 55 54 51 82 52 42 39 35 31 38 50 46 50 47 41 55 45 39 32 32 47 83 62 93 99 98 66 55 74 88 71 71 91 89 82
96 100 99 100 91 99 81 42 41 36 44 66 44 42 31 39 36 36 50 38 35 32 47 31 40 33 41 47 39 48 49 52 57 86 98 99 99 100 98 89 97 92 70 61 64 68 75
93 95 100 100 99 99 81 40 43 33 34 55 37 33 24 38 36 33 34 29 34 41 32 34 40 42 43 46 56 52 50 49 75 89 86 95 98 98 98 98 100 99 92 66 59 55 59
100 95 91 100 100 99 68 41 43 26 25 26 15 13 22 40 35 32 32 35 36 40 43 34 39 44 54 55 52 50 49 48 48 69 76 89 85 93 99 98 97 56 48 55 55 51 50
93 94 100 100 100 96 54 42 41 27 22 26 16 12 18 32 26 25 34 35 36 40 48 47 49 57 53 58 64 68 69 78 70 53 84 77 82 97 98 95 56 45 50 55 64 62 48
93 96 100 100 100 96 48 44 40 22 19 23 15 13 15 28 31 28 35 37 40 36 51 53 56 60 67 66 70 84 78 71 90 95 100 84 81 99 98 97 89 50 42 36 38 63 46
98 99 99 100 100 81 62 46 41 27 16 21 19 12 12 36 43 34 37 46 48 50 53 56 57 58 66 71 85 84 70 57 82 91 80 98 98 94 95 95 65 48 44 42 56 70 54
97 98 100 100 99 69 50 49 34 22 13 25 19 12 13 39 51 49 47 50 56 54 58 67 71 75 68 76 71 66 64 67 74 56 67 83 93 93 89 96 90 48 50 49 53 47 47
98 100 100 100 94 71 56 50 22 22 17 24 15 11 15 20 58 62 53 47 54 65 63 69 67 59 71 83 90 88 87 85 72 86 61 76 87 93 97 78 50 46 46 43 43 42 47

GFSGBSN_850_rhum_093.txt.gz
RH
97 98 100 92 78 65 49 29 28 32 40 38 40 19 39 80 72 41 52 46 58 63 38 31 36 65 64 65 70 72 72 81 77 78 93 86 94 82 80 74 79 86 70 74 88 73 66
100 100 100 100 97 79 64 42 25 30 36 39 42 27 27 52 53 38 38 42 56 58 34 38 39 58 63 68 71 72 77 82 78 80 86 76 85 79 76 75 73 82 79 77 80 79 81
96 100 100 100 100 98 78 58 28 29 33 38 38 36 23 49 48 36 37 46 58 42 42 43 59 68 66 64 68 74 82 76 82 82 85 95 77 82 64 80 60 70 84 76 66 84 80
91 93 100 100 100 100 91 70 39 26 31 37 35 30 26 49 46 36 38 60 64 39 51 57 61 65 59 64 64 68 77 83 77 82 78 72 63 67 62 57 68 82 76 85 76 80 72
92 92 98 97 100 100 98 73 51 26 30 36 33 28 28 50 46 38 39 56 60 61 54 58 62 62 60 63 64 71 81 88 70 69 63 58 48 62 57 63 79 69 95 88 80 81 81
99 92 92 98 100 100 99 78 61 30 30 36 36 28 31 50 48 40 41 44 63 57 54 62 62 58 60 67 75 70 76 78 63 58 52 55 66 82 74 78 87 74 78 85 83 78 76
93 100 93 90 95 100 100 86 69 37 29 37 39 30 34 52 48 43 44 58 69 61 59 64 62 60 66 70 70 70 75 70 64 66 89 87 84 83 73 63 53 51 51 54 61 68 71
94 92 99 92 82 99 100 88 74 43 29 37 41 31 44 55 49 48 57 66 74 67 66 58 60 64 71 68 68 63 67 69 69 94 80 84 82 67 60 54 52 48 48 53 68 64 71
96 95 99 100 81 89 100 93 78 46 29 36 41 30 52 58 56 58 62 60 62 69 76 66 60 58 63 70 71 67 70 64 67 83 78 80 80 68 61 60 52 51 56 53 71 63 68
88 96 99 97 98 84 99 98 80 49 30 36 40 31 57 61 77 74 74 48 58 70 87 66 63 59 66 66 68 68 71 73 54 78 79 75 64 67 69 61 52 63 49 55 61 71 84
82 89 100 99 100 83 96 100 85 52 30 37 38 37 62 68 81 85 78 56 47 67 72 53 64 55 62 64 62 66 57 66 63 64 67 74 77 73 70 58 45 54 52 59 68 59 64
78 89 100 97 99 88 88 100 92 55 30 38 37 47 70 76 80 81 68 52 64 84 67 77 62 65 65 56 58 66 68 66 63 57 61 72 67 71 64 58 51 48 54 56 56 67 91
78 84 94 99 99 98 96 100 93 55 31 39 34 56 78 82 92 69 61 77 90 73 63 72 66 58 56 61 64 65 72 73 82 78 79 82 75 71 60 66 62 55 69 95 94 95 88
84 82 70 93 99 100 98 100 94 50 32 39 36 69 84 84 75 65 86 87 67 66 86 60 59 59 68 56 59 66 64 74 68 75 93 93 74 81 66 72 72 73 75 88 81 95 73
86 75 77 86 98 100 99 100 85 44 34 39 51 78 85 77 67 73 92 94 68 80 78 71 62 72 70 61 56 59 66 67 52 62 83 95 83 68 62 59 60 68 81 57 86 78 84
86 78 83 73 100 100 100 100 86 47 36 36 56 82 81 81 72 93 93 85 65 63 55 56 70 65 64 64 70 72 62 52 56 49 54 72 93 77 68 61 69 72 65 76 97 94 78
87 84 72 63 100 99 100 100 88 44 38 43 74 99 99 85 88 97 91 94 58 50 50 61 64 62 51 51 72 67 59 51 44 58 53 75 92 94 80 90 86 91 93 84 76 74 74
95 96 77 90 99 99 99 100 86 39 41 59 84 98 100 84 98 96 98 63 51 53 53 59 57 64 67 62 57 52 69 56 53 66 89 79 98 99 98 79 64 65 83 80 92 84 78
93 98 85 99 100 100 100 100 82 34 37 60 88 100 99 99 98 95 58 44 54 56 61 64 66 60 50 53 60 50 44 54 52 70 83 85 99 99 99 98 87 98 84 86 88 91 91
98 96 94 98 94 100 100 98 73 35 36 50 76 97 91 100 93 62 55 45 53 50 55 54 52 50 56 59 53 55 45 49 44 76 62 81 100 99 93 95 84 99 79 76 95 99 85
100 97 98 99 93 100 100 100 74 36 37 54 67 71 56 95 86 53 34 35 41 57 57 47 56 58 49 59 59 55 47 48 59 83 90 92 99 100 96 81 94 96 83 86 99 86 81
99 96 99 97 99 100 100 100 69 37 39 66 54 52 55 47 50 52 50 38 41 40 46 40 56 46 44 49 46 59 62 59 64 82 91 98 96 99 98 87 97 85 80 81 81 85 84
98 98 100 99 96 100 100 100 74 39 38 68 50 40 26 46 45 46 50 35 45 38 36 39 43 46 49 57 60 58 56 54 67 83 79 90 98 94 93 99 99 99 94 82 66 68 76
84 99 98 99 95 100 100 100 77 39 34 44 45 32 30 43 45 39 38 36 51 42 41 43 42 45 56 54 46 52 55 56 57 82 69 91 92 97 95 99 96 60 53 62 66 54 57
80 92 94 93 95 100 100 100 69 40 38 41 26 20 20 44 35 37 44 42 41 44 45 47 56 56 56 53 72 77 87 77 77 56 92 79 87 97 100 97 77 47 44 68 74 68 55
61 68 89 93 84 97 100 89 64 42 36 35 19 25 21 31 34 30 40 38 51 57 62 58 57 52 68 76 79 89 91 81 92 100 93 85 84 88 95 96 85 54 42 38 40 60 56
69 81 100 91 98 100 100 100 55 43 35 32 28 22 25 35 41 34 44 46 45 54 72 61 60 60 66 82 94 95 82 62 81 96 94 98 97 89 88 96 80 50 42 41 51 53 57
90 82 99 91 86 100 100 97 42 47 33 29 31 21 26 40 52 46 48 47 54 49 75 67 72 75 78 84 91 92 79 79 80 71 82 84 96 96 88 99 94 51 47 50 56 50 50
88 98 99 98 81 98 100 64 50 48 35 34 32 25 26 27 65 55 55 51 46 52 60 68 66 68 79 91 95 95 93 93 80 92 66 79 89 91 99 90 80 79 68 64 56 51 50

GFSGBSN_850_rhum_099.txt.gz
RH
98 95 96 97 95 98 98 100 100 99 70 33 33 35 32 22 41 41 37 45 47 36 36 41 57 56 58 64 67 66 76 82 90 95 82 78 88 88 88 84 91 94 89 88 89 78 79
96 97 99 98 99 96 99 96 100 99 92 47 31 37 31 23 42 38 39 47 38 37 44 55 58 54 60 71 65 77 72 77 87 85 68 66 74 87 95 90 84 89 96 84 86 84 86
98 99 99 100 99 99 100 98 98 100 100 75 30 37 36 25 43 37 42 50 38 37 54 62 61 57 58 63 68 86 75 86 93 89 71 54 67 78 83 90 80 91 92 78 82 84 82
98 94 100 100 99 100 100 100 96 97 100 88 34 34 38 27 44 38 44 48 42 46 59 63 62 58 52 56 75 80 76 81 94 92 85 78 67 72 77 83 84 90 91 98 82 81 76
100 99 90 93 99 99 98 100 100 96 97 99 46 32 40 28 46 41 40 47 52 51 58 61 58 59 60 60 67 74 73 73 74 83 72 62 72 70 68 82 89 82 98 100 88 85 81
96 96 94 83 82 97 97 99 100 100 98 99 73 30 42 30 49 43 38 45 54 57 55 59 58 52 62 65 68 70 65 65 61 60 56 60 61 72 77 73 88 97 93 91 93 87 87
100 100 99 65 66 86 97 89 100 100 100 97 88 31 44 32 52 44 40 41 51 52 57 60 62 61 65 63 67 67 63 62 63 53 78 68 80 82 83 77 67 70 78 79 78 79 86
92 96 94 95 74 97 100 96 77 99 100 99 98 39 45 34 53 46 44 54 63 59 62 60 57 64 68 64 62 62 65 63 70 73 74 68 73 80 76 64 61 60 74 70 68 75 75
95 95 93 92 92 82 98 98 62 77 94 100 99 34 46 40 55 51 49 55 61 70 70 65 61 54 63 63 62 61 65 66 73 80 75 66 70 71 66 62 60 60 63 67 71 79 74
96 93 94 92 91 80 78 98 66 89 91 100 99 47 48 56 56 58 55 57 63 73 82 56 71 55 60 66 58 60 64 67 58 78 75 74 68 70 67 65 57 64 54 54 84 86 94
94 96 93 96 94 95 50 88 54 90 100 100 99 61 50 69 71 67 65 57 58 60 62 44 71 59 66 66 61 65 58 70 70 72 64 63 76 77 71 64 59 59 57 62 82 72 73
93 99 98 98 95 93 78 86 40 61 100 100 100 66 56 73 78 73 74 52 52 82 47 77 73 80 75 66 61 67 68 64 68 63 68 69 68 76 70 63 61 51 69 83 90 84 95
95 92 93 97 99 96 87 85 24 35 97 100 100 70 63 79 76 74 69 49 88 84 63 73 82 78 71 69 65 69 72 74 76 84 87 78 72 69 70 71 59 69 83 98 98 98 92
86 82 83 96 99 97 90 86 28 36 99 99 99 68 79 87 85 70 54 80 94 47 81 56 67 67 72 69 66 71 72 86 74 67 94 96 74 79 71 69 70 82 92 93 89 95 94
84 84 86 94 99 100 92 86 55 38 99 99 94 63 100 95 88 67 69 97 75 63 71 77 73 77 74 68 62 73 80 75 67 75 81 97 83 63 71 68 64 80 93 81 98 81 90
90 96 93 99 98 97 93 86 75 71 96 98 98 92 100 94 83 82 89 93 69 62 65 65 64 72 77 74 73 78 72 63 61 66 57 70 96 72 69 73 80 73 72 91 98 96 92
98 91 99 92 93 86 84 80 74 90 98 98 100 97 100 89 85 84 98 89 67 58 56 64 72 77 68 68 75 80 70 56 57 62 60 66 89 79 94 94 87 90 89 78 78 86 91
96 99 98 98 90 87 74 71 85 96 99 99 99 98 100 93 94 92 99 90 57 60 58 62 63 64 67 64 66 81 73 72 66 62 71 67 85 90 87 88 91 86 78 75 87 90 80
98 100 96 86 98 84 66 76 91 90 99 96 98 99 100 100 98 98 90 66 58 64 63 66 68 64 63 64 62 61 63 58 53 71 76 70 96 97 88 95 90 99 87 76 77 82 89
90 90 92 96 82 77 84 90 95 93 99 95 98 98 100 100 100 94 75 55 56 58 66 65 62 59 60 63 58 60 53 60 66 83 86 75 91 92 92 91 98 100 100 82 83 98 84
79 81 89 83 92 82 92 91 92 100 100 96 93 91 96 97 95 94 64 58 63 66 55 59 60 56 62 67 60 64 51 50 67 82 89 82 79 83 87 87 90 96 98 100 99 82 83
84 98 89 93 100 100 99 91 96 100 100 100 83 73 97 88 81 93 66 52 57 61 64 59 54 48 50 60 54 58 56 57 58 71 83 89 90 96 96 70 86 92 80 91 99 98 92
90 92 100 100 99 97 99 100 98 93 99 98 81 57 46 65 82 77 59 38 47 52 46 45 55 50 46 44 52 57 54 57 72 78 78 93 97 93 84 73 92 89 82 74 77 87 94
89 80 92 96 93 100 100 99 91 99 94 93 60 46 39 57 58 48 51 46 52 36 53 46 41 41 51 52 52 58 60 64 64 64 74 87 93 95 97 93 88 58 57 68 72 75 81
92 86 91 93 59 97 100 100 100 95 95 83 58 34 28 55 44 45 48 62 48 50 54 55 56 52 52 54 74 79 87 78 80 92 79 81 90 96 96 93 76 54 60 70 86 73 64
91 83 94 94 61 94 96 100 98 87 95 70 57 37 31 42 42 40 48 45 55 67 65 64 58 53 62 79 76 89 90 85 92 95 92 86 80 84 89 98 95 75 81 68 57 69 69
95 90 81 90 67 92 96 100 95 100 90 87 53 44 30 51 64 41 45 42 48 62 77 66 60 68 68 84 95 96 86 70 94 94 91 82 85 94 96 98 82 92 89 67 63 67 83
91 80 73 85 71 93 99 100 94 100 96 76 46 41 29 54 71 54 47 46 49 49 66 67 64 71 84 86 89 93 87 81 83 75 88 93 91 86 90 100 93 89 74 74 87 87 89
83 75 66 79 66 94 99 92 100 100 85 41 35 32 28 38 81 63 60 50 49 53 49 66 57 74 68 89 97 96 94 97 84 85 63 90 81 86 85 76 83 87 79 85 93 87 87

GFSGBSN_850_rhum_102.txt.gz
RH
89 94 94 96 98 99 99 100 100 96 94 100 98 56 30 33 28 48 40 41 35 34 33 39 58 60 62 61 66 75 69 72 81 82 81 96 85 93 92 87 90 89 87 90 99 92 77
98 91 87 93 96 96 98 96 99 100 94 97 100 82 30 35 27 49 38 43 32 33 44 57 61 59 65 65 66 78 70 76 81 89 85 82 88 93 82 84 76 92 89 88 95 89 84
99 100 98 98 91 93 98 92 100 100 100 97 99 95 34 37 28 48 39 43 37 35 44 59 64 62 63 61 71 78 81 88 88 82 92 84 87 87 85 84 80 88 85 86 89 83 81
100 97 95 93 98 99 100 75 76 100 100 100 100 100 55 36 32 48 40 43 45 41 53 60 63 62 56 61 71 74 71 79 86 80 80 79 74 79 84 86 87 86 92 100 84 83 77
100 100 99 98 95 97 99 98 96 96 100 100 100 100 90 37 36 46 41 46 52 46 52 59 59 63 55 60 67 67 66 65 74 76 68 62 72 73 79 86 93 87 99 100 94 82 78
100 98 98 99 99 94 95 93 98 85 93 99 100 100 94 52 38 47 44 43 53 54 50 56 59 58 55 61 68 66 66 65 58 56 54 61 58 77 77 77 92 96 96 94 97 86 74
96 98 99 93 91 94 95 90 95 97 99 92 99 100 99 70 40 51 46 42 43 49 51 61 65 62 61 62 65 63 64 62 56 54 74 65 83 86 84 79 69 76 84 88 86 85 81
97 97 97 98 99 97 94 89 85 79 73 100 98 100 100 63 41 56 51 51 56 50 59 54 57 64 68 65 66 61 62 61 66 74 65 68 85 76 79 74 62 72 82 83 85 85 80
100 92 97 99 100 100 98 98 86 25 31 97 100 100 100 78 48 60 59 59 59 60 71 62 61 57 61 64 64 60 64 64 75 78 78 67 68 70 65 61 61 61 70 70 83 88 78
97 98 99 100 94 98 98 98 82 40 21 79 98 100 99 81 59 63 69 60 64 68 83 54 73 60 60 66 57 61 64 72 64 78 78 75 70 70 66 66 60 65 56 58 88 86 91
94 89 90 95 96 96 98 99 95 54 16 62 100 100 99 87 73 77 70 62 63 58 84 45 73 62 69 66 62 63 62 66 72 75 67 65 81 78 73 63 59 63 63 68 85 81 85
86 88 84 87 91 86 89 94 97 52 20 24 74 100 100 96 69 76 77 58 58 82 78 76 78 80 76 69 62 68 67 65 72 66 69 70 69 78 70 65 63 60 76 84 90 83 98
90 88 88 84 86 84 88 92 86 53 28 30 76 100 99 86 75 83 74 59 85 94 65 81 90 86 75 72 67 70 71 77 74 78 87 78 69 67 73 75 61 70 74 96 98 99 93
96 99 99 95 84 83 91 93 80 51 81 59 88 100 99 81 93 86 60 79 95 56 77 56 74 77 78 71 68 74 75 84 74 68 97 96 73 70 68 72 71 82 77 89 88 97 94
94 95 93 86 89 91 91 94 77 50 87 91 100 100 91 83 98 88 79 96 78 65 67 80 72 78 80 71 64 74 79 76 69 77 78 96 82 60 68 70 68 85 97 74 90 80 92
90 89 86 94 91 84 89 96 77 52 90 91 100 99 96 81 98 85 93 85 72 56 68 68 58 69 78 79 76 80 74 66 65 73 59 69 94 69 76 75 81 77 75 96 99 97 95
92 86 87 92 97 97 94 96 70 75 91 84 100 98 93 99 92 98 97 88 68 61 59 64 65 84 68 78 78 82 70 64 69 63 66 70 86 74 84 93 89 95 100 91 87 84 92
88 81 78 95 100 96 97 88 72 72 95 100 100 99 99 98 97 91 100 85 63 64 61 63 64 64 73 69 79 81 77 69 60 69 73 67 85 88 72 76 91 80 97 96 92 97 83
87 82 77 88 74 83 82 71 72 74 97 100 98 98 100 96 98 97 90 90 70 65 64 65 67 62 62 65 61 73 68 64 61 72 86 79 96 96 75 82 87 100 98 93 100 86 92
92 78 76 78 82 83 80 76 71 80 84 100 99 100 100 100 100 91 93 74 65 62 67 64 65 64 63 64 60 65 64 67 67 87 83 74 89 82 89 79 90 98 88 93 100 98 94
93 81 80 92 86 90 85 81 80 74 82 100 99 96 92 98 96 93 86 60 65 68 60 61 63 64 68 74 62 70 51 49 68 78 84 86 86 84 73 80 89 92 87 85 99 97 96
96 84 83 91 98 100 100 98 99 95 82 100 98 92 98 92 86 92 90 70 63 69 63 64 57 58 56 63 54 62 58 53 55 67 83 85 91 92 88 80 84 85 82 83 88 94 98
91 88 83 68 86 100 99 100 96 87 86 100 99 74 75 87 93 90 88 60 56 56 47 51 58 52 49 47 52 53 53 60 76 74 79 95 92 96 92 71 84 92 84 80 76 86 84
92 87 97 71 84 98 96 98 98 100 98 100 93 63 58 82 82 71 56 47 54 37 53 48 43 41 54 53 56 58 60 64 64 76 73 92 92 90 97 92 87 63 61 66 75 72 71
91 85 96 71 88 86 76 99 100 79 98 99 82 66 38 63 53 46 53 63 52 53 59 58 56 52 52 57 76 83 88 80 90 84 85 81 92 95 92 91 75 63 78 68 92 100 78
89 89 85 68 62 77 82 98 99 76 100 95 87 61 36 48 47 49 56 48 54 69 68 65 60 56 57 76 73 89 94 88 85 90 90 88 89 91 92 96 95 82 85 82 75 95 85
94 93 83 82 39 69 74 100 100 85 86 90 80 51 34 50 63 48 47 45 45 60 75 68 63 70 69 84 95 94 84 75 95 96 88 82 90 92 98 100 77 72 86 74 79 71 90
97 95 84 83 45 63 75 100 100 100 94 94 63 48 34 52 73 58 53 45 49 51 68 68 66 76 80 85 91 94 88 84 83 79 86 88 88 80 90 94 90 84 74 68 83 86 90
98 98 88 80 55 59 72 99 100 98 100 94 72 44 36 37 81 69 73 56 46 44 51 68 50 72 64 86 96 96 95 98 84 89 73 94 82 88 85 80 70 82 79 84 95 99 96

GFSGBSN_850_rhum_105.txt.gz
RH
98 100 96 95 86 75 70 76 84 90 97 99 100 100 100 70 36 32 41 39 42 39 33 38 51 57 65 65 62 64 74 80 77 84 95 92 74 83 88 80 86 83 83 79 84 94 99
100 99 98 94 94 94 95 64 34 58 85 99 96 100 99 94 51 38 38 40 41 43 35 49 54 60 67 71 67 70 77 86 93 86 87 88 91 93 85 82 80 84 82 81 80 88 93
98 98 98 98 98 97 90 94 90 87 75 85 96 99 100 100 57 42 32 41 41 46 41 52 58 62 65 60 68 73 72 83 85 70 77 76 86 99 75 87 87 81 76 80 85 91 86
98 98 98 100 100 99 98 93 99 89 76 86 91 98 100 100 68 51 37 42 45 53 50 53 58 62 56 60 68 64 64 72 78 75 78 74 83 91 85 80 85 84 83 98 79 87 80
98 98 98 99 100 98 94 99 89 80 74 64 100 98 100 99 90 68 43 45 47 58 58 56 55 60 54 55 63 63 64 64 67 64 62 69 79 82 90 91 92 79 91 99 84 85 90
90 89 89 89 88 94 95 93 96 40 32 18 99 99 100 99 95 77 45 49 46 56 58 60 58 63 50 61 67 65 60 61 60 52 52 61 64 81 71 76 82 93 94 89 91 87 86
88 89 89 92 91 91 89 98 98 43 23 18 94 97 98 100 99 67 49 50 44 50 61 47 50 62 57 64 64 62 61 59 60 56 67 59 79 87 82 81 73 76 81 88 86 81 91
93 87 93 89 84 87 94 99 99 82 32 23 64 85 92 100 92 74 56 51 60 70 66 53 52 56 62 67 65 63 64 66 64 65 63 70 86 74 77 79 66 77 84 88 84 83 80
98 98 94 86 87 87 88 92 95 80 46 36 46 85 91 100 96 79 71 53 59 70 77 61 59 53 57 64 64 59 65 64 70 74 74 67 65 71 64 62 64 69 77 84 77 83 83
100 97 86 86 85 86 83 87 86 74 55 41 34 90 100 100 94 70 62 64 66 79 86 59 74 63 58 65 57 61 65 69 68 78 78 72 70 72 68 67 61 66 57 60 86 90 93
97 93 93 93 86 83 83 87 87 76 66 56 32 58 100 99 96 78 71 70 69 71 80 55 74 64 69 65 63 66 66 65 76 78 65 67 79 77 76 63 60 62 65 77 83 79 85
93 96 95 92 92 90 83 81 84 79 70 60 24 49 96 100 98 82 76 65 65 83 76 76 79 78 77 71 63 64 63 63 72 67 68 70 70 78 71 70 64 69 77 82 86 81 94
90 90 92 90 85 91 83 81 84 80 69 69 24 69 100 100 89 73 76 61 89 96 61 76 90 87 75 73 68 68 73 73 71 70 80 72 68 68 74 78 64 69 77 95 97 97 89
91 96 96 91 86 85 86 84 94 84 76 62 56 66 99 99 84 83 67 82 97 77 69 58 79 80 76 70 72 76 74 80 74 71 93 94 67 64 75 73 74 86 82 86 91 94 87
95 98 97 91 90 96 99 92 92 94 90 49 99 100 100 94 92 86 68 98 87 84 62 79 71 77 80 72 67 74 78 76 68 73 72 92 80 60 68 73 74 84 99 74 86 82 82
100 100 97 85 84 80 83 98 97 97 95 53 98 99 99 100 98 92 92 86 86 60 68 70 60 70 80 81 74 79 75 65 68 72 60 70 96 75 79 75 88 85 83 99 98 96 94
97 100 91 86 72 72 93 96 98 100 78 82 98 98 98 100 100 78 99 89 78 59 64 67 61 79 66 82 75 83 71 71 70 69 70 71 87 74 69 86 91 95 98 94 95 82 83
100 99 88 76 66 68 94 99 98 96 68 90 99 100 98 100 96 91 100 86 70 66 64 63 61 66 70 77 81 80 78 69 65 76 73 71 80 89 75 87 90 83 100 100 95 97 77
99 97 90 74 71 70 75 89 90 78 74 97 98 98 99 100 98 98 92 86 80 67 65 64 66 62 62 67 62 73 71 67 68 84 92 80 92 92 71 75 69 86 88 93 99 96 92
92 94 93 83 96 95 82 75 81 71 69 97 99 100 100 100 96 88 89 84 79 62 63 62 66 63 63 65 67 69 70 70 68 88 80 72 89 80 82 67 90 91 82 81 96 99 96
96 99 94 86 85 99 100 93 87 80 65 97 100 99 98 99 99 92 84 79 65 70 63 65 65 64 66 73 65 71 53 53 66 72 80 80 91 93 83 78 80 76 87 90 95 89 99
96 100 93 84 69 93 98 91 94 77 68 100 100 99 96 94 91 89 90 89 68 65 69 72 60 67 56 57 45 67 59 51 50 63 84 89 84 97 90 69 81 89 78 76 86 77 84
98 99 89 87 75 67 97 98 98 98 86 99 73 94 90 92 91 92 86 83 59 59 50 53 59 54 57 52 51 54 53 62 76 72 84 92 94 96 90 77 85 86 73 80 79 81 83
98 98 93 88 84 68 98 97 100 100 98 88 67 88 69 90 89 85 67 76 55 45 51 53 43 44 60 54 55 58 60 71 78 89 74 92 95 82 93 87 85 87 68 72 87 95 91
97 98 97 96 86 80 64 78 85 98 97 100 98 88 47 72 80 62 58 62 55 56 63 62 59 54 52 60 81 85 88 80 91 80 87 82 91 94 91 87 74 74 82 81 88 98 97
90 99 97 93 92 85 58 72 96 100 86 96 97 100 54 50 61 56 55 50 52 67 65 67 64 60 59 72 72 90 93 89 83 88 88 88 89 89 92 99 88 68 76 84 82 95 96
77 86 90 87 86 84 52 61 100 94 86 75 99 89 66 45 66 54 52 51 45 56 73 68 64 69 69 83 94 92 78 78 95 93 83 82 82 94 97 98 73 60 79 78 87 78 91
81 76 83 82 82 76 51 75 100 100 84 94 88 82 64 53 73 64 54 46 48 50 67 68 65 74 80 82 89 95 88 87 86 81 84 86 93 93 85 92 81 78 71 71 74 86 87
80 78 79 84 82 75 53 73 98 100 100 100 92 79 48 45 75 72 66 55 46 43 46 65 48 70 62 83 94 96 94 98 83 88 79 92 78 85 80 74 57 84 75 80 93 90 87

GFSGBSN_850_rhum_108.txt.gz
RH
97 98 98 99 96 98 98 96 88 67 74 69 88 100 96 99 100 92 57 35 47 40 34 39 57 54 56 66 60 71 79 82 82 85 88 85 82 77 61 59 72 62 69 79 82 89 80
90 92 95 97 100 100 99 98 93 91 82 92 92 100 100 99 99 98 48 40 45 45 38 36 57 57 62 58 60 70 76 83 82 77 84 89 92 92 68 65 62 70 68 69 73 78 78
96 95 89 92 94 98 99 99 99 84 79 83 73 99 98 100 100 98 73 38 44 47 45 41 58 62 66 51 61 71 72 76 68 69 78 84 90 93 71 72 72 70 70 62 71 70 75
84 82 83 84 85 85 85 83 92 94 80 58 23 100 98 100 100 98 88 48 43 50 55 49 57 67 59 49 60 65 65 69 76 82 73 78 90 95 78 69 68 60 62 84 71 70 75
82 86 85 83 82 79 80 84 76 67 82 74 25 61 96 100 100 97 91 52 46 51 60 58 55 65 50 48 57 62 62 65 64 70 73 72 86 85 75 70 65 62 65 87 55 79 81
86 86 92 87 95 95 90 84 83 58 50 58 44 63 94 94 99 98 93 62 46 48 55 58 64 70 48 56 59 57 62 63 63 59 68 77 75 82 70 69 60 60 62 47 52 70 74
81 82 86 83 88 89 88 88 92 72 63 51 36 30 72 82 89 99 84 51 50 54 55 54 49 54 49 54 60 59 63 58 58 56 61 58 73 74 65 59 59 56 53 34 64 64 79
88 94 93 99 85 83 85 88 88 79 69 67 51 32 82 85 96 100 97 53 56 64 68 54 52 55 56 61 64 60 63 61 54 52 51 58 63 57 64 59 59 58 57 64 64 66 82
92 93 96 98 99 98 84 82 83 81 74 71 68 38 99 96 99 99 74 65 58 63 78 66 63 58 60 61 61 60 66 66 56 53 58 62 55 60 60 53 55 61 56 63 60 70 76
98 99 99 99 99 99 94 84 81 82 75 73 78 52 86 100 98 88 64 63 64 73 91 62 67 68 65 68 55 60 63 71 58 60 61 54 56 61 57 54 50 53 49 55 67 72 82
95 100 100 100 96 87 84 82 78 77 69 74 88 69 36 94 100 91 75 67 67 68 69 61 68 63 70 62 61 66 67 70 56 60 60 58 64 61 60 54 54 53 58 53 61 64 63
96 98 97 98 95 85 80 84 83 77 71 77 87 77 56 84 99 92 75 66 67 88 79 73 72 64 64 63 57 64 65 66 68 61 58 60 60 66 59 61 59 60 60 63 62 65 73
99 98 99 95 95 86 88 86 87 78 81 90 86 74 81 96 98 92 75 65 92 86 60 73 77 73 62 62 59 58 56 51 51 60 79 58 54 55 68 65 56 62 61 77 78 87 61
99 99 97 95 88 78 79 82 89 88 97 98 79 90 64 77 100 92 70 70 82 88 74 58 73 70 59 57 62 63 59 53 60 54 66 70 62 55 57 65 68 58 67 61 61 59 55
99 96 89 95 84 62 65 59 85 97 99 96 66 100 91 98 98 95 74 96 74 84 60 68 68 60 63 62 59 62 59 54 54 53 55 60 58 52 57 60 64 96 92 62 71 60 63
98 92 90 97 76 60 73 94 91 98 100 86 74 100 100 100 99 89 73 79 77 62 60 65 56 57 48 61 60 60 53 58 59 56 51 57 78 62 63 64 63 71 77 98 94 88 62
92 95 97 98 76 67 76 94 97 99 87 56 86 98 99 99 100 91 92 79 70 62 62 65 55 58 50 61 57 58 56 64 57 60 56 58 72 56 58 61 57 64 76 86 99 90 58
92 93 94 97 78 85 69 83 97 86 63 84 92 98 99 100 97 89 88 73 70 63 68 60 54 56 51 61 63 61 62 59 60 68 62 65 65 75 53 57 60 63 87 100 94 86 91
88 86 89 96 83 72 88 80 88 75 65 89 98 98 100 99 100 91 81 74 73 61 61 60 59 57 54 57 51 60 62 62 69 67 70 61 77 67 47 69 58 65 64 74 88 99 85
92 89 86 92 91 74 93 98 84 73 62 70 98 100 99 100 98 86 74 70 70 68 60 59 56 56 53 54 54 58 59 58 68 74 76 61 90 76 58 66 69 71 60 62 78 89 90
97 99 91 87 88 82 82 95 89 73 62 70 94 98 99 100 99 73 64 75 65 60 63 63 60 56 50 55 57 58 50 50 53 63 63 59 70 70 56 53 56 63 62 56 82 70 90
92 92 87 86 85 83 74 100 90 70 72 86 99 100 97 93 96 73 77 77 64 59 61 66 61 61 52 42 36 47 49 46 42 50 60 68 82 90 78 59 68 65 52 58 61 61 66
80 88 92 87 84 85 77 99 95 90 88 97 90 75 98 95 94 84 70 72 56 56 52 52 56 53 53 49 49 55 54 56 64 61 65 69 81 82 70 65 87 82 69 66 69 68 74
70 93 98 86 82 77 79 78 99 100 88 83 90 79 100 83 79 73 67 67 57 52 47 53 46 40 62 52 57 57 61 62 61 67 65 69 81 76 75 73 74 70 59 68 76 87 90
70 90 98 90 91 82 83 73 86 98 99 95 97 87 91 54 73 70 68 60 55 59 57 59 63 58 52 62 57 65 70 71 74 67 67 70 69 77 72 60 57 65 69 68 70 90 97
56 63 99 94 87 81 86 81 65 81 88 98 98 98 100 53 60 66 59 52 46 52 54 65 68 60 62 50 56 65 51 68 76 82 76 73 67 71 76 67 51 63 64 75 71 70 86
42 55 100 90 84 80 75 84 70 99 98 100 98 77 100 57 66 58 50 49 46 51 52 62 64 64 65 56 55 58 49 62 65 72 76 77 73 71 63 62 41 40 60 75 80 66 79
38 55 95 92 82 79 72 67 96 99 94 98 63 84 96 60 60 60 57 48 47 51 46 65 56 65 61 64 66 60 56 59 64 60 66 57 65 68 68 77 54 50 67 63 64 79 81
41 54 92 92 89 79 70 59 97 98 100 94 72 91 78 57 60 62 58 53 47 42 45 61 49 61 53 51 68 69 62 80 61 43 61 64 48 53 52 41 49 76 69 76 86 84 78

GFSGBSN_850_rhum_111.txt.gz
RH
94 92 96 84 86 91 95 99 95 99 98 97 99 92 100 100 100 100 98 81 36 42 41 38 47 50 52 58 48 58 66 73 88 92 86 79 77 63 67 50 51 58 54 64 72 83 83
91 93 82 78 77 79 80 76 88 91 92 97 95 75 98 97 100 100 100 94 57 44 43 39 40 56 94 54 52 60 65 75 87 84 75 80 77 80 76 56 54 49 58 59 66 71 78
82 84 82 85 85 81 76 74 66 62 60 93 94 76 88 91 100 100 97 95 70 45 46 45 50 62 90 57 53 58 63 70 79 74 77 86 90 97 72 67 63 57 63 66 60 60 65
82 86 84 86 94 92 93 88 73 58 58 65 94 86 28 92 99 100 100 96 59 47 50 54 55 87 66 48 53 59 63 65 79 85 81 74 96 99 78 63 61 60 64 77 53 59 68
80 80 84 81 90 91 90 93 91 74 69 63 72 69 28 64 91 100 100 100 82 51 56 59 72 81 48 48 51 59 64 64 69 72 80 75 89 83 66 70 71 50 56 81 50 58 65
91 85 84 82 84 83 83 84 85 92 78 77 82 68 31 42 71 95 99 96 62 51 57 64 83 72 53 41 58 60 63 58 71 66 67 74 80 79 76 83 96 56 51 44 54 59 59
86 86 88 86 84 84 83 82 84 83 84 82 91 86 37 90 87 81 88 64 75 82 73 56 47 44 47 52 55 62 64 62 62 59 60 62 78 74 52 50 50 49 43 38 30 52 59
94 94 98 87 86 89 91 88 81 77 78 78 83 84 45 94 100 100 100 72 61 66 57 59 57 52 56 56 56 56 61 55 49 51 45 52 66 49 54 49 51 47 41 39 47 50 60
90 98 96 92 97 92 92 84 81 77 81 73 82 86 76 57 95 99 100 76 60 60 64 62 61 55 54 60 49 52 62 55 46 46 45 57 56 48 50 50 48 44 46 43 47 53 54
96 99 97 96 95 89 94 87 84 81 76 72 71 89 84 38 78 98 79 63 66 76 90 62 60 61 64 64 51 58 66 66 47 54 46 44 39 50 50 49 43 50 42 46 50 54 52
98 99 98 97 93 90 91 82 78 80 77 74 75 88 87 48 70 100 82 72 77 75 88 55 61 63 67 55 50 55 69 60 51 44 53 53 53 55 51 43 49 51 48 47 45 48 46
98 96 97 92 85 90 81 70 69 79 77 82 86 96 90 61 56 86 90 76 81 91 83 69 60 55 56 52 48 54 55 61 58 49 42 45 46 52 54 52 49 48 51 45 45 53 66
95 93 86 87 87 87 61 53 80 59 81 96 97 100 74 82 97 97 92 84 94 95 60 71 64 55 47 49 49 47 46 44 48 61 70 49 42 41 55 56 43 50 57 76 75 78 56
97 91 81 85 92 81 52 86 87 83 92 99 99 77 60 97 98 98 84 73 98 75 67 54 59 55 48 43 47 50 46 41 45 41 53 56 59 46 42 53 64 59 57 73 81 60 41
87 92 85 90 91 75 72 84 90 96 97 93 60 68 99 86 82 100 81 100 75 73 55 57 57 50 51 48 48 48 40 39 44 41 50 48 45 39 45 50 54 75 77 55 70 44 46
96 78 81 86 91 74 82 71 95 84 72 52 92 83 99 100 100 98 84 80 68 52 52 54 41 44 36 47 45 42 37 47 50 47 41 45 62 47 43 46 52 57 65 81 76 78 54
98 91 70 90 87 79 72 86 90 77 52 69 98 98 98 100 100 88 94 72 60 55 56 51 42 39 36 41 41 38 40 52 48 51 45 44 51 50 38 52 53 54 74 73 97 88 90
97 96 68 87 87 88 79 89 87 71 46 80 92 97 99 98 98 84 72 63 65 58 59 52 43 43 39 43 44 42 44 48 55 57 48 50 51 65 40 44 48 50 60 76 76 95 69
97 97 63 80 84 87 77 80 88 79 52 98 99 99 99 99 100 87 63 60 63 54 54 49 46 46 44 43 42 44 48 51 56 57 57 48 66 68 49 60 54 56 51 49 81 94 84
98 99 58 80 86 86 75 80 87 76 55 91 97 100 99 98 99 85 62 56 60 60 54 51 46 43 41 42 40 44 47 51 56 56 63 53 89 74 57 62 59 64 50 42 68 85 71
99 98 70 76 83 87 76 73 82 76 53 91 98 98 99 97 94 75 58 61 58 52 56 52 48 43 39 39 41 41 44 48 44 51 46 45 71 57 49 47 50 52 54 46 72 67 81
100 98 80 66 86 86 85 82 84 74 61 82 92 99 77 99 80 63 64 65 58 49 51 54 49 49 43 36 33 32 38 39 35 40 48 55 82 82 76 52 56 53 41 41 49 53 56
99 93 85 54 83 86 85 75 96 86 72 92 88 88 99 95 86 68 59 57 53 50 47 47 49 44 46 46 43 42 41 44 54 56 54 59 77 81 63 55 81 82 57 59 60 58 71
96 94 89 45 79 88 86 78 90 96 92 78 90 76 96 87 69 63 57 58 52 50 43 46 42 36 54 48 44 44 44 46 50 52 55 54 75 72 67 73 73 61 54 60 60 70 76
88 96 88 44 81 81 81 77 75 96 99 84 89 89 89 56 46 55 63 54 51 50 50 53 58 56 51 54 44 49 59 62 59 55 51 58 59 67 68 43 46 52 56 59 61 70 93
85 96 82 42 87 83 82 79 78 76 94 97 95 93 98 84 53 58 55 53 44 42 46 59 66 58 66 40 42 60 37 62 60 70 70 57 53 68 66 60 41 47 56 61 59 68 75
90 94 79 40 74 88 80 78 79 82 85 86 92 94 99 92 64 64 47 46 44 41 42 53 58 56 62 41 44 43 35 51 50 56 61 72 69 67 49 54 32 42 50 62 72 72 71
94 96 68 48 61 82 79 76 63 88 99 100 97 100 99 82 70 49 56 52 47 45 38 55 51 57 48 52 52 44 39 43 49 41 50 49 56 56 47 60 51 46 60 61 58 63 64
97 97 48 48 66 81 79 73 61 98 100 100 100 100 100 82 74 55 51 48 47 46 52 57 49 47 40 41 55 56 47 64 48 33 46 50 35 42 41 38 44 47 53 62 66 62 68

GFSGBSN_850_rhum_114.txt.gz
RH
89 88 85 88 91 87 82 76 67 69 84 97 91 100 94 96 94 99 99 100 98 84 45 46 42 41 49 73 55 52 56 70 80 82 85 80 70 66 74 63 70 67 53 52 54 68 73
92 89 94 90 91 97 91 91 81 70 62 94 97 94 92 41 90 97 100 100 95 92 48 50 49 43 91 75 51 55 63 70 82 83 78 73 76 77 79 74 71 58 58 52 58 68 66
95 92 88 86 83 84 88 87 90 79 77 69 95 92 68 34 34 100 100 99 100 85 53 55 52 52 95 67 50 53 60 64 71 67 73 88 80 87 82 71 60 57 70 62 63 64 65
98 98 89 93 91 86 86 83 79 83 82 78 68 95 63 43 24 77 99 100 100 87 55 59 58 74 86 50 43 53 58 61 71 80 83 74 91 84 92 71 62 62 62 88 56 62 58
97 92 94 99 93 93 95 87 84 83 84 86 86 73 71 48 56 52 84 97 100 95 60 65 68 92 63 49 42 52 61 61 63 67 79 82 70 88 73 77 83 62 83 85 70 60 62
96 93 97 93 83 82 90 93 87 89 84 82 75 80 76 63 76 84 70 76 94 61 59 71 84 76 60 43 54 58 59 62 65 66 71 76 80 84 69 89 100 97 95 60 68 65 65
98 87 98 98 91 92 84 79 78 77 70 78 73 75 84 78 50 98 97 79 69 94 87 70 60 56 42 51 53 59 60 61 61 63 67 70 82 92 88 61 50 57 55 54 38 58 60
93 97 97 89 96 91 94 84 81 82 79 76 74 73 88 84 45 81 98 91 80 82 70 61 50 53 49 54 56 57 56 55 49 62 52 61 74 51 55 48 51 50 56 53 48 56 63
98 94 96 94 98 93 86 86 80 80 79 80 81 85 83 88 48 63 98 99 80 74 75 60 60 54 52 53 48 52 60 53 51 52 52 54 49 41 47 48 50 52 68 52 52 49 56
95 93 98 99 94 90 87 82 89 93 91 78 81 94 88 93 45 88 93 91 78 84 99 67 60 57 56 63 51 55 64 63 48 53 55 53 40 44 51 52 49 66 57 50 44 51 85
97 96 98 93 87 85 85 66 91 100 100 71 78 95 96 97 42 87 96 88 78 78 98 56 60 62 60 57 50 56 61 59 53 50 51 63 58 64 64 53 51 59 50 53 51 50 57
96 93 90 77 87 84 81 82 87 90 83 80 91 97 97 90 96 84 95 90 82 96 97 69 60 58 55 49 45 52 51 56 52 49 43 48 33 47 57 52 50 46 55 54 51 55 84
98 98 72 70 84 84 80 82 90 90 96 98 98 98 95 88 97 81 95 90 98 98 61 74 60 51 46 48 46 44 46 47 53 69 75 52 42 39 47 62 50 55 68 93 94 95 86
99 98 79 68 88 85 74 81 87 77 67 67 84 83 98 94 84 92 91 91 98 65 69 53 51 47 46 42 47 47 46 48 44 43 70 69 74 48 40 52 62 67 80 97 95 94 91
100 97 84 70 91 86 80 66 75 80 57 62 94 96 91 76 85 89 91 99 96 76 51 56 48 51 54 44 49 47 38 45 49 48 63 73 52 36 40 40 54 68 85 66 97 59 70
100 98 94 79 87 86 81 69 81 74 55 85 84 92 99 98 97 95 96 95 71 52 50 50 47 43 48 48 48 42 35 48 52 46 42 50 74 48 38 40 50 64 63 85 88 94 69
100 98 91 72 82 83 80 68 77 77 47 82 94 97 100 100 98 91 100 80 55 54 56 56 43 35 38 42 39 36 41 53 53 55 47 50 55 62 44 61 64 74 79 71 94 92 97
99 98 88 60 81 81 77 68 72 65 46 73 88 99 100 100 96 88 88 66 58 55 56 49 42 42 42 39 42 43 53 57 57 54 57 53 60 85 61 52 45 53 58 88 94 89 88
98 99 86 66 74 78 71 73 70 50 47 87 99 100 98 98 100 97 56 52 56 57 54 47 45 42 38 42 47 44 53 48 53 61 69 62 79 92 75 71 54 56 50 50 90 94 90
98 98 89 74 66 75 69 82 65 45 43 78 90 96 93 94 99 86 61 58 55 59 53 47 44 36 35 40 37 46 50 52 52 54 60 53 92 84 89 72 57 72 58 48 80 91 90
98 94 89 78 59 78 72 76 72 64 44 79 89 100 98 94 82 70 58 58 51 58 49 47 43 42 41 38 36 42 43 51 44 42 43 57 82 72 58 48 51 56 55 50 82 70 86
98 94 84 81 45 74 72 73 65 64 69 79 85 87 80 98 72 63 62 61 55 52 51 50 52 45 41 46 43 51 42 44 45 39 54 66 90 90 88 53 64 54 41 40 47 54 60
97 97 79 82 35 65 69 68 74 83 90 81 79 92 86 82 77 66 65 58 54 52 46 45 47 45 55 50 40 38 41 48 56 64 56 67 90 92 73 58 86 86 58 55 58 53 66
93 96 81 83 34 56 61 66 66 77 92 96 97 90 95 75 69 60 57 54 56 52 50 46 48 43 50 44 41 42 42 46 49 53 59 62 85 88 92 86 87 66 54 57 62 62 69
95 95 82 87 37 49 67 68 59 79 83 85 92 89 81 59 46 53 60 52 51 48 53 56 59 52 48 53 57 56 76 65 61 56 54 60 81 87 90 83 46 53 54 65 65 70 80
97 94 84 90 39 44 73 64 72 65 79 87 92 90 95 81 60 57 54 53 55 46 54 59 55 55 59 58 50 71 69 69 74 80 75 60 58 88 89 78 56 64 62 58 59 88 82
99 97 87 92 53 41 71 74 70 72 71 73 86 93 94 88 66 51 55 52 44 43 58 56 60 55 53 54 70 67 52 52 70 62 72 88 88 85 85 76 51 58 59 61 81 75 77
99 98 89 91 64 42 65 81 70 63 76 85 86 97 97 84 73 62 54 52 46 43 51 52 60 61 57 66 80 76 55 58 56 44 53 66 83 85 63 72 74 52 64 74 66 63 67
99 99 92 88 62 38 66 80 72 65 98 100 99 99 99 97 82 62 54 48 48 49 51 53 54 48 48 61 82 85 77 85 58 65 44 64 47 63 54 62 44 52 55 64 62 61 67

GFSGBSN_850_rhum_120.txt.gz
RH
88 87 89 90 82 98 94 83 82 72 72 77 80 78 87 88 80 51 34 92 100 94 99 90 91 49 46 79 41 56 56 66 73 75 75 79 89 84 82 72 67 80 70 67 67 67 66
87 98 97 81 92 97 92 91 88 88 78 77 83 80 78 91 86 67 32 60 97 100 100 92 72 52 52 77 54 56 57 64 72 74 82 87 84 77 77 82 83 70 72 74 71 73 70
92 87 83 85 84 88 83 80 81 79 80 82 78 82 76 76 95 76 54 42 97 100 99 93 62 60 66 42 58 63 66 61 69 67 72 79 80 78 79 87 73 75 89 78 69 68 76
80 85 83 88 76 83 76 79 90 89 92 84 82 80 81 74 79 84 59 76 77 99 99 80 57 78 59 52 53 57 57 56 63 66 72 78 81 84 93 79 82 85 75 91 58 62 67
81 80 81 80 96 95 95 90 88 89 93 93 92 83 79 82 77 80 59 84 63 85 89 73 74 65 67 53 49 46 45 57 62 70 76 77 89 83 92 92 86 82 92 92 78 58 62
88 85 83 93 86 93 92 78 86 87 89 84 90 87 74 86 83 80 55 87 65 89 75 75 95 86 63 52 52 59 57 63 67 71 79 92 90 94 93 92 95 93 84 75 79 64 66
96 97 95 93 66 96 78 83 89 98 91 93 94 94 71 88 94 86 61 86 82 95 82 70 70 63 57 51 48 48 55 60 66 70 88 85 96 86 86 75 88 92 95 91 67 67 79
99 98 96 97 70 84 76 94 95 100 99 99 82 92 67 87 91 85 67 88 87 85 81 64 65 72 60 53 50 60 62 62 70 87 78 82 98 75 69 69 72 72 86 75 72 70 71
98 99 99 95 66 83 77 88 98 99 79 99 99 81 83 89 94 66 91 87 81 72 78 67 66 65 53 53 55 60 62 63 66 72 68 80 65 52 54 60 73 68 70 72 69 58 60
97 100 100 92 46 77 81 93 98 98 67 87 98 98 96 97 82 94 98 88 84 81 94 77 63 62 57 54 60 58 57 62 63 66 61 66 54 53 54 60 66 88 60 61 64 78 91
97 98 99 86 34 73 87 92 98 97 57 88 92 97 83 67 56 95 98 92 86 82 92 69 65 62 60 62 56 58 57 62 70 64 58 43 56 58 64 61 60 71 61 70 70 81 73
98 94 99 84 33 68 77 91 97 97 85 95 91 86 74 78 80 97 94 87 84 86 97 71 58 67 59 54 50 52 56 61 52 60 55 58 46 48 54 54 59 56 69 68 71 80 95
98 94 98 77 35 61 61 88 91 71 96 96 80 62 60 67 80 89 84 82 90 94 58 72 69 64 65 54 52 51 53 59 68 74 76 64 53 50 46 64 59 66 79 92 91 94 97
95 97 98 79 33 56 57 60 38 59 87 94 77 75 82 85 86 78 83 91 89 79 76 57 56 56 56 49 50 53 53 68 62 65 86 86 78 54 48 54 68 76 80 97 97 97 96
92 92 92 83 32 53 53 39 39 68 81 82 66 67 80 77 70 77 87 93 96 73 68 63 56 59 61 47 50 51 66 79 68 69 83 87 72 51 50 51 64 77 87 84 99 99 91
90 88 91 84 32 50 46 29 54 68 74 81 79 87 80 78 77 73 83 86 77 60 65 59 59 51 60 53 52 48 74 68 80 68 66 61 81 55 56 55 53 66 67 77 90 92 96
89 90 93 84 32 47 38 27 46 60 62 71 81 75 69 62 63 66 97 82 70 58 60 54 58 57 51 51 51 64 75 63 64 73 58 64 68 59 68 71 72 68 78 85 83 94 96
87 94 88 82 34 42 43 31 30 60 54 59 98 94 68 59 74 90 90 66 59 64 55 51 49 49 51 52 61 67 68 64 56 66 60 64 73 94 74 59 51 56 63 87 87 89 91
87 90 82 82 46 39 45 33 32 58 53 49 84 87 68 63 89 95 66 62 64 66 64 56 53 50 43 46 57 63 65 54 51 62 67 65 85 90 60 49 50 66 60 68 87 87 96
89 82 79 80 60 38 37 27 24 41 59 56 70 97 68 71 92 90 71 67 65 51 54 53 51 44 43 49 52 56 62 53 49 51 61 62 88 70 74 67 68 75 63 61 79 93 92
89 78 79 76 69 30 41 30 28 32 58 65 69 97 88 99 89 90 67 61 64 61 50 50 56 56 48 46 44 54 52 54 44 50 58 59 75 78 63 65 58 65 59 55 74 77 84
87 90 81 75 73 34 36 35 28 27 52 56 65 83 89 84 82 84 76 66 65 60 53 52 61 56 55 58 54 54 54 55 54 58 60 75 88 92 83 68 79 65 56 48 50 56 63
80 98 82 82 77 53 30 36 29 23 40 62 76 80 85 77 83 81 79 69 61 53 51 50 50 56 56 49 43 47 52 59 61 63 65 79 92 93 80 78 77 58 62 50 65 62 66
82 96 92 86 86 74 26 33 46 30 36 56 67 72 84 83 84 73 69 63 60 55 53 55 49 47 50 45 45 50 54 56 58 67 64 71 92 93 91 78 35 32 59 60 70 67 72
74 91 98 90 90 85 39 34 35 43 30 43 49 68 79 90 79 62 60 62 55 52 55 55 52 56 48 52 67 67 81 64 69 72 73 73 84 92 80 93 53 59 67 74 75 60 71
64 87 99 92 92 91 75 26 39 45 58 50 53 61 70 78 74 67 61 59 69 65 63 54 51 51 52 66 62 74 68 62 64 76 73 72 78 89 93 77 50 36 56 60 55 67 74
63 84 96 97 91 95 85 35 36 39 55 68 73 65 73 76 71 64 61 63 51 56 66 61 49 48 49 67 84 77 54 56 73 70 67 91 93 82 94 93 66 45 68 59 58 19 77
70 77 90 98 93 98 89 65 33 48 40 53 58 70 73 79 72 74 71 61 54 51 61 54 53 59 64 70 86 89 62 60 67 53 65 62 85 90 86 84 42 65 70 59 46 68 63
81 70 88 92 95 100 93 81 32 48 56 46 55 78 82 84 80 77 74 63 61 62 50 56 52 58 53 73 89 94 85 94 64 52 53 63 54 58 60 53 35 61 46 44 52 56 64

GFSGBSN_850_rhum_123.txt.gz
RH
68 73 72 79 83 92 95 93 80 86 94 97 97 96 93 88 93 91 64 30 97 100 100 98 88 61 47 54 34 62 74 94 94 88 85 82 90 89 88 78 71 85 72 65 68 70 72
68 89 85 84 86 94 97 95 99 96 89 91 92 94 96 93 96 97 70 62 59 95 99 94 98 68 48 51 51 58 61 70 75 78 77 83 80 79 81 79 78 68 73 73 72 74 74
89 91 88 90 84 82 98 96 84 94 96 96 87 85 83 77 91 96 84 67 57 100 90 96 92 62 54 45 60 64 65 65 71 70 78 80 86 89 80 88 76 79 85 79 74 74 79
98 98 95 93 90 95 90 76 80 86 84 90 81 79 81 86 88 91 77 62 55 100 99 90 74 60 49 55 62 68 64 62 66 66 72 74 78 85 82 81 83 88 90 93 62 64 65
98 98 97 93 91 84 77 88 84 97 99 98 92 92 86 82 97 92 60 84 56 90 84 79 77 60 59 52 54 59 57 55 59 61 78 81 82 88 88 94 91 80 92 85 82 60 64
97 98 99 98 77 92 86 100 93 94 90 97 97 92 90 85 94 96 61 76 82 88 78 70 81 74 57 54 54 54 46 52 65 73 82 85 93 94 92 96 98 86 95 68 82 68 65
87 98 93 98 86 89 94 99 97 89 89 98 84 97 72 88 87 86 86 88 79 73 90 76 70 66 57 50 49 55 60 63 64 75 93 85 98 93 83 85 88 84 97 87 81 65 72
96 89 94 94 78 95 84 92 97 93 86 98 90 77 81 85 85 61 84 80 85 71 75 65 65 62 55 52 53 61 57 63 72 88 77 87 95 71 66 70 75 86 84 88 74 63 63
96 96 86 82 73 97 94 95 98 96 88 97 92 86 85 92 70 93 87 89 80 73 74 66 66 61 54 55 55 61 63 64 73 81 81 91 68 56 50 54 67 73 80 76 74 65 62
92 95 82 76 42 86 100 99 91 93 89 83 80 88 86 83 85 93 84 91 76 80 88 81 63 60 58 56 59 60 62 63 66 74 65 71 58 54 55 58 65 84 62 66 68 82 86
91 93 86 82 40 56 99 86 87 97 89 88 72 48 52 65 94 75 73 82 80 76 92 62 62 60 57 63 59 56 58 62 79 70 58 52 56 59 62 57 58 73 61 72 72 82 83
90 85 87 82 40 49 81 35 63 77 81 84 65 69 65 73 78 77 78 81 76 76 95 77 59 65 59 53 51 52 53 62 60 61 55 62 49 51 50 53 57 60 69 71 77 85 96
90 85 84 75 40 42 34 42 61 71 82 76 65 64 63 77 85 78 78 74 84 91 60 73 66 64 64 54 53 51 52 67 78 78 76 67 53 50 48 65 60 68 78 94 92 97 96
86 83 80 68 37 39 27 48 59 68 67 66 79 83 77 80 78 74 77 79 90 74 78 60 58 57 56 51 51 59 58 82 66 70 88 89 76 55 53 57 69 79 95 96 94 96 96
81 83 76 68 32 43 30 36 60 56 64 68 84 77 74 74 74 76 76 95 88 74 69 65 57 61 59 49 52 57 72 82 74 75 91 88 74 52 51 57 65 75 95 92 98 82 91
78 78 72 62 32 40 30 25 57 52 51 61 67 78 71 69 69 68 84 89 77 63 64 58 56 54 60 56 51 60 78 66 78 70 69 59 87 52 62 54 50 64 65 83 92 90 99
67 75 72 63 32 37 32 21 53 46 43 45 51 60 59 56 57 55 94 83 68 59 61 53 55 55 52 55 57 70 68 60 64 72 61 68 66 56 62 67 76 66 78 86 86 90 94
50 74 74 68 42 34 31 20 39 52 40 34 49 79 56 48 64 85 91 68 61 63 55 51 49 49 51 53 64 67 62 65 57 65 61 66 73 94 80 65 52 54 65 89 92 88 82
44 76 76 70 55 30 32 21 24 44 47 37 53 52 52 47 97 96 71 66 63 65 63 57 52 50 43 49 50 66 64 52 53 64 69 63 81 86 50 46 49 65 62 66 86 87 95
44 75 75 71 62 31 33 19 16 37 43 48 54 81 49 60 85 90 88 70 66 50 56 51 50 44 43 48 52 58 60 52 45 52 66 60 88 70 67 62 67 78 64 59 77 91 92
47 62 76 74 67 41 28 29 16 20 41 46 60 95 92 97 79 87 76 69 70 66 51 50 53 58 55 43 45 54 52 54 44 56 59 53 71 79 66 67 68 67 67 55 78 82 82
52 52 84 76 72 58 27 31 28 19 36 47 55 71 78 83 85 73 78 77 68 64 60 55 57 58 58 54 54 52 54 57 52 60 61 72 85 91 80 67 76 77 60 57 53 60 65
59 54 80 79 76 71 45 27 31 23 32 48 60 70 72 79 80 76 78 70 63 56 52 55 55 57 53 53 47 52 56 61 66 68 66 80 92 91 66 78 69 46 50 53 62 63 64
69 60 79 90 78 77 70 27 32 33 33 51 53 60 66 77 79 73 69 64 59 58 58 54 49 48 52 50 48 53 58 60 60 70 66 72 93 92 85 74 24 24 57 59 71 73 69
80 65 72 97 85 78 79 58 30 36 29 45 51 59 60 79 75 64 60 64 59 57 54 54 52 49 47 53 66 67 77 52 67 76 76 74 83 94 76 92 45 41 64 70 70 61 70
91 69 68 99 95 84 82 77 28 34 38 35 49 57 67 67 73 57 58 60 73 67 59 54 50 51 48 64 65 70 64 59 55 72 70 72 79 85 93 57 26 23 53 61 50 42 57
98 84 66 91 100 90 85 82 63 30 35 46 42 49 62 69 65 61 58 65 52 58 65 60 48 50 47 69 84 79 51 57 65 65 58 90 93 73 93 89 56 39 66 55 34 12 67
100 96 71 72 99 98 86 88 81 34 41 42 52 52 57 65 59 64 58 54 55 51 61 53 49 57 66 72 86 88 67 57 70 54 61 56 77 86 88 88 23 61 70 52 33 54 53
100 99 93 69 95 100 96 94 88 66 36 51 48 54 63 69 64 67 67 63 65 49 44 52 46 56 48 72 91 95 91 95 69 47 59 62 48 46 57 43 29 61 49 44 40 47 52

GFSGBSN_850_rhum_126.txt.gz
RH
94 96 96 96 92 85 93 81 86 78 92 97 96 87 84 91 96 96 98 68 93 100 100 99 94 62 46 42 46 65 73 92 92 86 88 87 86 80 96 88 80 99 80 70 68 62 68
98 98 99 96 93 91 85 90 84 92 98 100 99 79 84 84 92 97 96 79 64 99 100 92 82 60 46 44 59 77 79 91 85 91 91 84 78 75 87 83 81 77 80 77 71 73 74
97 98 99 98 96 90 90 93 91 94 100 98 100 96 80 82 90 92 94 70 71 100 99 92 70 56 50 61 63 69 67 72 78 73 75 76 77 87 85 86 82 83 91 78 68 71 80
87 90 78 91 86 92 92 99 95 98 100 91 88 91 90 71 83 84 83 74 68 100 81 93 75 57 57 63 60 61 63 68 72 78 78 79 79 86 89 84 78 89 88 87 62 64 66
92 90 76 81 96 98 88 92 97 99 99 98 74 92 79 72 85 85 70 79 88 84 91 82 63 57 59 54 60 62 62 59 58 62 68 79 83 92 86 88 85 86 96 90 77 62 66
96 87 76 81 89 98 93 98 96 98 93 86 89 79 76 75 90 67 80 70 78 79 68 66 61 53 54 56 59 55 56 55 65 70 76 84 85 95 92 93 98 99 100 89 88 64 68
96 82 68 89 75 97 99 98 95 94 91 81 68 78 82 89 67 80 65 77 68 65 62 76 70 66 56 52 54 61 51 60 68 72 82 77 93 92 93 79 81 95 95 100 90 66 78
95 86 85 96 72 99 99 99 96 92 81 87 71 83 90 86 66 83 80 73 70 69 76 69 62 58 55 52 59 62 58 63 70 84 75 84 95 74 63 67 70 69 90 91 76 67 61
91 83 81 90 53 81 87 99 89 82 81 76 85 79 80 89 94 80 72 69 68 70 68 68 62 61 58 53 58 64 64 66 72 82 84 93 71 59 65 60 61 68 80 79 79 68 60
88 84 80 54 40 32 62 66 75 75 82 64 73 70 65 85 75 81 77 76 76 77 88 73 64 60 58 57 58 62 64 63 68 80 69 79 64 56 59 58 57 83 61 70 72 78 87
79 80 76 44 39 27 60 67 71 67 66 70 72 71 73 59 74 68 77 70 70 73 80 55 65 54 55 61 59 53 58 64 81 71 65 64 56 62 63 56 60 73 60 73 73 83 87
79 75 65 38 38 26 39 69 67 62 56 62 74 77 69 56 61 70 73 73 72 72 85 74 62 65 56 52 52 52 52 60 66 59 54 72 52 55 55 54 58 61 73 75 82 87 94
78 75 62 35 32 27 24 58 63 51 60 72 85 78 77 71 69 68 68 68 79 89 62 62 65 63 63 55 52 56 56 73 84 82 76 69 56 50 50 66 60 72 76 95 95 97 93
54 76 67 35 28 29 21 47 52 49 62 72 74 75 71 80 84 78 75 72 88 75 81 62 61 57 59 53 53 63 65 81 70 73 91 92 73 53 51 60 72 83 93 91 95 96 96
39 75 72 41 24 25 20 36 52 49 56 52 60 58 54 60 67 72 74 94 83 74 70 70 56 60 58 53 55 64 76 78 78 78 93 85 70 53 52 58 64 74 92 84 84 89 90
35 66 70 60 24 22 18 26 46 47 46 44 39 43 46 44 49 54 83 89 82 66 67 60 56 56 61 58 51 64 70 66 72 69 73 61 91 50 59 52 50 64 67 85 91 88 100
35 45 71 65 34 22 17 23 40 47 41 38 42 45 45 36 40 50 96 81 69 59 62 58 57 57 54 58 62 71 64 57 64 71 64 71 68 52 56 63 71 68 78 86 84 88 92
61 42 69 67 49 23 17 18 30 36 34 34 41 67 44 30 64 82 92 75 63 63 55 56 50 51 54 57 62 66 63 62 59 64 66 66 74 89 61 62 59 55 63 89 92 92 82
61 44 54 70 58 26 19 14 18 29 31 33 39 44 46 35 87 99 76 60 63 62 61 60 53 57 47 55 56 66 62 52 50 63 76 66 76 73 43 46 49 65 61 68 87 88 95
60 54 49 72 63 35 21 18 15 22 29 33 39 76 45 55 84 80 77 71 62 48 56 56 51 44 48 47 51 54 60 52 49 61 69 60 86 64 60 58 67 81 65 60 77 91 90
90 60 52 61 72 58 25 23 17 16 35 36 44 85 83 93 83 79 71 65 66 64 51 50 53 58 59 47 49 52 50 57 44 57 61 54 68 81 70 68 72 73 70 62 80 80 80
99 78 60 54 74 70 54 25 24 16 27 44 45 65 78 78 79 70 76 76 61 57 56 52 54 58 55 52 54 58 57 58 56 64 61 71 76 91 85 67 76 79 69 64 57 61 74
100 95 69 57 67 74 68 43 27 25 22 44 56 59 59 80 78 76 79 70 61 58 53 54 54 60 47 50 50 50 58 62 67 71 67 79 92 91 60 71 70 42 46 60 56 60 63
99 99 77 64 56 79 75 70 30 30 25 39 50 60 60 68 80 75 74 67 62 56 53 53 49 53 48 50 53 58 61 63 65 71 70 72 96 92 84 66 15 22 51 53 61 68 72
100 99 95 70 68 70 78 78 70 28 32 43 49 55 60 72 68 67 68 68 60 60 55 52 46 47 50 54 68 64 72 51 65 76 74 74 84 87 77 87 31 45 63 75 64 41 71
99 100 99 85 72 76 80 82 81 47 32 34 45 50 56 63 70 55 62 65 76 72 60 55 49 50 50 62 65 70 62 56 52 66 72 71 79 83 92 47 17 14 52 62 52 22 42
98 97 99 98 80 76 95 84 88 83 34 36 42 49 59 61 51 56 57 66 58 60 62 58 49 54 48 67 83 80 50 58 68 61 48 88 92 67 93 81 43 31 61 59 26 10 51
98 98 98 99 97 82 82 97 88 92 68 39 41 52 58 60 47 52 55 50 54 53 62 54 50 57 65 69 84 86 70 54 70 56 54 44 69 81 88 87 16 42 71 44 21 30 47
100 99 100 100 100 96 84 98 96 98 90 45 47 48 60 74 59 59 59 59 49 47 46 51 46 54 42 67 92 94 93 97 70 46 60 57 45 41 49 35 22 50 35 29 34 33 43